[[{"header":{"parameterUnit":"m.s-1","parameterCategory":1,"la1":30.6,"la2":29.2853,"lo1":-89.7004,"lo2":-87.6739,"dy":0.0162,"dx":0.0183,"nx":112,"ny":82,"refTime":"2023-10-24T06:00:00:Z","depth":0,"parameterNumber":2,"parameterNumberName":"U-component_of_WINDS"},"data":[0.0,0.0,0.0,0.0,0.0,0.0,0.0,0.0,0.0,0.0,0.0,0.0,0.0,0.0,0.0,0.0,0.0,0.0,0.0,0.0,0.0,0.0,0.0,0.0,0.0,0.0,0.0,0.0,0.0,0.0,0.0,0.0,0.0,0.0,0.0,0.0,0.0,0.0,0.0,0.0,0.0,0.0,0.0,0.0,0.0,0.0,0.0,0.0,0.0,0.0,0.0,0.0,0.0,0.0,0.0,0.0,0.0,0.0,0.0,0.0,0.0,0.0,0.0,0.0,0.0,0.0,0.0,0.0,0.0,0.0,0.0,0.0,0.0,0.0,0.0,0.0,0.0,0.0,0.0,0.0,0.0,0.0,0.0,0.0,0.0,0.0,0.0,0.0,0.0,0.0,-1.3556,-1.3201,-1.381,-1.443,-1.4989,-1.5224,-1.5034,-1.4349,0.0,0.0,0.0,0.0,0.0,0.0,0.0,0.0,0.0,0.0,0.0,0.0,0.0,0.0,0.0,0.0,0.0,0.0,0.0,0.0,0.0,0.0,0.0,0.0,0.0,0.0,0.0,0.0,0.0,0.0,0.0,0.0,0.0,0.0,0.0,0.0,0.0,0.0,0.0,0.0,0.0,0.0,0.0,0.0,0.0,0.0,0.0,0.0,0.0,0.0,0.0,0.0,0.0,0.0,0.0,0.0,0.0,0.0,0.0,0.0,0.0,0.0,0.0,0.0,0.0,0.0,0.0,0.0,0.0,0.0,0.0,0.0,0.0,0.0,0.0,0.0,0.0,0.0,0.0,0.0,0.0,0.0,0.0,0.0,0.0,0.0,0.0,0.0,0.0,0.0,0.0,0.0,0.0,0.0,0.0,0.0,0.0,0.0,0.0,0.0,0.0,0.0,0.0,0.0,-1.3354,-1.3481,-1.4,-1.4456,-1.4943,-1.5515,-1.5558,-1.4812,0.0,0.0,0.0,0.0,0.0,0.0,0.0,0.0,0.0,0.0,0.0,0.0,0.0,0.0,0.0,0.0,0.0,0.0,0.0,0.0,0.0,0.0,0.0,0.0,0.0,0.0,0.0,0.0,0.0,0.0,0.0,0.0,0.0,0.0,0.0,0.0,0.0,0.0,0.0,0.0,0.0,0.0,0.0,0.0,0.0,0.0,0.0,0.0,0.0,0.0,0.0,0.0,0.0,0.0,0.0,0.0,0.0,0.0,0.0,0.0,0.0,0.0,0.0,0.0,0.0,0.0,0.0,0.0,0.0,0.0,0.0,0.0,0.0,0.0,0.0,0.0,0.0,0.0,0.0,0.0,0.0,0.0,0.0,0.0,0.0,0.0,0.0,0.0,0.0,0.0,0.0,0.0,0.0,0.0,0.0,0.0,0.0,0.0,0.0,0.0,0.0,0.0,0.0,-1.3568,-1.3586,-1.4117,-1.4264,-1.4394,-1.4609,-1.458,-1.4536,-1.444,-1.4092,0.0,0.0,0.0,0.0,0.0,0.0,0.0,0.0,0.0,0.0,0.0,0.0,0.0,0.0,0.0,0.0,0.0,0.0,0.0,0.0,0.0,0.0,0.0,0.0,0.0,0.0,0.0,0.0,0.0,0.0,0.0,0.0,0.0,0.0,0.0,0.0,0.0,0.0,0.0,0.0,0.0,0.0,0.0,0.0,0.0,0.0,0.0,0.0,0.0,0.0,0.0,0.0,0.0,0.0,0.0,0.0,0.0,0.0,0.0,0.0,0.0,0.0,0.0,0.0,0.0,0.0,0.0,0.0,0.0,0.0,0.0,0.0,0.0,0.0,0.0,0.0,0.0,0.0,0.0,0.0,0.0,0.0,0.0,0.0,0.0,0.0,0.0,0.0,0.0,0.0,0.0,0.0,0.0,0.0,0.0,0.0,0.0,0.0,0.0,0.0,0.0,0.0,-1.4033,-1.3942,-1.461,-1.4553,-1.4474,-1.463,-1.4161,-1.4023,-1.4331,-1.3726,0.0,0.0,0.0,0.0,0.0,0.0,0.0,0.0,0.0,0.0,0.0,0.0,0.0,0.0,0.0,0.0,0.0,0.0,0.0,0.0,0.0,0.0,0.0,0.0,0.0,0.0,0.0,0.0,0.0,0.0,0.0,0.0,0.0,0.0,0.0,0.0,0.0,0.0,0.0,0.0,0.0,0.0,0.0,0.0,0.0,0.0,0.0,0.0,0.0,0.0,0.0,0.0,0.0,0.0,0.0,0.0,0.0,0.0,0.0,0.0,0.0,0.0,0.0,0.0,0.0,0.0,0.0,0.0,0.0,0.0,0.0,0.0,0.0,0.0,0.0,0.0,0.0,0.0,0.0,0.0,0.0,0.0,0.0,0.0,0.0,0.0,0.0,0.0,0.0,0.0,0.0,0.0,0.0,0.0,0.0,0.0,0.0,0.0,0.0,0.0,0.0,0.0,-1.4231,-1.4402,-1.48,-1.4903,-1.5055,-1.5587,-1.5396,-1.5252,-1.5279,-1.4844,0.0,0.0,0.0,0.0,0.0,0.0,0.0,0.0,0.0,0.0,0.0,0.0,0.0,0.0,0.0,0.0,0.0,0.0,0.0,0.0,0.0,0.0,0.0,0.0,0.0,0.0,0.0,0.0,0.0,0.0,0.0,0.0,0.0,0.0,0.0,0.0,0.0,0.0,0.0,0.0,0.0,0.0,0.0,0.0,0.0,0.0,0.0,0.0,0.0,0.0,0.0,0.0,0.0,0.0,0.0,0.0,0.0,0.0,0.0,0.0,0.0,0.0,0.0,0.0,0.0,0.0,0.0,0.0,0.0,0.0,0.0,0.0,0.0,0.0,0.0,0.0,0.0,0.0,0.0,0.0,0.0,0.0,0.0,0.0,0.0,0.0,0.0,0.0,0.0,0.0,0.0,0.0,0.0,0.0,0.0,0.0,0.0,0.0,0.0,0.0,0.0,0.0,-1.4222,-1.4371,-1.4855,-1.4818,-1.4757,-1.4837,-1.4929,-1.4696,-1.405,0.0,0.0,0.0,0.0,0.0,0.0,0.0,0.0,0.0,0.0,0.0,0.0,0.0,0.0,0.0,0.0,0.0,0.0,0.0,0.0,0.0,0.0,0.0,0.0,0.0,0.0,0.0,0.0,0.0,0.0,0.0,0.0,0.0,0.0,0.0,0.0,0.0,0.0,0.0,0.0,0.0,0.0,0.0,0.0,0.0,0.0,0.0,0.0,0.0,0.0,0.0,0.0,0.0,0.0,0.0,0.0,0.0,0.0,0.0,0.0,0.0,0.0,0.0,0.0,0.0,0.0,0.0,0.0,0.0,0.0,0.0,0.0,0.0,0.0,0.0,0.0,0.0,0.0,0.0,0.0,0.0,0.0,0.0,0.0,0.0,0.0,0.0,0.0,0.0,0.0,0.0,0.0,0.0,0.0,0.0,0.0,0.0,0.0,0.0,0.0,0.0,0.0,-1.4164,-1.4193,-1.4342,-1.4855,-1.4679,-1.4546,-1.4577,-1.463,-1.4308,-1.3563,0.0,0.0,0.0,0.0,0.0,0.0,0.0,0.0,0.0,0.0,0.0,0.0,0.0,0.0,0.0,0.0,0.0,0.0,0.0,0.0,0.0,0.0,0.0,0.0,0.0,0.0,0.0,0.0,0.0,0.0,0.0,0.0,0.0,0.0,0.0,0.0,0.0,0.0,0.0,0.0,0.0,0.0,0.0,0.0,0.0,0.0,0.0,0.0,0.0,0.0,0.0,0.0,0.0,0.0,0.0,0.0,0.0,0.0,0.0,0.0,0.0,0.0,0.0,0.0,0.0,0.0,0.0,0.0,0.0,0.0,0.0,0.0,0.0,0.0,0.0,0.0,0.0,0.0,0.0,0.0,0.0,0.0,0.0,0.0,0.0,0.0,0.0,0.0,0.0,0.0,0.0,0.0,0.0,0.0,0.0,0.0,0.0,0.0,0.0,0.0,0.0,0.0,-1.4148,-1.4279,-1.4477,-1.4819,-1.4604,-1.4622,-1.515,-1.4799,-1.4412,0.0,0.0,0.0,0.0,0.0,0.0,0.0,0.0,0.0,0.0,0.0,0.0,0.0,0.0,0.0,0.0,0.0,0.0,0.0,0.0,0.0,0.0,0.0,0.0,0.0,0.0,0.0,0.0,0.0,0.0,0.0,0.0,0.0,0.0,0.0,0.0,0.0,0.0,0.0,0.0,0.0,0.0,0.0,0.0,0.0,0.0,0.0,0.0,0.0,0.0,0.0,0.0,0.0,0.0,0.0,0.0,0.0,0.0,0.0,0.0,0.0,0.0,0.0,0.0,0.0,0.0,0.0,0.0,0.0,0.0,0.0,0.0,0.0,0.0,0.0,0.0,0.0,0.0,0.0,0.0,0.0,0.0,0.0,0.0,0.0,0.0,0.0,0.0,0.0,0.0,0.0,0.0,0.0,0.0,0.0,0.0,0.0,0.0,0.0,0.0,0.0,0.0,0.0,-1.3591,-1.3737,-1.3924,-1.4184,-1.4401,-1.4591,-1.4827,-1.474,-1.4344,-1.3671,0.0,0.0,0.0,0.0,0.0,0.0,0.0,0.0,0.0,0.0,0.0,0.0,0.0,0.0,0.0,0.0,0.0,0.0,0.0,0.0,0.0,0.0,0.0,0.0,0.0,0.0,0.0,0.0,0.0,0.0,0.0,0.0,0.0,0.0,0.0,0.0,0.0,0.0,0.0,0.0,0.0,0.0,0.0,0.0,0.0,0.0,0.0,0.0,0.0,0.0,0.0,0.0,0.0,0.0,0.0,0.0,0.0,0.0,0.0,0.0,0.0,0.0,0.0,0.0,0.0,0.0,0.0,0.0,0.0,0.0,0.0,0.0,0.0,0.0,0.0,0.0,0.0,0.0,0.0,0.0,0.0,0.0,0.0,0.0,0.0,0.0,0.0,0.0,0.0,0.0,0.0,0.0,0.0,0.0,0.0,0.0,0.0,0.0,0.0,0.0,0.0,0.0,-1.3548,-1.3587,-1.3634,-1.3765,-1.4214,-1.4336,-1.3879,-1.4285,-1.4003,-1.2717,0.0,0.0,0.0,0.0,0.0,0.0,0.0,0.0,0.0,0.0,0.0,0.0,0.0,0.0,0.0,0.0,0.0,0.0,0.0,0.0,0.0,0.0,0.0,0.0,0.0,0.0,0.0,0.0,0.0,0.0,0.0,0.0,0.0,0.0,0.0,0.0,0.0,0.0,0.0,0.0,0.0,0.0,0.0,0.0,0.0,0.0,0.0,0.0,0.0,0.0,0.0,0.0,0.0,0.0,0.0,0.0,0.0,0.0,0.0,0.0,0.0,0.0,0.0,0.0,0.0,0.0,0.0,0.0,0.0,0.0,0.0,0.0,0.0,0.0,0.0,0.0,0.0,0.0,0.0,0.0,0.0,0.0,0.0,0.0,0.0,0.0,0.0,0.0,0.0,0.0,0.0,0.0,0.0,0.0,0.0,0.0,0.0,0.0,0.0,0.0,0.0,0.0,-1.3775,-1.3663,-1.3526,-1.3528,-1.394,-1.3822,-1.2709,-1.3608,-1.3407,-1.1603,0.0,0.0,0.0,0.0,0.0,0.0,0.0,0.0,0.0,0.0,0.0,0.0,0.0,0.0,0.0,0.0,0.0,0.0,0.0,0.0,0.0,0.0,0.0,0.0,0.0,0.0,0.0,0.0,0.0,0.0,0.0,0.0,0.0,0.0,0.0,0.0,0.0,0.0,0.0,0.0,0.0,0.0,0.0,0.0,0.0,0.0,0.0,0.0,0.0,0.0,0.0,0.0,0.0,0.0,0.0,0.0,0.0,0.0,0.0,0.0,-1.7347,-1.7598,0.0,0.0,0.0,0.0,0.0,0.0,0.0,0.0,0.0,0.0,0.0,0.0,0.0,0.0,0.0,0.0,0.0,0.0,0.0,0.0,0.0,0.0,0.0,0.0,0.0,0.0,0.0,0.0,0.0,0.0,0.0,0.0,0.0,0.0,0.0,0.0,0.0,0.0,0.0,0.0,-1.334,-1.2986,-1.2751,-1.2815,-1.3126,-1.3162,-1.2895,-1.2716,-1.2432,-1.2012,-1.0751,0.0,0.0,0.0,0.0,0.0,0.0,0.0,0.0,0.0,0.0,0.0,0.0,0.0,0.0,0.0,0.0,0.0,0.0,0.0,0.0,0.0,0.0,0.0,0.0,0.0,0.0,0.0,0.0,0.0,0.0,0.0,0.0,0.0,0.0,0.0,0.0,0.0,0.0,0.0,0.0,0.0,0.0,0.0,0.0,0.0,0.0,0.0,0.0,0.0,0.0,0.0,0.0,0.0,0.0,0.0,0.0,0.0,0.0,0.0,-1.7437,-1.7769,0.0,0.0,0.0,0.0,0.0,0.0,0.0,0.0,0.0,0.0,0.0,0.0,0.0,0.0,0.0,0.0,0.0,0.0,0.0,0.0,0.0,0.0,0.0,0.0,0.0,0.0,0.0,0.0,0.0,0.0,0.0,0.0,0.0,0.0,0.0,0.0,0.0,0.0,0.0,0.0,-1.3169,-1.2887,-1.2581,-1.2315,-1.2723,-1.3011,-1.2947,-1.2547,-1.23,-1.2216,-1.0906,0.0,0.0,0.0,0.0,0.0,0.0,0.0,0.0,0.0,0.0,0.0,0.0,0.0,0.0,0.0,0.0,0.0,0.0,0.0,0.0,0.0,0.0,0.0,0.0,0.0,0.0,0.0,0.0,0.0,0.0,0.0,0.0,0.0,0.0,0.0,0.0,0.0,0.0,0.0,0.0,0.0,0.0,0.0,0.0,0.0,0.0,0.0,0.0,0.0,0.0,0.0,0.0,0.0,-1.6679,-1.6693,-1.6758,-1.6861,-1.7039,-1.7388,-1.7683,-1.7918,-1.796,-1.7653,0.0,0.0,0.0,0.0,0.0,0.0,0.0,0.0,0.0,0.0,0.0,0.0,0.0,0.0,0.0,0.0,0.0,0.0,0.0,0.0,0.0,0.0,-1.6605,-1.5591,-1.5582,-1.5303,-1.3554,0.0,0.0,0.0,0.0,0.0,0.0,0.0,0.0,0.0,0.0,0.0,-1.3095,-1.2898,-1.2542,-1.2051,-1.2421,-1.27,-1.2668,-1.2421,-1.2219,-1.1992,-1.1371,-1.0747,0.0,0.0,0.0,0.0,0.0,0.0,0.0,0.0,0.0,0.0,0.0,0.0,0.0,0.0,0.0,0.0,0.0,0.0,0.0,0.0,0.0,0.0,0.0,0.0,0.0,0.0,0.0,0.0,0.0,0.0,0.0,0.0,-1.947,-1.924,0.0,0.0,0.0,0.0,0.0,0.0,0.0,0.0,0.0,0.0,0.0,0.0,0.0,-1.6897,-1.7244,-1.7047,-1.6748,-1.6445,-1.6109,-1.5875,-1.5743,-1.6727,-1.728,-1.7456,-1.8926,0.0,-1.6638,-1.6425,0.0,0.0,0.0,0.0,0.0,0.0,0.0,0.0,0.0,0.0,0.0,0.0,0.0,0.0,0.0,0.0,0.0,0.0,0.0,0.0,0.0,0.0,-1.6334,-1.4594,-1.4255,-1.4128,-1.3595,-1.3806,-1.4012,-1.3682,-1.3295,-1.3188,0.0,0.0,0.0,0.0,0.0,0.0,-1.2814,-1.2492,-1.2209,-1.2144,-1.1854,-1.1552,-1.142,-1.1128,-1.0871,-1.0734,-1.1132,-1.1085,-1.0465,-1.1005,0.0,0.0,0.0,0.0,0.0,0.0,0.0,0.0,0.0,0.0,0.0,0.0,0.0,0.0,0.0,0.0,0.0,0.0,0.0,0.0,0.0,0.0,0.0,0.0,0.0,0.0,0.0,0.0,0.0,-1.9694,-1.8755,-1.8325,-1.8237,-1.7937,0.0,0.0,0.0,0.0,0.0,0.0,0.0,0.0,0.0,-1.5975,-1.6207,-1.6363,-1.6381,-1.6498,-1.6483,-1.6324,-1.641,-1.65,-1.6529,-1.7369,-1.777,-1.7781,-1.8427,-1.7989,-1.6783,-1.718,-1.7133,-1.6524,0.0,0.0,0.0,0.0,-1.4506,-1.4418,-1.4444,-1.4449,-1.4452,-1.4357,0.0,0.0,0.0,0.0,0.0,0.0,0.0,-1.5258,-1.4736,-1.5185,-1.5613,-1.457,-1.421,-1.4097,-1.3953,-1.3937,-1.3855,-1.3594,-1.3595,-1.3645,-1.3644,-1.304,0.0,0.0,0.0,-1.2842,-1.3037,-1.2683,-1.2377,-1.245,-1.187,-1.1704,-1.2262,-1.1482,-1.117,-1.1615,-1.1257,-1.0827,-1.0482,-1.0778,-1.0858,0.0,0.0,0.0,0.0,0.0,0.0,0.0,0.0,0.0,0.0,0.0,0.0,0.0,0.0,0.0,0.0,0.0,0.0,0.0,0.0,0.0,0.0,0.0,0.0,0.0,0.0,0.0,0.0,-1.8705,-1.8072,-1.7631,-1.7539,-1.7217,0.0,0.0,0.0,0.0,0.0,0.0,-1.5943,-1.5911,-1.606,-1.6299,-1.6461,-1.6435,-1.6113,-1.6289,-1.6233,-1.61,-1.6579,-1.685,-1.6934,-1.7811,-1.8077,-1.7791,-1.8087,-1.7811,-1.7348,-1.77,-1.7524,-1.694,-1.5917,-1.5291,-1.5004,-1.5135,-1.501,-1.4833,-1.4967,-1.4967,-1.4867,-1.4662,-1.4487,-1.418,-1.3865,0.0,0.0,0.0,0.0,-1.4557,-1.4554,-1.4798,-1.4882,-1.4534,-1.4342,-1.4246,-1.4121,-1.4003,-1.3714,-1.3412,-1.3563,-1.3634,-1.3378,-1.2914,0.0,-1.3244,-1.2978,-1.2812,-1.3054,-1.289,-1.2714,-1.2863,-1.2405,-1.2366,-1.3108,-1.2199,-1.1836,-1.2354,-1.1858,-1.1231,-1.0616,-1.097,-1.0936,-1.0486,0.0,0.0,0.0,0.0,0.0,0.0,0.0,0.0,0.0,0.0,0.0,0.0,0.0,0.0,0.0,0.0,0.0,0.0,0.0,0.0,0.0,0.0,0.0,0.0,0.0,0.0,0.0,0.0,0.0,-1.7791,-1.7439,0.0,0.0,0.0,0.0,-1.5441,-1.6013,-1.6414,-1.6458,-1.6977,-1.7372,-1.7574,-1.7356,-1.7212,-1.7039,-1.6617,-1.6102,-1.5429,-1.611,-1.6199,-1.5761,-1.7638,-1.8035,-1.7443,-1.8599,-1.873,-1.8068,-1.6927,-1.6624,-1.6816,-1.5847,-1.5922,-1.6292,-1.4805,-1.4256,-1.4082,-1.3167,-1.2943,-1.3191,-1.3785,-1.4055,-1.4204,-1.3953,-1.3685,0.0,0.0,-1.3692,-1.399,-1.4162,-1.4437,-1.4638,-1.439,-1.4258,-1.4216,-1.4073,-1.4031,-1.3944,-1.3595,-1.3073,-1.2832,-1.3128,0.0,-1.2216,-1.2307,-1.2364,-1.2452,-1.2554,-1.2753,-1.3022,-1.34,-1.3334,-1.317,-1.3006,-1.2827,-1.2521,-1.2086,-1.3088,-1.2906,-1.0934,-1.2246,-1.2344,-1.0977,-1.0764,0.0,0.0,0.0,0.0,0.0,0.0,0.0,0.0,0.0,0.0,0.0,0.0,0.0,0.0,0.0,0.0,0.0,0.0,0.0,0.0,0.0,0.0,0.0,0.0,0.0,0.0,0.0,0.0,-1.6927,-1.7318,0.0,-1.6364,-1.5911,-1.5744,-1.5981,-1.6065,-1.626,-1.6584,-1.6557,-1.6641,-1.6898,-1.6451,-1.6284,-1.6233,-1.6057,-1.5851,-1.5615,-1.6107,-1.6308,-1.6136,-1.7451,-1.7904,-1.7611,-1.8104,-1.813,-1.7878,-1.7136,-1.6883,-1.6939,-1.6295,-1.6041,-1.6013,-1.5236,-1.495,-1.4794,-1.4273,-1.417,-1.4215,-1.4363,-1.4193,-1.3893,-1.3836,-1.3511,-1.3133,-1.3223,-1.3328,-1.3475,-1.3734,-1.3881,-1.4,-1.3984,-1.4018,-1.3949,-1.37,-1.3652,-1.3596,-1.3202,-1.3205,-1.3155,-1.278,-1.2395,-1.2214,-1.2323,-1.2339,-1.2428,-1.2721,-1.2853,-1.3035,-1.3209,-1.2991,-1.274,-1.2592,-1.2339,-1.2091,-1.1897,-1.215,-1.1977,-1.1233,-1.162,-1.155,-1.084,-1.0816,-1.0681,0.0,0.0,0.0,0.0,0.0,0.0,0.0,0.0,0.0,0.0,0.0,0.0,0.0,0.0,0.0,0.0,0.0,0.0,0.0,0.0,0.0,0.0,0.0,0.0,0.0,-1.6837,-1.697,-1.6729,-1.7146,-1.7279,-1.6573,-1.6224,-1.6145,-1.6444,-1.6335,-1.6446,-1.7004,-1.6609,-1.6546,-1.6833,-1.6225,-1.5881,-1.5704,-1.5528,-1.5352,-1.5264,-1.5697,-1.5931,-1.5878,-1.6896,-1.7334,-1.7276,-1.7438,-1.7471,-1.7288,-1.7024,-1.6727,-1.6584,-1.6576,-1.643,-1.6152,-1.5685,-1.5471,-1.5394,-1.4861,-1.4585,-1.452,-1.4412,-1.4109,-1.3741,-1.3741,-1.3472,-1.3139,-1.3288,-1.3329,-1.3383,-1.3634,-1.3736,-1.3804,-1.3899,-1.3878,-1.379,-1.3593,-1.3471,-1.3329,-1.3078,-1.3231,-1.3174,-1.2608,-1.2368,-1.2326,-1.2449,-1.2416,-1.2532,-1.2957,-1.3042,-1.3119,-1.3303,-1.3042,-1.2811,-1.2608,-1.2349,-1.2102,-1.198,-1.1761,-1.1615,-1.1389,-1.1525,-1.1323,-1.0799,-1.0833,-1.0712,-1.0426,0.0,0.0,0.0,0.0,0.0,0.0,0.0,0.0,0.0,0.0,0.0,0.0,0.0,0.0,0.0,0.0,0.0,0.0,0.0,0.0,0.0,0.0,0.0,-1.7375,-1.6756,-1.6538,-1.7093,-1.6994,-1.6839,-1.6781,-1.671,-1.6674,-1.6758,-1.6774,-1.7115,-1.7814,-1.7375,-1.7279,-1.7805,-1.6928,-1.6225,-1.5704,-1.5264,-1.4822,-1.4299,-1.4734,-1.492,-1.4691,-1.5885,-1.622,-1.6167,-1.6864,-1.6841,-1.6489,-1.6489,-1.6225,-1.5793,-1.6673,-1.7016,-1.6928,-1.6049,-1.5697,-1.5587,-1.4472,-1.398,-1.3851,-1.3844,-1.3749,-1.3634,-1.3627,-1.3526,-1.3431,-1.358,-1.3627,-1.3661,-1.3804,-1.3953,-1.4075,-1.4075,-1.3966,-1.3851,-1.3844,-1.3614,-1.337,-1.3214,-1.3071,-1.2929,-1.2766,-1.2739,-1.2745,-1.2739,-1.261,0.0,-1.3183,-1.3226,-1.3288,-1.3667,-1.3752,-1.3625,-1.3222,-1.3044,-1.2801,-1.2215,-1.2252,-1.2004,-1.1459,-1.1956,-1.1866,-1.0982,-1.0907,-1.1043,-1.1179,0.0,0.0,0.0,0.0,0.0,0.0,0.0,0.0,0.0,0.0,0.0,0.0,0.0,0.0,0.0,0.0,0.0,0.0,0.0,0.0,0.0,-1.8644,-1.8037,-1.6766,-1.6439,-1.6485,-1.6876,-1.6984,-1.7053,-1.7021,-1.6963,-1.6982,-1.7039,-1.7039,-1.7413,-1.8252,-1.7551,-1.7455,-1.8322,-1.7367,-1.6497,-1.5704,-1.5528,-1.5087,-1.4299,-1.4476,-1.4455,-1.4414,-1.5066,-1.5499,-1.5901,-1.708,-1.7543,-1.7463,-1.8156,-1.7718,-1.6673,-1.6233,-1.5981,-1.5779,-1.5271,-1.5264,-1.5518,-1.5213,-1.5155,-1.5002,-1.4084,-1.3817,-1.3848,-1.4414,-1.402,-1.3576,-1.4192,-1.4041,-1.3661,-1.3804,-1.3953,-1.4102,-1.4211,-1.4204,-1.4116,-1.3885,-1.3521,-1.3303,-1.3307,-1.3148,-1.2999,-1.2963,-1.2983,-1.3017,-1.2915,-1.2861,-1.2893,-1.2896,-1.3727,-1.4076,-1.338,-1.4337,-1.4508,-1.325,-1.3,-1.2643,-1.1935,-1.1704,-1.1607,-1.1552,-1.1731,-1.1738,-1.1586,-1.1514,-1.1558,0.0,0.0,0.0,0.0,0.0,0.0,0.0,0.0,0.0,0.0,0.0,0.0,0.0,0.0,0.0,0.0,0.0,0.0,0.0,0.0,0.0,0.0,-1.9448,-1.8836,-1.7312,-1.6734,-1.6641,-1.6925,-1.7047,-1.7112,-1.7112,-1.7112,-1.7112,-1.7112,-1.7389,-1.7817,-1.8514,-1.7912,-1.7808,-1.8488,-1.763,-1.6849,-1.6321,-1.6321,-1.5969,-1.544,-1.5087,-1.4918,-1.4918,-1.4999,-1.5433,-1.6313,-1.7367,-1.7893,-1.8156,-1.8681,-1.8497,-1.7876,0.0,0.0,0.0,0.0,-1.6025,-1.6166,-1.6166,-1.6236,-1.6187,-1.5305,-1.5,-1.5005,-1.5348,-1.5014,-1.4563,-1.4719,-1.4525,-1.4259,-1.3985,-1.4055,-1.419,-1.4278,-1.4251,-1.4156,-1.3973,-1.3495,-1.3108,-1.3191,-1.301,0.0,-1.286,-1.3186,-1.3315,-1.3166,-1.3091,-1.3017,-1.2929,-1.3575,-1.3757,-1.3105,-1.3879,-1.4045,-1.3007,-1.279,0.0,0.0,0.0,-1.1596,-1.1828,-1.1746,0.0,0.0,0.0,-1.2196,-1.2182,-1.2377,0.0,0.0,-1.2326,-1.246,0.0,0.0,0.0,0.0,0.0,0.0,0.0,0.0,0.0,0.0,0.0,0.0,0.0,0.0,0.0,0.0,-2.0241,-1.96,-1.8506,-1.7655,-1.7107,-1.7096,-1.7112,-1.7112,-1.7112,-1.7112,-1.7104,-1.7255,-1.7793,-1.8372,-1.8706,-1.8468,0.0,0.0,0.0,-1.7463,-1.7288,-1.7288,-1.72,-1.7112,-1.6233,-1.5881,-1.5881,-1.544,-1.5954,-1.7096,-1.7709,-1.8147,-1.841,-1.8759,-1.909,-1.9342,-1.7885,-1.7181,-1.7033,-1.7474,-1.7496,-1.7288,-1.7288,0.0,0.0,-1.7042,-1.6861,-1.6782,-1.6743,-1.6585,-1.6336,-1.575,-1.5678,-1.5514,-1.4721,-1.4622,-1.4741,-1.4476,-1.4373,-1.435,-1.4423,-1.3779,-1.3245,-1.3381,-1.3274,-1.3181,-1.2989,-1.3261,-1.3559,-1.3444,-1.3281,-1.318,-1.3193,-1.3219,-1.3203,-1.3063,-1.3224,0.0,-1.303,-1.2697,-1.2442,-1.2471,-1.2012,-1.1873,-1.2177,-1.2045,-1.2196,-1.2634,-1.2766,-1.2888,-1.301,-1.3489,-1.3637,-1.3492,-1.2673,-1.2761,0.0,0.0,0.0,0.0,0.0,0.0,0.0,0.0,0.0,0.0,0.0,0.0,0.0,0.0,0.0,-2.1274,-2.0826,-2.0244,-1.9683,-1.9401,-1.8723,-1.7279,-1.7112,-1.7112,-1.7112,-1.7112,-1.7309,-1.794,-1.8147,-1.8763,-2.0089,-1.9941,-1.9952,-2.0429,-2.0086,-1.9388,-1.8252,-1.8252,-1.7814,-1.7112,-1.6936,0.0,-1.6849,-1.6761,-1.6841,-1.7192,-1.8418,-1.8514,-1.8077,-2.0424,-2.1108,-2.0752,-1.9351,-1.8549,-1.8174,-1.8279,-1.8305,-1.8252,-1.8252,-1.8252,-1.8191,-1.7836,-1.7689,-1.7847,-1.8888,-1.9106,0.0,-1.9663,-1.9287,-1.8479,-1.714,-1.7297,-1.7271,-1.5793,-1.5675,-1.6053,-1.6262,-1.5312,-1.4679,-1.5516,-1.6045,-1.5937,-1.4509,-1.3839,-1.3478,-1.3573,-1.3349,-1.3214,-1.3342,-1.4003,-1.4273,-1.3686,-1.4584,-1.5062,-1.47,-1.3916,-1.3483,-1.3476,-1.2762,-1.2386,-1.2585,-1.2773,-1.3009,-1.3116,-1.3288,-1.341,-1.3315,-1.333,-1.3594,-1.4122,-1.3826,-1.3705,0.0,0.0,0.0,0.0,0.0,0.0,0.0,0.0,0.0,0.0,0.0,-2.1694,-2.1813,0.0,-2.2031,-2.1829,-2.2259,-2.2385,-2.1673,-2.2212,-2.1608,-1.8846,-1.8506,-1.8331,-1.7814,-1.8243,-1.8679,-1.9161,-1.9409,-2.0216,-2.1631,-2.1153,-2.0933,-2.114,-2.0732,-2.0375,-2.0,-2.0192,-2.0269,-2.0326,-2.0,-1.97,-1.9525,-1.9264,-1.9438,-1.9883,-2.0838,-2.1272,-2.1358,-2.3009,-2.3268,-2.2665,-2.2126,-2.1251,-2.0202,-2.0374,-2.0673,-2.0945,-2.0802,-2.0686,-2.0539,-2.0292,-2.003,-2.0051,-2.0631,-2.0765,-2.0704,-2.0817,-2.0581,-2.0065,-1.8867,-1.8512,-1.8147,-1.6745,-1.6577,-1.6641,-1.6379,-1.5859,-1.5823,-1.6763,-1.7137,-1.7078,-1.6484,-1.62,-1.5698,-1.4791,-1.5059,-1.5362,-1.5363,-1.564,-1.5652,-1.5324,-1.5838,-1.6087,-1.5913,-1.5014,-1.4215,-1.3879,-1.33,-1.2869,-1.2628,-1.3159,-1.3403,-1.3403,-1.3695,-1.3851,-1.3851,-1.3633,-1.385,-1.4523,-1.4253,-1.4263,0.0,0.0,0.0,0.0,0.0,0.0,0.0,-2.0014,-2.0376,-2.1703,-2.2264,-2.246,-2.2334,-2.2987,-2.34,-2.2894,-2.4082,-2.48,-2.4115,-2.4959,-2.4605,-2.1608,-2.0885,-2.0173,-1.9228,-2.0,-2.0594,-2.0622,-2.1248,-2.2192,-2.3404,-2.2881,-2.2406,-2.1998,-2.1704,-2.1718,-2.1948,-2.2214,-2.2814,-2.3648,-2.306,-2.2546,-2.2202,-2.1684,-2.1867,-2.2654,-2.2987,-2.388,-2.4968,-2.5165,-2.5018,-2.4648,-2.5006,-2.4189,-2.2783,-2.2535,-2.276,-2.3204,-2.3065,-2.2869,-2.2794,-2.2727,-2.2594,-2.2397,-2.2334,-2.2422,-2.2383,-2.1851,-2.18,-2.1607,-2.0611,-1.9952,-1.9273,-1.8139,-1.7972,-1.7893,-1.7192,-1.7156,-1.7465,-1.837,-1.8569,-1.8536,-1.8415,-1.9034,-1.8744,-1.6422,-1.6825,-1.7332,-1.729,-1.6924,-1.6746,-1.6702,-1.6754,-1.6746,-1.6702,-1.6201,-1.5492,-1.4504,-1.4178,-1.3853,-1.3342,-1.3775,-1.4025,-1.4053,-1.4148,-1.4265,-1.4387,-1.4137,-1.4269,-1.4787,-1.454,-1.4547,-2.6069,-2.3845,-2.133,-1.9775,-1.9322,-1.9359,0.0,-2.033,-2.0891,-2.1228,-2.2282,-2.3202,-2.3161,-2.4571,-2.5767,-2.5916,-2.6302,-2.6503,-2.6418,-2.6503,-2.6503,-2.6078,-2.4298,-2.2638,-2.1385,-2.2383,-2.2876,-2.2321,-2.366,-2.4866,-2.5722,-2.5795,-2.543,-2.4615,-2.4767,-2.4531,-2.3727,-2.3761,-2.3846,-2.3984,-2.3503,-2.3256,-2.3256,-2.2751,-2.2578,-2.2654,-2.2718,-2.3885,-2.5747,-2.5077,-2.5383,-2.6376,-2.6458,-2.6443,-2.5921,-2.3589,-2.274,-2.2772,-2.2718,-2.2837,-2.313,-2.3754,-2.3921,-2.3926,-2.4446,-2.4951,-2.5322,-2.5422,-2.5179,-2.4664,-2.3564,-2.3314,-2.302,-2.1272,-2.1185,-2.1542,-2.1811,-2.1262,-2.0922,-2.1746,-2.2468,-2.2212,-1.9729,-2.104,-2.1333,-1.7888,-1.7324,-1.7205,-1.6959,-1.6836,-1.671,-1.6873,-1.6743,-1.6718,-1.6882,-1.809,-1.8198,-1.662,-1.6414,-1.6313,-1.6371,-1.5787,-1.5513,-1.5646,-1.4937,-1.4672,-1.4692,-1.4615,-1.4702,-1.4943,-1.4964,-1.5031,-2.4275,-2.1873,-1.9447,-1.8628,-1.8551,-1.8632,-1.8787,-1.9224,-2.0118,-2.1709,-2.2853,-2.3865,-2.5145,-2.5999,-2.6523,-2.6651,-2.7246,-2.7715,-2.7558,-2.8039,-2.8254,-2.7904,-2.707,-2.577,-2.3994,-2.4638,-2.5094,-2.5068,-2.5396,-2.6033,-2.6931,-2.6523,-2.5833,-2.4889,-2.5179,-2.5252,-2.5011,-2.541,-2.5665,-2.5771,-2.6004,-2.5738,-2.4982,-2.4726,-2.4811,-2.5153,-2.5653,-2.6226,-2.6778,-2.6494,-2.6519,-2.6705,-2.6749,-2.6796,-2.6613,-2.5507,-2.508,-2.5104,-2.4914,-2.4678,-2.4459,-2.4785,-2.4741,-2.4684,-2.4915,-2.5131,-2.5348,-2.5616,-2.5628,-2.5478,-2.4816,-2.4494,-2.3975,-2.2427,-2.2233,-2.233,-2.1974,-2.1984,-2.2385,-2.3232,-2.3648,-2.3614,-2.2651,-2.2887,-2.2535,-2.0461,-1.9608,-1.9158,-1.9068,-1.8754,-1.8813,-1.9414,-1.9857,-2.001,-1.9501,-1.9598,-1.9017,-1.744,-1.7033,-1.6822,-1.6625,-1.672,-1.6813,-1.6986,-1.6605,-1.6241,-1.578,-1.5413,-1.5269,-1.5228,-1.4939,-1.5019,-2.2732,-2.032,-1.8203,-1.7893,-1.7706,-1.7629,-1.7782,-1.8736,-2.0073,-2.204,-2.3832,-2.5537,-2.7065,-2.7532,-2.7675,-2.7596,-2.8177,-2.8568,-2.8271,-2.8814,-2.9033,-2.8582,-2.8442,-2.7771,-2.6267,-2.6555,-2.6796,-2.6861,-2.691,-2.7278,-2.8066,-2.7428,-2.6563,-2.5543,-2.6054,-2.6221,-2.6125,-2.6799,-2.7259,-2.7328,-2.7706,-2.7461,-2.6528,-2.6528,-2.6613,-2.6868,-2.7799,-2.8021,-2.7761,-2.7682,-2.7441,-2.7068,-2.7161,-2.7135,-2.705,-2.7122,-2.6953,-2.6566,-2.6425,-2.5983,-2.5542,-2.5542,-2.5421,-2.5264,-2.5264,-2.5264,-2.5301,-2.5494,-2.5687,-2.5784,-2.559,-2.5169,-2.4621,-2.3581,-2.3495,-2.3367,-2.2589,-2.2934,-2.3634,-2.4321,-2.4492,-2.4492,-2.4492,-2.4035,-2.3281,-2.2005,-2.1266,-2.0763,-2.0443,-2.0356,-2.053,-2.1215,-2.2341,-2.26,-2.1389,-2.0945,-2.0,-1.8304,-1.8,-1.7718,-1.7438,-1.767,-1.7951,-1.8092,-1.7919,-1.7576,-1.6957,-1.664,-1.6415,-1.6261,-1.5595,-1.5609,-2.2188,-2.0113,-1.831,-1.8053,-1.7378,-1.6865,-1.7222,-1.9561,-2.164,-2.187,-2.5495,-2.8671,-2.8699,-2.9481,-2.9995,-2.9681,-2.9295,-2.8949,-2.8641,-2.8599,-2.8554,-2.8245,-2.7937,-2.7801,-2.8123,-2.8057,-2.7687,-2.6764,-2.8126,-2.9173,-2.9453,-2.9398,-2.884,-2.7639,-2.8325,-2.8184,-2.7057,-2.7751,-2.8136,-2.8136,-2.7728,-2.7487,-2.7487,-2.7487,-2.722,-2.6868,-2.7799,-2.831,-2.8564,-2.827,-2.8055,-2.7865,-2.8087,-2.7897,-2.7558,-2.7981,-2.7292,-2.6103,-2.6103,-2.5946,-2.582,-2.582,-2.5808,-2.5808,-2.5808,-2.5808,-2.5808,-2.582,-2.582,-2.582,-2.582,-2.5733,-2.5673,-2.5408,-2.5541,-2.5661,-2.5323,-2.5263,-2.5348,-2.5348,-2.5348,-2.5092,-2.4235,-2.4356,-2.3729,-2.1679,-2.1484,-2.1281,-2.0027,-2.0694,-2.1302,-2.1302,-2.2945,-2.329,-2.1475,-2.2081,-2.1822,-1.9911,-1.9824,-1.9834,-1.9834,-1.924,-1.8987,-1.8995,-1.8442,-1.816,-1.8168,-1.8338,-1.842,-1.8341,-1.7402,-1.7106,-2.2316,-2.0517,-1.8707,-1.866,-1.8746,-1.9173,-2.0143,-2.1718,-2.3506,-2.5203,-2.7097,-2.8606,-2.9072,-2.9215,-2.9125,-2.8768,-2.8351,-2.7986,-2.7889,-2.7798,-2.7418,-2.652,-2.6683,-2.6751,-2.6452,-2.725,-2.7936,-2.8249,-2.8483,-2.8758,-2.9062,-2.9076,-2.8589,-2.7709,-2.8219,-2.8232,-2.7543,-2.7864,-2.7929,-2.7728,-2.722,-2.705,-2.705,-2.7389,-2.7389,-2.7304,-2.7897,-2.8288,-2.8283,-2.8274,-2.8203,-2.8114,-2.8177,-2.8065,-2.7981,-2.8136,-2.7714,-2.6965,-2.6698,-2.6336,-2.5983,-2.5652,-2.5566,-2.5566,-2.5566,-2.5687,-2.5832,-2.5832,-2.5953,-2.6049,-2.5868,-2.5832,-2.5759,-2.5494,-2.5506,-2.5542,-2.5458,-2.5433,-2.5433,-2.5433,-2.5433,-2.5323,-2.5232,-2.4285,-2.2877,-2.1028,-2.0598,-2.0608,-2.0791,-2.1649,-2.2514,-2.3117,-2.4385,-2.4477,-2.2563,-2.2877,-2.2356,-2.0416,-2.0337,-2.0393,-2.0526,-2.0296,-2.0253,-2.0492,-2.0261,-1.986,-1.9201,-1.9518,-1.9224,-1.8452,-1.8304,-1.787,-2.2147,-2.0676,-1.926,-1.9192,-1.997,-2.0925,-2.1684,-2.3279,-2.5068,-2.6574,-2.7551,-2.8189,-2.8537,-2.8224,-2.7819,-2.7681,-2.7234,-2.7037,-2.7066,-2.7001,-2.664,-2.5772,-2.5999,-2.6079,-2.5705,-2.6557,-2.742,-2.8234,-2.8071,-2.8097,-2.8395,-2.8517,-2.8214,-2.7301,-2.7998,-2.7958,-2.7142,-2.7579,-2.7698,-2.757,-2.7422,-2.722,-2.705,-2.7558,-2.7643,-2.7487,-2.7812,-2.7981,-2.7981,-2.7981,-2.7981,-2.7994,-2.827,-2.8243,-2.8248,-2.827,-2.8074,-2.7643,-2.705,-2.6528,-2.6018,-2.5519,-2.5494,-2.5554,-2.5629,-2.6007,-2.6336,-2.6054,-2.6287,-2.6333,-2.5904,-2.5832,-2.5759,-2.5494,-2.5506,-2.5578,-2.5578,-2.5506,-2.5494,-2.5687,-2.5639,-2.5663,-2.5928,-2.4379,-2.2871,-2.2309,-2.1324,-2.0803,-2.1336,-2.247,-2.3462,-2.4064,-2.5157,-2.5212,-2.3643,-2.3412,-2.2752,-2.1163,-2.0715,-2.0601,-2.0733,-2.08,-2.0904,-2.1045,-2.113,-2.089,-2.0232,-2.0629,-2.0339,-1.9492,-1.9417,-1.8953,-2.1851,-2.0763,-2.0001,-1.9809,-2.0852,-2.2019,-2.2126,-2.431,-2.6306,-2.6082,-2.688,-2.7572,-2.7235,-2.6634,-2.6232,-2.6457,-2.6243,-2.6052,-2.6333,-2.6386,-2.6293,-2.605,-2.6023,-2.6037,-2.605,-2.6037,-2.6199,-2.68,-2.7094,-2.7375,-2.7669,-2.7949,-2.7662,-2.6669,-2.7622,-2.7529,-2.629,-2.7264,-2.7709,-2.7696,-2.8003,-2.7981,-2.7571,-2.7981,-2.7981,-2.7571,-2.7487,-2.7487,-2.7487,-2.7487,-2.7487,-2.7598,-2.83,-2.8404,-2.8261,-2.847,-2.8404,-2.8079,-2.7148,-2.6541,-2.6103,-2.5604,-2.5615,-2.5858,-2.6007,-2.6661,-2.7206,-2.6698,-2.6735,-2.6796,-2.6102,-2.5844,-2.5771,-2.5518,-2.5651,-2.5832,-2.5832,-2.5639,-2.5627,-2.6122,-2.6025,-2.5953,-2.6106,-2.4651,-2.384,-2.4969,-2.3437,-2.2046,-2.1842,-2.3097,-2.4172,-2.4172,-2.5169,-2.5497,-2.4626,-2.3887,-2.3051,-2.2069,-2.1103,-2.0573,-2.0573,-2.0752,-2.0856,-2.0856,-2.1064,-2.1178,-2.1187,-2.1584,-2.1678,-2.1489,-2.0738,-2.0341,-2.4418,-2.3004,-2.1576,-2.1327,-2.2439,-2.372,-2.4506,-2.6089,-2.7221,-2.7214,-2.7148,-2.6724,-2.5732,-2.5497,-2.554,-2.5478,-2.5742,-2.5985,-2.6052,-2.644,-2.644,-2.5705,-2.5825,-2.6039,-2.6266,-2.6079,-2.6293,-2.7094,-2.7014,-2.7068,-2.7362,-2.7442,-2.7321,-2.6786,-2.7295,-2.7375,-2.6985,-2.7736,-2.7923,-2.7696,-2.8003,-2.815,-2.8065,-2.8136,-2.815,-2.7981,-2.7643,-2.7487,-2.7487,-2.7135,-2.722,-2.7487,-2.7735,-2.7963,-2.8234,-2.8315,-2.8364,-2.8398,-2.78,-2.7217,-2.6528,-2.6103,-2.586,-2.5858,-2.6007,-2.6537,-2.7096,-2.7297,-2.7134,-2.6958,-2.6918,-2.6384,-2.5808,-2.5747,-2.5784,-2.5832,-2.5832,-2.5928,-2.6061,-2.6194,-2.6339,-2.6181,-2.5527,-2.524,-2.4935,-2.4445,-2.4184,-2.4064,-2.3997,-2.4224,-2.4685,-2.5291,-2.579,-2.5683,-2.4814,-2.4217,-2.3539,-2.2536,-2.1549,-2.1007,-2.1007,-2.1055,-2.1083,-2.1083,-2.114,-2.1244,-2.1395,-2.1499,-2.1603,-2.1716,-2.1478,-2.1019,-2.4849,-2.4057,-2.3261,-2.2621,-2.3943,-2.5455,-2.5828,-2.6574,-2.7114,-2.6593,-2.5852,-2.497,-2.3977,-2.4232,-2.4634,-2.4723,-2.5411,-2.6077,-2.6132,-2.6533,-2.6587,-2.5972,-2.6159,-2.64,-2.656,-2.6547,-2.6734,-2.7228,-2.7108,-2.7148,-2.7442,-2.7455,-2.7321,-2.7028,-2.7175,-2.7268,-2.7268,-2.7722,-2.7869,-2.7696,-2.8003,-2.8221,-2.8221,-2.8221,-2.8221,-2.8136,-2.7474,-2.722,-2.7148,-2.685,-2.6974,-2.7414,-2.7714,-2.803,-2.835,-2.835,-2.8457,-2.8518,-2.8261,-2.7891,-2.7423,-2.6721,-2.6401,-2.6412,-2.6673,-2.6934,-2.7297,-2.7951,-2.7711,-2.7247,-2.7256,-2.6668,-2.6001,-2.6001,-2.6001,-2.6037,-2.6158,-2.6206,-2.6254,-2.6375,-2.6629,-2.663,-2.6089,-2.5741,-2.556,-2.5377,-2.5127,-2.519,-2.5663,-2.5343,-2.5259,-2.5901,-2.6242,-2.6145,-2.5612,-2.506,-2.4361,-2.3352,-2.235,-2.1621,-2.1261,-2.1168,-2.1168,-2.1168,-2.1253,-2.1357,-2.1471,-2.165,-2.1763,-2.1792,-2.1792,-2.145,-2.4914,-2.4807,-2.5083,-2.3915,-2.5345,-2.6932,-2.6196,-2.6327,-2.6313,-2.4988,-2.3958,-2.3113,-2.2432,-2.3073,-2.3821,-2.4155,-2.5157,-2.6012,-2.6346,-2.6667,-2.6774,-2.648,-2.6707,-2.6881,-2.6881,-2.7108,-2.7268,-2.7268,-2.7268,-2.7362,-2.7575,-2.7575,-2.7482,-2.7268,-2.7268,-2.7308,-2.7388,-2.7629,-2.7762,-2.7762,-2.8016,-2.8221,-2.8221,-2.8221,-2.8221,-2.8136,-2.7207,-2.6796,-2.6808,-2.6462,-2.666,-2.7142,-2.7779,-2.8199,-2.8572,-2.8532,-2.8572,-2.8724,-2.8724,-2.8651,-2.8439,-2.7485,-2.7147,-2.7247,-2.7548,-2.7735,-2.79,-2.8686,-2.8305,-2.7649,-2.7496,-2.6827,-2.6278,-2.6278,-2.6278,-2.6339,-2.6592,-2.6496,-2.646,-2.6737,-2.6954,-2.7087,-2.7087,-2.6323,-2.6027,-2.6845,-2.6077,-2.5736,-2.6809,-2.6387,-2.6025,-2.6254,-2.652,-2.6677,-2.6641,-2.5966,-2.5195,-2.4178,-2.3199,-2.2205,-2.1299,-2.1234,-2.1253,-2.1253,-2.1423,-2.1527,-2.1556,-2.1886,-2.199,-2.1867,-2.1849,-2.1745,-2.7865,-2.7495,-2.7142,-2.5694,-2.6077,-2.6706,-2.5779,-2.579,-2.5491,-2.3914,-2.3394,-2.2993,-2.1897,-2.2632,-2.3581,-2.4115,-2.4983,-2.5772,-2.6306,-2.6854,-2.7081,-2.6787,-2.7014,-2.7188,-2.7188,-2.7241,-2.7268,-2.7268,-2.7268,-2.7175,-2.6987,-2.6974,-2.7068,-2.7255,-2.7268,-2.7495,-2.8073,-2.8127,-2.8154,-2.8154,-2.8207,-2.8221,-2.8221,-2.8221,-2.8221,-2.8136,-2.7207,-2.6796,-2.6711,-2.5909,-2.5983,-2.6599,-2.6485,-2.7263,-2.8317,-2.8082,-2.8564,-2.9325,-2.9325,-2.9437,-2.9508,-2.8491,-2.8064,-2.794,-2.8238,-2.8403,-2.8699,-2.9194,-2.8637,-2.7953,-2.8245,-2.7389,-2.6568,-2.6568,-2.6568,-2.658,-2.6629,-2.6942,-2.7292,-2.7558,-2.7473,-2.7353,-2.7353,-2.6989,-2.6845,-2.6936,-2.663,-2.6546,-2.69,-2.6713,-2.652,-2.6556,-2.6798,-2.687,-2.6665,-2.5966,-2.5195,-2.4178,-2.3355,-2.2433,-2.1507,-2.1584,-2.1688,-2.1688,-2.1716,-2.182,-2.1981,-2.1886,-2.2,-2.2283,-2.2113,-2.2113,-2.8869,-2.8703,-2.8551,-2.7258,-2.6972,-2.6792,-2.578,-2.5179,-2.4276,-2.2627,-2.2616,-2.2539,-2.151,-2.2418,-2.3367,-2.3487,-2.4249,-2.509,-2.5825,-2.6172,-2.6466,-2.6787,-2.7081,-2.7321,-2.7468,-2.7629,-2.7805,-2.7805,-2.7575,-2.7362,-2.7068,-2.6907,-2.6894,-2.7028,-2.7188,-2.7468,-2.7909,-2.8154,-2.8221,-2.8221,-2.8221,-2.8221,-2.8221,-2.8221,-2.8065,-2.7812,-2.7135,-2.6702,-2.6596,-2.6043,-2.6263,-2.6934,-2.6797,-2.7422,-2.8517,-2.823,-2.8662,-2.9459,-2.9312,-2.9539,-2.9847,-2.9141,-2.8749,-2.8499,-2.8778,-2.8749,-2.8784,-2.9531,-2.906,-2.8474,-2.8488,-2.7833,-2.7104,-2.6846,-2.7123,-2.7492,-2.7764,-2.8086,-2.8359,-2.8347,-2.8051,-2.7732,-2.7597,-2.7293,-2.7075,-2.7208,-2.7015,-2.6942,-2.7196,-2.7123,-2.6991,-2.6858,-2.6954,-2.6979,-2.6858,-2.6502,-2.5924,-2.4921,-2.4138,-2.324,-2.2305,-2.1963,-2.1792,-2.1792,-2.1896,-2.199,-2.2094,-2.2094,-2.2208,-2.2387,-2.2179,-2.2141,-2.9244,-2.934,-2.942,-2.8325,-2.7498,-2.6696,-2.5617,-2.448,-2.3268,-2.1831,-2.1991,-2.2178,-2.1349,-2.2258,-2.3073,-2.2886,-2.3567,-2.4436,-2.5384,-2.5625,-2.5985,-2.6734,-2.7134,-2.7428,-2.7589,-2.7869,-2.81,-2.8047,-2.7682,-2.7415,-2.7188,-2.6894,-2.676,-2.6814,-2.7108,-2.7402,-2.7696,-2.7989,-2.8221,-2.8221,-2.8221,-2.8221,-2.8221,-2.8221,-2.7981,-2.7656,-2.7114,-2.6841,-2.6636,-2.6285,-2.6552,-2.7152,-2.7029,-2.7624,-2.8436,-2.8037,-2.8504,-2.926,-2.9057,-2.9296,-2.9694,-2.9646,-2.93,-2.9073,-2.9296,-2.9047,-2.8886,-2.969,-2.9383,-2.8819,-2.8681,-2.8191,-2.7649,-2.7208,-2.7677,-2.8344,-2.8866,-2.9199,-2.9339,-2.9187,-2.8783,-2.8344,-2.795,-2.7463,-2.719,-2.7304,-2.7208,-2.7184,-2.7389,-2.7425,-2.7365,-2.7208,-2.7148,-2.7087,-2.7039,-2.7027,-2.6573,-2.5651,-2.4921,-2.3967,-2.3031,-2.2544,-2.2308,-2.2308,-2.2654,-2.2732,-2.2538,-2.2654,-2.2526,-2.2321,-2.216,-2.2113,-2.9635,-2.9604,-2.9377,-2.8068,-2.7025,-2.5998,-2.4882,-2.3752,-2.2806,-2.1987,-2.2136,-2.2231,-2.1695,-2.2058,-2.2579,-2.2819,-2.3394,-2.4209,-2.5358,-2.5972,-2.644,-2.6787,-2.7321,-2.7562,-2.7321,-2.7562,-2.7629,-2.7362,-2.7068,-2.6894,-2.6867,-2.6587,-2.6547,-2.6814,-2.7108,-2.7402,-2.7696,-2.7989,-2.8221,-2.8221,-2.8221,-2.8221,-2.8221,-2.8221,-2.815,-2.8079,-2.7478,-2.7177,-2.7056,-2.646,-2.6387,-2.6592,-2.6097,-2.6692,-2.7693,-2.7022,-2.7498,-2.8578,-2.8728,-2.901,-2.9362,-2.9707,-2.9784,-2.9784,-2.9824,-2.9784,-2.9757,-2.99,-2.9528,-2.9143,-2.9169,-2.8462,-2.7727,-2.7649,-2.795,-2.8394,-2.9119,-2.9479,-2.9746,-2.9962,-2.9606,-2.9077,-2.8601,-2.8074,-2.748,-2.7063,-2.7244,-2.7389,-2.7413,-2.7425,-2.7498,-2.7715,-2.7534,-2.7292,-2.7051,-2.7027,-2.6573,-2.5651,-2.4983,-2.4198,-2.3253,-2.3571,-2.3803,-2.3803,-2.4699,-2.4709,-2.3833,-2.3555,-2.2983,-2.2123,-2.2094,-2.2189,-2.9841,-2.9995,-2.977,-2.9075,-2.7699,-2.6336,-2.5507,-2.3852,-2.2498,-2.1973,-2.2149,-2.2245,-2.1722,-2.1884,-2.2191,-2.2311,-2.2392,-2.2913,-2.4275,-2.4342,-2.477,-2.6146,-2.6346,-2.6613,-2.7201,-2.7375,-2.7308,-2.7028,-2.6894,-2.6747,-2.6573,-2.6453,-2.66,-2.7068,-2.7201,-2.7495,-2.7963,-2.8167,-2.8221,-2.8221,-2.8221,-2.8221,-2.8221,-2.8221,-2.8065,-2.7741,-2.7166,-2.6879,-2.671,-2.6372,-2.6387,-2.6629,-2.658,-2.7006,-2.769,-2.738,-2.7825,-2.8436,-2.8335,-2.868,-2.9246,-2.9165,-2.9499,-2.9913,-2.9913,-2.9913,-2.9913,-2.9913,-2.9734,-2.9554,-2.9272,-2.8642,-2.8332,-2.8756,-2.8975,-2.9233,-3.007,-3.0451,-3.0554,-3.0488,-3.0106,-2.9661,-2.9039,-2.8251,-2.7698,-2.7689,-2.7536,-2.7425,-2.7425,-2.7558,-2.763,-2.7582,-2.7341,-2.7208,-2.7256,-2.7123,-2.6917,-2.6695,-2.5321,-2.4375,-2.4125,-2.3875,-2.3759,-2.3759,-2.4861,-2.5032,-2.3961,-2.387,-2.3344,-2.2274,-2.2274,-2.2312,-2.9222,-2.9667,-2.9885,-2.9414,-2.7827,-2.6262,-2.5667,-2.3852,-2.2151,-2.183,-2.2031,-2.2138,-2.1708,-2.179,-2.1991,-2.1991,-2.1964,-2.2432,-2.3594,-2.3474,-2.3834,-2.5384,-2.5531,-2.5865,-2.6787,-2.7108,-2.7108,-2.672,-2.6774,-2.6694,-2.64,-2.6386,-2.6573,-2.6987,-2.7094,-2.7335,-2.7749,-2.7923,-2.8016,-2.8016,-2.8181,-2.8221,-2.8221,-2.8221,-2.8034,-2.7787,-2.7166,-2.7076,-2.7355,-2.6934,-2.6856,-2.7155,-2.7774,-2.772,-2.7435,-2.7798,-2.7963,-2.8076,-2.7889,-2.8233,-2.8783,-2.8858,-2.9191,-2.9734,-2.9824,-2.9913,-2.9913,-2.9913,-2.9913,-2.9824,-2.9272,-2.8977,-2.9002,-2.9469,-2.9664,-2.9978,-3.065,-3.0955,-3.1062,-3.0942,-3.0571,-3.0096,-2.9599,-2.8821,-2.8289,-2.8294,-2.7873,-2.7658,-2.7828,-2.7844,-2.7799,-2.7775,-2.7461,-2.7304,-2.7413,-2.7184,-2.7135,-2.7401,-2.5819,-2.5042,-2.5367,-2.479,-2.4523,-2.4586,-2.5742,-2.5733,-2.4448,-2.4448,-2.3726,-2.2302,-2.2359,-2.2359,-2.7654,-2.8443,-2.9232,-2.8649,-2.6948,-2.5352,-2.4991,-2.3391,-2.1859,-2.1529,-2.1727,-2.1897,-2.1668,-2.179,-2.1991,-2.1991,-2.2472,-2.306,-2.3688,-2.4008,-2.4302,-2.4609,-2.5157,-2.5638,-2.5945,-2.676,-2.7028,-2.644,-2.6653,-2.6694,-2.64,-2.6386,-2.6386,-2.64,-2.668,-2.6827,-2.6841,-2.7415,-2.7709,-2.7709,-2.8003,-2.8221,-2.8221,-2.8221,-2.831,-2.8518,-2.7633,-2.8134,-2.9526,-2.857,-2.8147,-2.8321,-2.9772,-2.8842,-2.6783,-2.7987,-2.7801,-2.7081,-2.7251,-2.7504,-2.792,-2.8912,-2.9182,-2.9272,-2.9734,-2.9913,-2.9913,-2.9913,-2.9913,-2.9824,-2.9272,-2.9391,-2.9599,-2.9599,-2.9821,-3.0214,-3.0703,-3.0795,-3.0889,-3.1169,-3.0996,-3.0597,-3.0122,-2.9795,-2.9417,-2.8973,-2.8436,-2.8267,-2.8904,-2.8262,-2.8017,-2.856,-2.8125,-2.7703,-2.7449,-2.7184,-2.7135,-2.7401,-2.6736,-2.6428,-2.6679,-2.669,-2.6804,-2.7056,-2.7771,-2.7282,-2.5518,-2.5518,-2.4335,-2.2094,-2.2302,-2.2283,-2.5894,-2.6374,-2.6912,-2.6076,-2.5355,-2.4792,-2.4428,-2.3297,-2.2218,-2.2084,-2.2218,-2.2191,-2.1897,-2.2084,-2.2352,-2.2552,-2.2807,-2.3006,-2.3407,-2.3728,-2.4088,-2.4583,-2.5504,-2.6146,-2.6239,-2.6507,-2.6587,-2.64,-2.648,-2.6493,-2.6386,-2.6386,-2.6797,-2.7558,-2.7654,-2.7792,-2.7919,-2.9218,-2.917,-2.7709,-2.891,-2.9062,-2.8221,-2.8221,-2.8274,-2.8283,-2.827,-2.8565,-2.9111,-2.9521,-2.9685,-2.9813,-3.0664,-3.0533,-2.9726,-2.9201,-2.8757,-2.8359,-2.7382,-2.7394,-2.7727,-2.8101,-2.8642,-2.9272,-2.9362,-2.9644,-2.9913,-2.9913,-2.9913,-2.9967,-2.9986,-2.9946,-2.983,-3.0119,-3.0093,-3.0066,-3.0448,-3.0501,-3.0581,-3.0875,-3.0849,-3.0795,-3.061,-3.0241,-2.9899,-2.9728,-2.8989,-2.8508,-2.8681,-2.8152,-2.7944,-2.8294,-2.8017,-2.7848,-2.7944,-2.7715,-2.7679,-2.7944,-2.6923,-2.6522,-2.6785,-2.6797,-2.6831,-2.6912,-2.7961,-2.7468,-2.5518,-2.5518,-2.4407,-2.2302,-2.2359,-2.2208,-2.4651,-2.5031,-2.5413,-2.4735,-2.4354,-2.4029,-2.3845,-2.2898,-2.2031,-2.1804,-2.1844,-2.1871,-2.1683,-2.1897,-2.2191,-2.2485,-2.2712,-2.2926,-2.3126,-2.3514,-2.4035,-2.4716,-2.5651,-2.6226,-2.6226,-2.6319,-2.6386,-2.6386,-2.6386,-2.6386,-2.6386,-2.6702,-2.7337,-2.8389,-2.8086,-2.8171,-2.8688,-2.9925,-2.9818,-2.8523,-2.9438,-2.9635,-2.9146,-2.881,-2.9017,-2.9577,-2.9522,-2.9944,0.0,-3.1038,-3.1239,-3.1282,-3.2324,-3.209,-3.1119,-3.0779,-3.0315,-2.9784,-2.8155,-2.7923,-2.8191,-2.783,-2.8372,-2.9182,-2.9182,-2.9554,-2.9913,-2.9913,-2.9913,-2.9967,-3.014,-3.014,-3.0127,-3.0314,-3.0301,-3.0274,-3.0341,-3.0356,-3.0398,-3.0755,-3.0703,-3.077,-3.0955,-3.0677,-3.0478,-3.0478,-2.9474,-2.8904,-2.9406,-2.8595,-2.8209,-2.8864,-2.8491,-2.8347,-2.8616,-2.8111,-2.792,-2.8186,-2.7475,-2.7227,-2.7508,-2.7415,-2.7403,-2.7508,-2.8153,-2.7649,-2.61,-2.5324,-2.414,-2.2623,-2.2387,-2.2104,0.0,-2.4189,-2.453,-2.4297,-2.3666,-2.306,-2.3074,-2.2322,0.0,-2.0855,-2.0975,-2.1176,-2.1176,-2.1403,-2.1762,-2.2031,-2.2539,-2.2968,-2.2968,-2.3434,-2.4168,-2.509,-2.5665,-2.6077,-2.609,-2.6239,-2.6386,-2.6386,-2.6386,-2.6386,-2.6386,-2.7083,-2.7947,-2.8886,-2.8104,-2.8104,-2.8964,-2.9768,-3.0027,-2.9866,-2.9767,-3.015,-3.0734,-2.9983,-3.041,-3.1739,-3.1092,-3.1893,-3.3477,-3.2931,-3.2639,-3.2825,-3.4377,-3.3466,-3.1393,-3.2498,-3.2252,-3.1156,-2.9389,-2.8947,-2.9092,-2.8191,-2.8474,-2.9298,-2.9478,-2.9747,-3.0003,-2.9913,-3.0003,-3.0003,-2.994,-3.0154,-3.0368,-3.0381,-3.0595,-3.0715,-3.0448,-3.0241,-3.0241,-3.0637,-3.0676,-3.0674,-3.1075,-3.1249,-3.1263,-3.1263,-2.9963,-2.9448,-3.0717,-2.9335,-2.8681,-2.9944,-2.9412,-2.9078,-2.9351,-2.8445,-2.7968,-2.8222,-2.8234,-2.8355,-2.8644,-2.8379,-2.8367,-2.8644,-2.8188,-2.7687,-2.6971,-2.4924,-2.3582,-2.2954,-2.2476,-2.2105,-2.3208,0.0,-2.2167,-2.1204,-2.1113,-2.1357,0.0,-2.1733,-2.1777,-2.148,-2.1577,-2.1777,-2.1777,-2.183,-2.2124,-2.2886,-2.3126,-2.322,-2.322,-2.3915,-2.493,-2.6253,-2.6333,-2.6373,-2.66,-2.648,-2.6386,-2.6386,-2.6386,-2.6386,-2.6386,-2.6544,-2.7319,-2.8808,-2.873,-2.8964,-2.9819,-3.1511,-3.1376,-2.9396,-3.1153,-3.1632,-3.0803,-3.0567,-3.1022,-3.198,-3.2173,-3.2486,-3.3007,-3.4034,-3.4236,-3.4117,-3.4719,-3.4761,-3.4355,-3.3282,-3.2879,-3.2705,-3.1203,-2.9998,-2.9182,-2.9349,-2.9673,-3.0492,-3.2294,-3.2212,-3.1315,-3.0182,-3.0705,-3.1282,-3.0465,-3.0314,-3.0421,-3.0635,-3.0742,-3.0768,-3.0702,-3.065,-3.0584,-3.0623,-3.0808,-3.1021,-3.0962,-3.1286,-3.157,-3.157,-3.0884,-3.0587,-3.089,-2.996,-2.9482,-3.0077,-2.9412,-2.909,-2.9351,-2.8786,-2.8463,-2.8524,-2.8524,-2.8644,-2.891,-2.8669,-2.8644,-2.8922,-2.7101,-2.6034,-2.5906,-2.3756,-2.2738,-2.2529,-2.3268,-2.2994,-2.297,-2.2209,-2.1449,-2.0463,-2.0535,-2.0909,-2.1069,-2.1349,-2.1496,-2.1203,-2.1162,-2.1309,-2.171,-2.1563,-2.1764,-2.2926,-2.2993,-2.3153,-2.3834,-2.4796,-2.5732,-2.6533,-2.66,-2.66,-2.6613,-2.648,-2.6386,-2.6386,-2.6386,-2.6386,-2.6386,-2.6623,-2.7319,-2.8808,-2.9119,-2.9817,-3.123,-3.2077,-3.2031,-3.0976,-3.1833,-3.2063,-3.1833,-3.1738,-3.2221,-3.3198,-3.3553,-3.3878,-3.4065,-3.4956,-3.5176,-3.5017,-3.5208,-3.5399,-3.5439,-3.4281,-3.4114,-3.4216,-3.2632,-3.1175,-3.0231,-3.0499,-3.0883,-3.1596,-3.2948,-3.3546,-3.3591,-3.2448,-3.2482,-3.2852,-3.2241,-3.1769,-3.1339,-3.1367,-3.1148,-3.0915,-3.0648,-3.0531,-3.0447,-3.0486,-3.0402,-3.0437,-3.0496,-3.0808,-3.1038,-3.1086,-3.0496,-3.0147,-3.0689,-3.005,-2.9777,-3.0375,-2.9791,-2.9507,-2.9825,-2.9188,-2.8753,-2.8632,-2.8812,-2.9065,-2.9212,-2.9078,-2.8873,-2.8837,-2.7639,-2.6655,-2.5679,-2.4392,-2.362,-2.3326,-2.3608,-2.3739,-2.2889,-2.2362,-2.177,-2.0908,-2.0895,-2.1109,-2.1109,-2.1109,-2.1042,-2.0788,-2.0548,-2.0615,-2.1467,-2.1212,-2.1256,-2.2713,-2.2766,-2.3193,-2.4636,-2.5651,-2.6306,-2.644,-2.66,-2.6627,-2.6466,-2.6373,-2.6346,-2.6386,-2.6386,-2.6386,-2.6307,-2.6847,-2.7619,-2.8808,-2.9353,-3.0515,-3.2544,-3.2154,-3.2219,-3.2823,-3.2056,-3.2177,-3.2968,-3.2814,-3.3411,-3.4609,-3.4827,-3.516,-3.5494,-3.5558,-3.5542,-3.5494,-3.5494,-3.5526,-3.5526,-3.5176,-3.5272,-3.5352,-3.3633,-3.2398,-3.1642,-3.1642,-3.2137,-3.2783,-3.3096,-3.4517,-3.5926,-3.5393,-3.4818,-3.4395,-3.4177,-3.3338,-3.2513,-3.2284,-3.1711,-3.1169,-3.0728,-3.0514,-3.0363,-3.0466,-3.0013,-2.9663,-2.9937,-3.0032,-3.0229,-3.0425,-2.9746,-2.9525,-3.0463,-2.9924,-2.9819,-3.0821,-3.0139,-2.9905,-3.0425,-2.9602,-2.8922,-2.8693,-2.9102,-2.9391,-2.9437,-2.962,-2.9428,-2.8777,-2.8934,-2.7991,-2.6113,-2.5788,-2.5191,-2.4591,-2.4258,-2.4565,-2.268,-2.2869,-2.2762,-2.111,-2.0895,-2.1109,-2.1109,-2.1109,-2.1096,-2.1056,-2.1002,-2.1096,-2.1547,-2.1547,-2.1802,-2.2767,-2.346,-2.4356,-2.5585,-2.5692,-2.5919,-2.6667,-2.636,-2.6266,-2.6707,-2.6306,-2.6132,-2.6373,-2.6386,-2.6228,-2.5911,-2.6925,-2.779,-2.8339,-2.9431,-3.0841,-3.2544,-3.2154,-3.1794,-3.1528,-3.2015,-3.249,-3.2952,-3.2982,-3.3702,-3.51,-3.4742,-3.4779,-3.5145,-3.5446,-3.5399,-3.5113,-3.5113,-3.5303,-3.5526,-3.5176,-3.5272,-3.5383,-3.3819,-3.3204,-3.3073,-3.3073,-3.3383,-3.4157,-3.5969,-3.6619,-3.6741,-3.7338,-3.67,-3.5608,-3.4637,-3.3583,-3.2851,-3.3065,-3.2332,-3.1637,-3.1797,-3.1649,-3.1254,-3.0696,-3.0664,-3.044,-2.9663,-2.9841,-3.0229,-3.0425,-3.0184,-3.0172,-3.0742,-3.0382,-3.0319,-3.1133,-3.0146,-2.9725,-3.0438,-2.9602,-2.8994,-2.8958,-2.9261,-2.9469,-2.9735,-3.066,-3.0587,-2.9638,-2.9003,-2.8358,-2.7566,-2.6431,-2.5732,-2.5666,-2.6263,-2.6241,-2.2075,-2.2143,-2.1964,-2.1105,-2.1483,-2.1977,-2.1657,-2.1456,-2.1349,-2.1349,-2.1096,-2.1056,-2.167,-2.1722,-2.2016,-2.3153,-2.4102,-2.4863,-2.5411,-2.5638,-2.5838,-2.6079,-2.6026,-2.5999,-2.6106,-2.5879,-2.5761,-2.5806,-2.5832,-2.5662,-2.5435,-2.6373,-2.7384,-2.8246,-2.926,-3.0515,-3.1943,-3.1711,-3.1729,-3.1919,-3.2253,-3.2491,-3.2682,-3.3254,-3.4055,-3.4847,-3.4801,-3.4986,-3.5335,-3.551,-3.5478,-3.5335,-3.5335,-3.543,-3.5558,-3.5383,-3.543,-3.5486,-3.4859,-3.4597,-3.4597,-3.4597,-3.4829,-3.5347,-3.6584,-3.6836,-3.6788,-3.7321,-3.7063,-3.6402,-3.5498,-3.4457,-3.3532,-3.3143,-3.2346,-3.1664,-3.1637,-3.146,-3.1038,-3.0402,-3.0229,-2.9854,-2.91,-2.9196,-2.9428,-2.9848,-2.9675,-2.97,-3.0243,-3.0265,-3.0198,-3.0463,-3.0392,-3.0273,-3.0301,-2.991,-2.9555,-2.9408,-2.9384,-2.9504,-2.9574,-3.0584,-3.0783,-2.9784,-2.9701,-2.9252,-2.8317,-2.741,-2.6958,-2.6958,-2.7328,-2.7634,-2.1374,-2.1257,-2.1109,-2.1109,-2.183,-2.2499,-2.1991,-2.1775,-2.1641,-2.1708,-2.136,-2.1162,-2.1777,-2.1817,-2.2218,-2.3647,-2.4556,-2.5104,-2.517,-2.5625,-2.5852,-2.5545,-2.5651,-2.5692,-2.5531,-2.5451,-2.5405,-2.5452,-2.54,-2.5361,-2.5502,-2.6373,-2.7384,-2.8559,-2.9493,-3.0438,-3.1395,-3.1395,-3.1676,-3.2353,-3.2299,-3.2332,-3.2444,-3.3349,-3.4032,-3.4525,-3.4795,-3.516,-3.5573,-3.5573,-3.5573,-3.5573,-3.5573,-3.5573,-3.5573,-3.5573,-3.5573,-3.5573,-3.5573,-3.5573,-3.5573,-3.5573,-3.5764,-3.605,-3.6384,-3.6368,-3.632,-3.6765,-3.6708,-3.641,-3.605,-3.5116,-3.4064,-3.3225,-3.236,-3.173,-3.157,-3.1379,-3.102,-3.0414,-2.9942,-2.94,-2.8801,-2.8717,-2.8898,-2.9417,-2.9272,-2.9296,-2.9827,-2.9958,-2.9984,-2.9983,-3.0351,-3.0426,-3.0009,-2.9935,-2.9812,-2.9602,-2.9648,-2.9537,-2.9475,-3.0496,-3.0758,-3.0078,-3.0615,-3.0303,-2.9288,-2.8731,-2.8544,-2.8403,-2.8345,-2.8743,-2.0583,-2.0944,-2.1109,-2.1109,-2.1376,-2.1695,-2.1655,-2.1628,-2.1695,-2.1897,-2.1924,-2.183,-2.1681,-2.2004,-2.2752,-2.3968,-2.4676,-2.517,-2.5451,-2.5758,-2.5852,-2.5545,-2.5291,-2.5237,-2.5491,-2.5264,-2.5344,-2.5919,-2.5556,-2.5753,-2.6819,-2.7698,-2.8559,-2.9416,-3.0593,-3.1302,-3.1395,-3.1395,-3.1395,-3.1504,-3.1792,-3.211,-3.2428,-3.2841,-3.3572,-3.4509,-3.4525,-3.4938,-3.5573,-3.5573,-3.5573,-3.5573,-3.5573,-3.5573,-3.5573,-3.5573,-3.5573,-3.5573,-3.5573,-3.5573,-3.5573,-3.5573,-3.5589,-3.5685,-3.6034,-3.5685,-3.5287,-3.5987,-3.5637,-3.5217,-3.5665,-3.5014,-3.4123,-3.3407,-3.2664,-3.2144,-3.2398,-3.2251,-3.1772,-3.1074,-3.0497,-2.9834,-2.914,-2.8982,-2.9163,-2.9682,-2.955,-2.9574,-3.0117,-2.9513,-2.942,-3.0404,-2.9726,-2.9237,-2.9479,-2.9188,-2.9031,-2.9019,-2.9702,-3.0008,-2.976,-3.0773,-3.1247,-3.0967,-3.1401,-3.1378,-3.0849,-3.0501,-3.0313,-3.0052,-2.9787,-2.9811,-2.0027,-2.0347,-2.0615,-2.0788,-2.0943,-2.112,-2.1737,-2.1766,-2.1793,-2.2165,-2.2058,-2.1951,-2.2045,-2.2418,-2.2966,-2.3794,-2.4275,-2.4636,-2.493,-2.5224,-2.5304,-2.4997,-2.5037,-2.505,-2.497,-2.4863,-2.4745,-2.4609,-2.5328,-2.5862,-2.5909,-2.7898,-2.9182,-2.9493,-3.0763,-3.1395,-3.1395,-3.1395,-3.1506,-3.1729,-3.2062,-3.2253,-3.2359,-3.3046,-3.3454,-3.3788,-3.4245,-3.4779,-3.5256,-3.5478,-3.5573,-3.5573,-3.5573,-3.5573,-3.5573,-3.5573,-3.5573,-3.5573,-3.5573,-3.5573,-3.5573,-3.5573,-3.5573,-3.5637,-3.6002,-3.5764,-3.5478,-3.5971,-3.5907,-3.5388,-3.4262,-3.3973,-3.3557,-3.2121,-3.1853,-3.1864,-3.1971,-3.1726,-3.1195,-3.0529,-2.9992,-2.9558,-2.9068,-2.9019,-2.9188,-2.9719,-2.9707,-2.9779,-3.0165,-2.9948,-2.9806,-2.9872,-2.9334,-2.9152,-2.964,-2.9262,-2.8946,-2.8777,-2.9055,-2.9238,-2.9298,-3.0144,-3.0874,-3.1247,-3.1616,-3.1819,-3.2008,-3.1215,-3.0812,-3.0708,-3.0206,-3.0117,-1.9746,-1.9947,-2.0187,-2.0588,-2.0575,-2.0727,-2.1752,-2.1872,-2.1895,-2.2374,-2.2146,-2.1973,-2.2471,-2.2579,-2.2779,-2.338,-2.3808,-2.4142,-2.4329,-2.469,-2.4836,-2.4529,-2.4756,-2.4863,-2.4649,-2.4488,-2.4311,-2.4059,-2.5086,-2.5769,-2.5913,-2.8072,-2.9498,-2.9961,-3.0793,-3.1241,-3.1241,-3.1241,-3.1415,-3.1763,-3.2174,-3.2443,-3.2548,-3.2917,-3.3296,-3.3516,-3.396,-3.4445,-3.489,-3.5256,-3.5478,-3.5573,-3.5573,-3.5573,-3.5573,-3.5573,-3.5573,-3.5573,-3.5573,-3.5312,-3.4947,-3.4947,-3.4947,-3.4906,-3.514,-3.5335,-3.5478,-3.5844,-3.5859,-3.5275,-3.3191,-3.3042,-3.3073,-3.1354,-3.1268,-3.162,-3.181,-3.1429,-3.0855,-3.0363,-2.9821,-2.927,-2.9068,-2.9079,-2.9284,-2.9731,-2.9876,-2.9996,-3.0189,-3.0141,-2.9912,-2.9453,-2.9248,-2.9201,-2.9505,-2.9128,-2.8813,-2.8632,-2.8705,-2.8825,-2.9006,-2.9653,-3.0317,-3.1101,-3.149,-3.1931,-3.231,-3.1617,-3.1264,-3.1148,-3.0623,-3.0419,-1.98,-1.98,-1.9947,-2.0535,-2.0454,-2.0548,-2.1724,-2.1727,-2.171,-2.2514,-2.2216,-2.2039,-2.2737,-2.2378,-2.2178,-2.2834,-2.3367,-2.3768,-2.3768,-2.4262,-2.4516,-2.4235,-2.4449,-2.4636,-2.4636,-2.4267,-2.4162,-2.4449,-2.4825,-2.5684,-2.7197,-2.835,-2.961,-3.0855,-3.0822,-3.0778,-3.0778,-3.0778,-3.095,-3.1277,-3.2,-3.2602,-3.2952,-3.2587,-3.3,-3.3985,-3.3635,-3.3873,-3.4525,-3.489,-3.524,-3.5573,-3.5573,-3.5573,-3.5573,-3.5573,-3.5573,-3.5573,-3.5573,-3.4597,-3.3425,-3.3425,-3.3425,-3.3425,-3.3425,-3.416,-3.5113,-3.5478,-3.5319,-3.4579,-3.2622,-3.274,-3.2957,-3.1312,-3.1125,-3.143,-3.1995,-3.1719,-3.114,-3.067,-2.9959,-2.9282,-2.9068,-2.9236,-2.9501,-2.9755,-3.0033,-3.0214,-3.0214,-2.9972,-2.9695,-2.9441,-2.9405,-2.9296,-2.9043,-2.8777,-2.8632,-2.8632,-2.8874,-2.9019,-2.9019,-2.926,-2.9835,-3.0602,-3.1101,-3.1539,-3.1806,-3.1819,-3.1655,-3.1421,-3.1176,-3.0853,-1.9853,-1.9947,-2.0241,-2.0828,-2.0879,-2.1029,-2.2045,-2.1872,-2.1512,-2.1897,-2.2091,-2.2141,-2.2172,-2.2203,-2.2352,-2.2525,-2.306,-2.346,-2.346,-2.3781,-2.4075,-2.4195,-2.4275,-2.4409,-2.4549,-2.4267,-2.3922,-2.3715,-2.5378,-2.6051,-2.5383,-2.8026,-2.9515,-2.9274,-3.0081,-3.0573,-3.0877,-3.1115,-3.1415,-3.1747,-3.1683,-3.1984,-3.2548,-3.2933,-3.317,-3.3156,-3.3628,-3.3969,-3.4207,-3.4795,-3.4954,-3.4874,-3.5383,-3.5415,-3.5224,-3.5478,-3.5573,-3.5573,-3.5573,-3.4597,-3.3425,-3.3425,-3.2719,-3.2086,-3.3073,-3.3613,-3.4093,-3.528,-3.5685,-3.5202,-3.2737,-3.2463,-3.2305,-3.0363,-3.0491,-3.1034,-3.1225,-3.1129,-3.0842,-3.0363,-2.9972,-2.9492,-2.9092,-2.9381,-2.9707,-2.9779,-3.0033,-3.0214,-3.0214,-2.9972,-2.9767,-2.9682,-2.9513,-2.9369,-2.9296,-2.9224,-2.9175,-2.9175,-2.9417,-2.9393,-2.9031,-2.926,-2.9737,-3.0305,-3.0702,-3.1251,-3.2125,-3.1918,-3.1756,-3.1643,-3.1222,-3.0815,-2.0334,-2.0535,-2.0869,-2.1336,-2.1381,-2.141,-2.2071,-2.2043,-2.1939,-2.2138,-2.2112,-2.2052,-2.2089,-2.2161,-2.2217,-2.2351,-2.2832,-2.314,-2.314,-2.3407,-2.3661,-2.3834,-2.3955,-2.4102,-2.4275,-2.3883,-2.3715,-2.3935,-2.5073,-2.5755,-2.5681,-2.7851,-2.9133,-2.9256,-2.9911,-3.0479,-3.0849,-3.1054,-3.1274,-3.1479,-3.1556,-3.1779,-3.2155,-3.2601,-3.2854,-3.2877,-3.3569,-3.3889,-3.4048,-3.4461,-3.4668,-3.4763,-3.5192,-3.5224,-3.5081,-3.5446,-3.5494,-3.5383,-3.5526,-3.4231,-3.2528,-3.2528,-3.1642,-3.0767,-3.2174,-3.2984,-3.3689,-3.5209,-3.5732,-3.528,-3.2751,-3.2273,-3.1874,-2.9848,-3.0045,-3.0617,-3.0821,-3.0994,-3.0951,-3.0535,-3.0156,-2.9811,-2.942,-2.954,-2.9791,-2.9791,-3.0033,-3.0214,-3.0214,-3.0069,-2.9924,-2.9803,-2.9658,-2.9513,-2.9417,-2.9505,-2.9444,-2.9248,-2.959,-2.9541,-2.9031,-2.926,-2.9651,-3.0045,-3.0429,-3.1064,-3.2064,-3.2161,-3.2124,-3.2121,-3.154,-3.112,-2.1042,-2.1309,-2.1655,-2.1937,-2.1909,-2.1802,-2.1977,-2.2387,-2.2675,-2.2636,-2.2177,-2.1816,-2.2134,-2.2062,-2.2028,-2.2391,-2.2686,-2.2859,-2.2859,-2.31,-2.33,-2.3327,-2.3567,-2.3741,-2.3768,-2.3359,-2.3502,-2.4688,-2.4409,-2.5084,-2.7245,-2.7892,-2.871,-2.9981,-3.0119,-3.0311,-3.0715,-3.0777,-3.0809,-3.0824,-3.1541,-3.1872,-3.1872,-3.1935,-3.2332,-3.3049,-3.3333,-3.3667,-3.3969,-3.4001,-3.4366,-3.4906,-3.5002,-3.5017,-3.5033,-3.543,-3.5367,-3.5129,-3.5462,-3.3792,-3.1465,-3.1376,-3.032,-2.9451,-3.0842,-3.2174,-3.3513,-3.5121,-3.5573,-3.5103,-3.2847,-3.2289,-3.1813,-2.9937,-2.9791,-3.0198,-3.0713,-3.1099,-3.1203,-3.0994,-3.0611,-3.0205,-2.9859,-2.9873,-2.9839,-2.9839,-3.0045,-3.0214,-3.0214,-3.0214,-3.0117,-2.9864,-2.9839,-2.9743,-2.9501,-2.9751,-2.9603,-2.9127,-2.9603,-2.9591,-2.9079,-2.9296,-2.9526,-2.9791,-3.0328,-3.0964,-3.1819,-3.2353,-3.2661,-3.2663,-3.2136,-3.1918,-2.1096,-2.1162,-2.139,-2.2138,-2.2458,-2.2539,-2.2365,-2.2404,-2.2214,-2.144,-2.1765,-2.2039,-2.1684,-2.1729,-2.2093,-2.2726,-2.2614,-2.2516,-2.2859,-2.2926,-2.3046,-2.33,-2.338,-2.3514,-2.3754,-2.3392,-2.3582,-2.4747,-2.5235,-2.5651,-2.6123,-2.7668,-2.8397,-2.8109,-2.8958,-2.9633,-3.0024,-3.0561,-3.0906,-3.0906,-3.1331,-3.1506,-3.1522,-3.2062,-3.2539,-3.3049,-3.3333,-3.3524,-3.3619,-3.3905,-3.3937,-3.3905,-3.4716,-3.4859,-3.47,-3.5335,-3.5526,-3.5478,-3.5558,-3.4406,-3.2793,-3.1642,-3.032,-2.9451,-3.0842,-3.1554,-3.2263,-3.4859,-3.5573,-3.5231,-3.3829,-3.3676,-3.3259,-3.0544,-2.9832,-2.9861,-3.0185,-3.0773,-3.1246,-3.1164,-3.0946,-3.0562,-3.0205,-3.0067,-3.0129,-3.0129,-3.0177,-3.0214,-3.0214,-3.0214,-3.0189,-3.0129,-3.0129,-3.0105,-3.0045,-3.0085,-3.0061,-2.996,-3.0061,-2.9952,-2.9634,-2.9477,-2.9526,-2.9791,-3.0109,-3.076,-3.1819,-3.215,-3.2558,-3.295,-3.2644,-3.2468,-2.1456,-2.163,-2.1884,-2.2485,-2.2752,-2.2792,-2.2283,-2.2149,-2.183,-2.0674,-2.1175,-2.1616,-2.0998,-2.1298,-2.1641,-2.1932,-2.2128,-2.2327,-2.24,-2.2711,-2.2926,-2.3086,-2.31,-2.3305,-2.3802,-2.3671,-2.4088,-2.5581,-2.5655,-2.6099,-2.7209,-2.7806,-2.8263,-2.8577,-2.92,-2.9666,-3.006,-3.0601,-3.093,-3.0871,-3.1045,-3.1141,-3.1172,-3.2015,-3.2618,-3.3049,-3.3333,-3.3492,-3.3492,-3.3683,-3.3746,-3.381,-3.4509,-3.4668,-3.4588,-3.5319,-3.5462,-3.5335,-3.5526,-3.4597,-3.3249,-3.2528,-3.1376,-3.0499,-3.1909,-3.2263,-3.2808,-3.4947,-3.5573,-3.5303,-3.4096,-3.3948,-3.3434,-3.0809,-3.0447,-3.0466,-3.0019,-3.0596,-3.135,-3.1653,-3.138,-3.1084,-3.0788,-3.0438,-3.0214,-3.0214,-3.0214,-3.0214,-3.0214,-3.0214,-3.0214,-3.0214,-3.0214,-3.0214,-3.0214,-3.0598,-3.0625,-3.0423,-3.0702,-3.0715,-3.0203,-3.0069,-3.0018,-2.9984,-3.0141,-3.0782,-3.201,-3.229,-3.2776,-3.3462,-3.313,-3.3185,-2.1764,-2.2191,-2.2552,-2.2806,-2.2899,-2.2764,-2.2108,-2.1882,-2.1512,-2.0291,-2.0646,-2.1015,-2.0505,-2.0736,-2.1021,-2.1073,-2.1555,-2.1952,-2.1841,-2.2334,-2.2724,-2.2792,-2.2832,-2.3201,-2.3966,-2.3901,-2.462,-2.6466,-2.6003,-2.6567,-2.8687,-2.8125,-2.8346,-2.9638,-2.9679,-2.9806,-3.014,-3.0505,-3.0712,-3.0775,-3.0886,-3.0994,-3.0902,-3.1935,-3.2571,-3.2888,-3.3156,-3.3347,-3.3476,-3.3331,-3.3521,-3.3953,-3.435,-3.4509,-3.4588,-3.5319,-3.5383,-3.5176,-3.5478,-3.4772,-3.3777,-3.3513,-3.2617,-3.1909,-3.3073,-3.338,-3.3613,-3.5193,-3.5526,-3.5296,-3.4375,-3.4141,-3.3604,-3.1207,-3.1209,-3.1409,-2.9917,-3.0401,-3.1325,-3.1772,-3.1586,-3.1276,-3.1176,-3.0674,-3.0214,-3.0214,-3.0214,-3.0214,-3.0214,-3.0214,-3.0214,-3.0214,-3.0214,-3.0214,-3.0214,-3.0914,-3.1176,-3.0689,-3.1359,-3.1432,-3.0677,-3.0689,-3.0512,-3.0274,-3.0388,-3.0994,-3.2226,-3.2609,-3.3265,-3.3975,-3.3778,-3.3924,-2.1523,-2.2258,-2.2819,-2.2914,-2.306,-2.3046,-2.2165,-2.178,-2.1293,-2.0272,-2.0347,-2.056,-2.0443,-2.0278,-2.0435,-2.1238,-2.0961,-2.0835,-2.1462,-2.183,-2.2148,-2.2404,-2.2712,-2.3201,-2.3966,-2.3994,-2.4667,-2.6451,-2.6847,-2.7501,-2.8742,-2.8659,-2.8818,-2.9345,-2.9075,-2.9075,-2.9425,-2.979,-3.0108,-3.0394,-3.1014,-3.1157,-3.0902,-3.1935,-3.2444,-3.2507,-3.2469,-3.288,-3.346,-3.2752,-3.2912,-3.3619,-3.4255,-3.4509,-3.4588,-3.5319,-3.5542,-3.551,-3.5558,-3.5486,-3.5121,-3.3777,-3.3249,-3.3161,-3.3337,-3.3216,-3.3312,-3.513,-3.5351,-3.5106,-3.528,-3.5596,-3.5049,-3.2237,-3.2061,-3.1879,-2.9848,-3.0057,-3.073,-3.1081,-3.1088,-3.0861,-3.0469,-3.0291,-3.0214,-3.0214,-3.0214,-3.0214,-3.0214,-3.0214,-3.0214,-3.0214,-3.0214,-3.0214,-3.0214,-3.0683,-3.1063,-3.0962,-3.1529,-3.1516,-3.0962,-3.0962,-3.0782,-3.0552,-3.0962,-3.1588,-3.2226,-3.3033,-3.3678,-3.4269,-3.4193,-3.4352,-2.1534,-2.2071,-2.2619,-2.2619,-2.2846,-2.2804,-2.1952,-2.1595,-2.1162,-2.0016,-1.9939,-1.9923,-1.9736,-1.9842,-1.9952,-2.0076,-2.029,-2.0551,-2.0926,-2.1343,-2.1844,-2.2324,-2.2539,-2.3215,-2.4738,-2.4699,-2.5299,-2.7055,-2.7395,-2.7663,-2.817,-2.8355,-2.8611,-2.898,-2.8853,-2.8932,-2.9298,-2.9647,-2.9997,-3.0315,-3.0839,-3.1014,-3.0886,-3.1744,-3.2237,-3.2428,-3.2632,-3.2996,-3.346,-3.2933,-3.2996,-3.354,-3.4032,-3.435,-3.4573,-3.5081,-3.5399,-3.5605,-3.5812,-3.5748,-3.5518,-3.5077,-3.4751,-3.4597,-3.4597,-3.4576,-3.457,-3.5352,-3.5462,-3.5367,-3.5542,-3.5701,-3.514,-3.2365,-3.2022,-3.1686,-2.9267,-2.9367,-2.9975,-3.0474,-3.074,-3.0809,-3.0315,-3.0214,-3.0214,-3.0214,-3.0214,-3.0214,-3.0214,-3.0214,-3.0214,-3.0214,-3.0214,-3.0315,-3.0619,-3.1113,-3.1617,-3.192,-3.241,-3.231,-3.1517,-3.1416,-3.1073,-3.0383,-3.0892,-3.164,-3.2468,-3.3058,-3.3636,-3.4322,-3.4322,-3.4389,-2.1269,-2.1804,-2.2298,-2.2218,-2.2472,-2.2524,-2.1753,-2.1424,-2.1084,-1.9939,-1.9697,-1.9619,-1.9233,-1.9446,-1.9567,-1.9229,-1.9719,-2.0129,-2.0385,-2.0915,-2.1503,-2.2111,-2.2325,-2.3104,-2.4876,-2.5128,-2.5779,-2.7169,-2.764,-2.7832,-2.7861,-2.81,-2.8505,-2.9039,-2.8914,-2.9003,-2.9441,-2.9647,-2.9901,-3.006,-3.0505,-3.0728,-3.0743,-3.1554,-3.2094,-3.2428,-3.2713,-3.303,-3.3333,-3.2982,-3.3077,-3.3524,-3.3969,-3.4287,-3.4557,-3.5002,-3.5335,-3.5621,-3.5875,-3.5796,-3.5637,-3.5987,-3.5875,-3.5589,-3.5685,-3.5589,-3.5462,-3.5558,-3.551,-3.5462,-3.5558,-3.5573,-3.4953,-3.2323,-3.191,-3.1416,-2.8979,-2.8906,-2.9418,-3.002,-3.0441,-3.061,-3.0206,-3.0165,-3.0214,-3.0214,-3.0214,-3.0214,-3.0214,-3.0214,-3.0214,-3.0214,-3.0214,-3.0416,-3.091,-3.1517,-3.2008,-3.2611,-3.3113,-3.2912,-3.1806,-3.1819,-3.1315,-3.0214,-3.0985,-3.1819,-3.2853,-3.3019,-3.3686,-3.4514,-3.4322,-3.4282,-2.0722,-2.1349,-2.1937,-2.1735,-2.2017,-2.2285,-2.171,-2.1318,-2.0838,-2.0234,-2.0,-1.985,-1.9512,-1.9265,-1.9193,-1.941,-1.9318,-1.9377,-2.0004,-2.0373,-2.0799,-2.1525,-2.2084,-2.2687,-2.3518,-2.478,-2.5764,-2.6167,-2.7467,-2.8244,-2.8251,-2.8283,-2.8744,-2.9794,-2.918,-2.9145,-2.9855,-2.9792,-2.9663,-2.9361,-3.0029,-3.0346,-3.0378,-3.1443,-3.2094,-3.2428,-3.231,-3.2563,-3.2984,-3.2563,-3.2833,-3.3556,-3.4223,-3.4493,-3.4588,-3.5287,-3.5558,-3.5589,-3.5605,-3.5589,-3.5637,-3.5987,-3.5875,-3.5637,-3.5987,-3.5605,-3.5129,-3.5478,-3.5335,-3.5145,-3.5494,-3.5573,-3.4953,-3.2323,-3.191,-3.1563,-2.9715,-2.9188,-2.9189,-2.97,-2.9848,-2.9815,-2.9815,-3.0033,-3.0214,-3.0214,-3.0214,-3.0214,-3.0214,-3.0214,-3.0214,-3.0214,-3.0214,-3.0416,-3.091,-3.1517,-3.2008,-3.2611,-3.3113,-3.2912,-3.1806,-3.1819,-3.1315,-3.0214,-3.1577,-3.2532,-3.3068,-3.3341,-3.3987,-3.5014,-3.4514,-3.4175,-2.0388,-2.0895,-2.1403,-2.1296,-2.1176,-2.1237,-2.1514,-2.1098,-2.0626,-2.0683,-2.059,-2.0463,-2.0133,-1.9703,-1.9422,-1.9688,-1.9362,-1.9325,-1.9961,-2.0181,-2.0516,-2.1136,-2.1766,-2.2617,-2.3742,-2.4646,-2.5577,-2.6383,-2.7118,-2.7715,-2.7895,-2.771,-2.8183,-2.9432,-2.8825,-2.8764,-2.9497,-2.972,-2.9758,-2.9647,-2.9886,-3.0108,-3.0346,-3.0966,-3.13,-3.1458,-3.2095,-3.2711,-3.3254,-3.2632,-3.279,-3.354,-3.4001,-3.4318,-3.4557,-3.5049,-3.5383,-3.5637,-3.6082,-3.6098,-3.6002,-3.6574,-3.6384,-3.5939,-3.6066,-3.5764,-3.5415,-3.5542,-3.5478,-3.5415,-3.5542,-3.5015,-3.3873,-3.1413,-3.0225,-2.9469,-2.9014,-2.8922,-2.9019,-2.9201,-2.9528,-2.9791,-2.9791,-3.0033,-3.0214,-3.0214,-3.0214,-3.0153,-2.9972,-2.9948,-2.9948,-2.9948,-2.9948,-3.0222,-3.0898,-3.1517,-3.2008,-3.2611,-3.2812,-3.2511,-3.1819,-3.1517,-3.091,-3.0214,-3.1182,-3.2034,-3.2545,-3.356,-3.4113,-3.4334,-3.4144,-3.3881,-1.9947,-2.0374,-2.0842,-2.0935,-2.0667,-2.0476,-2.1059,-2.0564,-2.007,-2.0366,-2.0397,-2.036,-2.0392,-2.0057,-1.9772,-1.9869,-1.9434,-1.9334,-2.0026,-2.009,-2.0374,-2.1059,-2.1674,-2.2362,-2.3395,-2.4175,-2.5037,-2.5981,-2.6517,-2.7118,-2.7849,-2.7579,-2.7896,-2.907,-2.8894,-2.8975,-2.9298,-2.9536,-2.9647,-2.9647,-2.9647,-2.9886,-3.033,-3.0696,-3.0982,-3.1252,-3.1951,-3.2587,-3.3095,-3.2745,-3.2952,-3.3524,-3.3873,-3.4207,-3.4541,-3.4906,-3.5272,-3.5637,-3.6098,-3.6114,-3.6018,-3.6606,-3.64,-3.5955,-3.6066,-3.5859,-3.5573,-3.5573,-3.5573,-3.5573,-3.5573,-3.4314,-3.2613,-3.0743,-2.9162,-2.8282,-2.856,-2.8765,-2.8886,-2.8886,-2.9308,-2.967,-2.967,-2.9972,-3.0189,-3.0093,-3.0069,-2.9972,-2.9707,-2.967,-2.967,-2.967,-2.9743,-3.0076,-3.0762,-3.1466,-3.2008,-3.2611,-3.2611,-3.231,-3.1819,-3.1315,-3.0708,-3.0214,-3.1269,-3.202,-3.2341,-3.3457,-3.4113,-3.4321,-3.4036,-3.3721,0.0,0.0,0.0,-2.0575,-2.0441,-2.0165,-2.0301,-1.9668,-1.9145,-1.9303,-1.9334,-1.9551,-2.0163,-2.0279,-2.0195,-1.9953,-1.9458,-1.9407,-2.0286,-2.0215,-2.0464,-2.1253,-2.1727,-2.2111,-2.2392,-2.3296,-2.4224,-2.497,-2.5712,-2.6784,-2.8196,-2.7938,-2.8043,-2.8726,-2.946,-2.971,-2.9298,-2.9282,-2.9282,-2.9298,-2.9298,-2.9647,-3.0299,-3.068,-3.122,-3.1872,-3.1903,-3.2094,-3.2428,-3.2793,-3.3158,-3.3524,-3.3873,-3.4207,-3.4541,-3.4906,-3.5256,-3.5558,-3.5589,-3.5589,-3.5653,-3.6002,-3.5875,-3.5653,-3.6002,-3.5859,-3.5573,-3.5573,-3.5573,-3.5589,-3.5518,-3.3635,-3.1422,-3.0254,-2.9049,-2.8294,-2.856,-2.8632,-2.8632,-2.8632,-2.9055,-2.9405,-2.9417,-2.9864,-3.0117,-2.9839,-2.9791,-2.9695,-2.9429,-2.9393,-2.9393,-2.9393,-2.9622,-2.9991,-3.0515,-3.1353,-3.2021,-3.2511,-3.2611,-3.231,-3.1806,-3.1315,-3.072,-3.0226,-3.1853,-3.2609,-3.2354,-3.3162,-3.4103,-3.5089,-3.4205,-3.3708,-1.9305,0.0,0.0,0.0,0.0,0.0,-2.0604,-1.9599,-1.8951,-2.0809,-2.0459,-2.0069,-2.0816,-2.0605,-2.0315,-2.0436,-2.0014,-1.9851,-2.0257,-2.0335,-2.0504,-2.0974,-2.1579,-2.207,-2.2338,-2.3364,-2.4224,-2.497,-2.5913,-2.6985,-2.8196,-2.8676,-2.875,-2.836,-2.8878,-2.9169,-2.9282,-2.9043,-2.9043,-2.9298,-2.9298,-2.9249,-2.9148,-3.0039,-3.0435,-3.0429,-3.1162,-3.1729,-3.2078,-3.2428,-3.292,-3.3524,-3.3873,-3.4064,-3.4223,-3.4811,-3.5097,-3.5256,-3.578,-3.5955,-3.6018,-3.6352,-3.5514,-3.4629,-3.5801,-3.514,-3.4231,-3.5312,-3.5573,-3.5247,-3.3485,-3.276,-3.1779,-2.9551,-2.8738,-2.8524,-2.8608,-2.8777,-2.891,-2.891,-2.9175,-2.9465,-2.9658,-2.9984,-3.0117,-2.9839,-2.9791,-2.9634,-2.9175,-2.9127,-2.9127,-2.9127,-2.9357,-2.9685,-2.9979,-3.1152,-3.1819,-3.2008,-3.2021,-3.2109,-3.241,-3.1113,-3.0806,-3.1717,-3.2175,-3.2609,-3.3149,-3.3965,-3.4416,-3.4192,-3.3782,-3.3092,-1.9252,-1.9399,-1.9519,-1.9893,0.0,0.0,-2.0155,-1.925,-1.87,-2.0426,-2.0175,-1.9832,-2.0706,-2.0546,-2.0398,-2.0529,-2.0243,-2.0146,-2.04,-2.0447,-2.0622,-2.1184,-2.1652,-2.2067,-2.2592,-2.3025,-2.3747,-2.4902,-2.5037,-2.5757,-2.7324,-2.8476,-2.8875,-2.8201,-2.8434,-2.8777,-2.9075,-2.8869,-2.8948,-2.9298,-2.9298,-2.9296,-2.9362,-2.9976,-3.034,-3.0505,-3.1128,-3.1586,-3.1935,-3.2126,-3.2618,-3.3286,-3.3492,-3.3746,-3.408,-3.462,-3.4906,-3.5113,-3.5685,-3.5891,-3.5923,-3.6114,-3.5504,-3.4833,-3.5785,-3.5228,-3.4525,-3.5573,-3.5701,-3.504,-3.2455,-3.198,-3.1549,-2.8872,-2.8367,-2.8475,-2.8596,-2.8741,-2.885,-2.885,-2.9151,-2.9453,-2.961,-2.9767,-2.9815,-2.9658,-2.9538,-2.932,-2.8898,-2.885,-2.885,-2.885,-2.9371,-2.9762,-2.9908,-3.1391,-3.2237,-3.2121,-3.2224,-3.2439,-3.2624,-3.1315,-3.0945,-3.192,-3.2137,-3.2891,-3.4193,-3.4689,-3.4438,-3.3563,-3.3447,-3.2812,-1.9394,-1.9296,-1.9252,-2.0,-1.9826,0.0,-1.95,-1.8853,-1.8508,-1.9306,-1.9217,-1.9322,-2.0302,-2.0389,-2.033,-2.0367,-2.0347,-2.0364,-2.0629,-2.0539,-2.0742,-2.164,-2.1816,-2.2172,-2.2764,-2.2516,-2.3065,-2.4766,-2.3884,-2.4132,-2.5996,-2.7761,-2.8509,-2.8154,-2.8177,-2.837,-2.8828,-2.8726,-2.89,-2.9298,-2.9298,-2.9615,-3.0129,-3.0235,-3.0632,-3.1207,-3.1315,-3.1538,-3.1856,-3.1856,-3.2301,-3.3033,-3.3033,-3.3381,-3.4048,-3.4382,-3.4731,-3.5081,-3.5446,-3.5573,-3.5573,-3.5573,-3.5486,-3.5462,-3.5914,-3.5772,-3.5462,-3.5914,-3.5875,-3.5025,-3.2364,-3.1699,-3.1163,-2.8681,-2.8099,-2.827,-2.8524,-2.862,-2.8669,-2.8669,-2.9043,-2.9369,-2.9393,-2.9405,-2.9393,-2.9369,-2.9163,-2.8922,-2.8656,-2.862,-2.8632,-2.8753,-2.9591,-3.0193,-3.0329,-3.2057,-3.2937,-3.2676,-3.2937,-3.3078,-3.2816,-3.1706,-3.1235,-3.1713,-3.2225,-3.334,-3.5089,-3.5089,-3.434,-3.2864,-3.3259,-3.2825,-2.0489,-2.0196,-1.996,-1.9907,-1.9973,0.0,-2.0042,-1.9537,-1.9371,-2.0451,-1.9851,-1.9484,-2.0595,-2.036,-2.0175,-2.0601,-2.0483,-2.0364,-2.0629,-2.065,-2.082,-2.1264,-2.1571,-2.1984,-2.2379,-2.2654,-2.3201,-2.4088,-2.524,-2.5928,-2.6072,-2.7283,-2.7844,-2.782,-2.7554,-2.784,-2.8757,-2.8471,-2.8646,-2.9298,-2.9298,-2.9217,-2.9054,-2.9644,-3.0008,-3.0119,-3.0763,-3.1172,-3.149,-3.149,-3.2062,-3.3033,-3.3033,-3.3381,-3.4048,-3.4382,-3.4731,-3.5081,-3.5446,-3.5573,-3.5573,-3.5573,-3.4772,-3.4116,-3.5634,-3.5052,-3.4116,-3.5649,-3.605,-3.5696,-3.4157,-3.2995,-3.1684,-3.0003,-2.8849,-2.8222,-2.827,-2.8632,-2.8934,-2.8934,-2.9019,-2.9163,-2.9369,-2.9405,-2.9332,-2.9127,-2.9043,-2.8922,-2.8656,-2.862,-2.8897,-2.9492,-2.9995,-3.0478,-3.1099,-3.2387,-3.3016,-3.2963,-3.3224,-3.3573,-3.3944,-3.2493,-3.2207,-3.3434,-3.394,-3.4465,-3.4788,-3.5166,-3.4219,-3.2119,-3.3452,-3.2816,-2.0292,-2.0041,-1.9789,-1.9819,-1.98,0.0,0.0,-1.9773,-1.975,-2.0463,-2.0097,-1.9884,-2.0464,-2.0374,-2.027,-2.0416,-2.0372,-2.0392,-2.0527,-2.0634,-2.0804,-2.1151,-2.1553,-2.1897,-2.2242,-2.2654,-2.2996,-2.3133,-2.5455,-2.6494,-2.5597,-2.7102,-2.7938,-2.7725,-2.7566,-2.7804,-2.8487,-2.8503,-2.8757,-2.9298,-2.9298,-2.9321,-2.9262,-2.9771,-3.0193,-3.0391,-3.089,-3.1331,-3.1649,-3.1649,-3.2173,-3.3017,-3.2761,-3.3111,-3.381,-3.4318,-3.462,-3.4843,-3.5383,-3.5701,-3.5844,-3.5844,-3.5388,-3.4906,-3.5974,-3.5566,-3.4979,-3.5873,-3.5987,-3.5602,-3.4668,-3.3617,-3.2584,-3.1601,-3.0783,-3.0117,-2.9659,-2.9758,-2.9804,-2.908,-2.9019,-2.9103,-2.9357,-2.9296,-2.9163,-2.9031,-2.9019,-2.897,-2.8837,-2.8934,-2.925,-2.997,-3.0526,-3.1049,-3.1784,-3.2829,-3.3396,-3.3237,-3.3646,-3.3934,-3.4108,-3.2892,-3.2646,-3.3485,-3.4133,-3.4639,-3.4862,-3.5149,-3.4212,-3.2201,-3.3346,-3.2878,-2.0233,-1.9874,-1.96,-1.9786,-1.9687,-1.9508,0.0,0.0,0.0,-2.0107,-2.0147,-2.0133,-2.0244,-2.0352,-2.0294,-2.0208,-2.0293,-2.0331,-2.0327,-2.0546,-2.0784,-2.0921,-2.1264,-2.1688,-2.2082,-2.2506,-2.2669,-2.2516,-2.494,-2.6072,-2.5215,-2.6883,-2.7781,-2.7725,-2.7661,-2.782,-2.8217,-2.8519,-2.8869,-2.9298,-2.9298,-2.9441,-2.9727,-3.0076,-3.0426,-3.0775,-3.1204,-3.1586,-3.1919,-3.1983,-3.238,-3.3017,-3.2634,-3.2952,-3.3667,-3.4271,-3.4588,-3.4811,-3.5462,-3.5907,-3.6193,-3.613,-3.6114,-3.6161,-3.6416,-3.632,-3.6114,-3.6177,-3.5907,-3.5485,-3.5059,-3.4291,-3.3472,-3.3128,-3.2435,-3.1696,-3.0978,-3.07,-3.028,-2.9165,-2.9091,-2.92,-2.9308,-2.92,-2.9055,-2.8958,-2.8982,-2.9019,-2.9019,-2.92,-2.9566,-3.0354,-3.0962,-3.1723,-3.2372,-3.3373,-3.3774,-3.3521,-3.4068,-3.4295,-3.4068,-3.3446,-3.2982,-3.2838,-3.3944,-3.4551,-3.4809,-3.4951,-3.425,-3.269,-3.324,-3.2965,-2.1901,-2.0978,-2.005,-2.0111,-1.9859,-1.9575,-1.9469,0.0,-2.012,-1.9893,0.0,-2.0013,-2.0513,0.0,0.0,-2.0422,-2.0285,-2.0091,-1.994,-2.0501,-2.0701,-2.0099,-2.0367,-2.0801,-2.1446,-2.1797,-2.2375,-2.3174,-2.339,-2.4232,-2.5888,-2.6193,-2.6786,-2.7657,-2.7423,-2.7566,-2.8217,-2.8265,-2.863,-2.9298,-2.9298,-2.9314,-2.9361,-2.9727,-3.006,-3.041,-3.1093,-3.1586,-3.1935,-3.2237,-3.2587,-3.3033,-3.2904,-3.3333,-3.4001,-3.4366,-3.4906,-3.551,-3.5907,-3.6257,-3.6495,-3.6209,-3.6114,-3.6114,-3.6145,-3.6145,-3.6161,-3.6463,-3.6082,-3.5812,-3.6616,-3.5375,-3.3978,-3.42,-3.2463,-3.0702,-3.058,-2.9866,-2.9165,-2.9006,-2.9393,-2.9574,-2.9139,-2.9224,-2.92,-2.8741,-2.8862,-2.9019,-2.9019,-2.9043,-2.9628,-3.1099,-3.1387,-3.19,-3.3147,-3.3681,-3.3868,-3.3841,-3.4389,-3.4696,-3.467,-3.4579,-3.3809,-3.2341,-3.4033,-3.4646,-3.4044,-3.4782,-3.4361,-3.2976,-3.3735,-3.3479,-2.1437,-2.1031,-2.0672,-2.0301,-2.0354,-2.036,-1.9771,-2.0096,-2.0405,-2.01,0.0,0.0,0.0,0.0,0.0,0.0,-2.0498,-2.0348,-2.0106,-2.0004,-1.9933,-1.9899,-2.0483,-2.1087,-2.1569,-2.1984,-2.227,-2.2524,-2.3593,-2.4526,-2.5166,-2.6586,-2.7338,-2.7423,-2.7868,-2.8154,-2.8217,-2.863,-2.8996,-2.9298,-2.9298,-2.9409,-2.9615,-2.9949,-3.0299,-3.068,-3.1395,-3.1887,-3.2237,-3.2587,-3.2936,-3.327,-3.327,-3.3444,-3.3778,-3.4302,-3.47,-3.5065,-3.5844,-3.6193,-3.632,-3.6368,-3.64,-3.6352,-3.6161,-3.5955,-3.5875,-3.6209,-3.5955,-3.5812,-3.686,-3.6157,-3.5382,-3.6217,-3.4673,-3.2822,-3.2162,-3.0985,-2.9925,-2.9371,-2.9417,-2.955,-2.9477,-2.9562,-2.9501,-2.9127,-2.9175,-2.9236,-2.9236,-2.9369,-2.9946,-3.1275,-3.1552,-3.208,-3.33,-3.3534,-3.3614,-3.3614,-3.4015,-3.4233,-3.4082,-3.4302,-3.409,-3.3143,-3.3988,-3.4314,-3.4117,-3.4125,-3.3916,-3.3563,-3.4023,-3.3975,-2.1548,-2.1329,-2.111,-2.0396,-2.0429,-2.0464,-1.9843,-2.0155,-2.0456,-2.0047,-2.012,0.0,0.0,0.0,-2.0468,-2.0548,0.0,-2.0519,-2.0107,-1.9886,-1.9763,-1.9788,-2.0617,-2.1293,-2.1495,-2.2,-2.2298,-2.2298,-2.3761,-2.4834,-2.5165,-2.6821,-2.7647,-2.7359,-2.817,-2.8487,-2.8233,-2.8837,-2.9202,-2.9298,-2.9298,-2.9441,-2.9695,-3.0124,-3.0458,-3.0759,-3.1665,-3.2189,-3.2444,-3.2904,-3.3254,-3.3492,-3.3492,-3.3492,-3.3556,-3.4144,-3.4557,-3.4906,-3.5685,-3.6034,-3.6161,-3.6495,-3.6463,-3.6288,-3.6145,-3.5859,-3.5653,-3.6002,-3.5844,-3.5812,-3.686,-3.6686,-3.639,-3.6973,-3.5697,-3.408,-3.2797,-3.1405,-3.0164,-2.942,-2.9357,-2.9465,-2.9658,-2.9815,-2.9791,-2.9453,-2.9405,-2.9405,-2.9405,-2.9574,-3.0117,-3.1287,-3.1654,-3.2209,-3.3314,-3.3414,-3.3454,-3.3534,-3.3761,-3.3771,-3.3368,-3.4099,-3.4157,-3.3532,-3.3849,-3.3984,-3.415,-3.3748,-3.3654,-3.3895,-3.4108,-3.4175,-2.3202,-2.2257,-2.1347,-2.0422,-1.9715,-1.9257,-1.9389,-1.9813,-2.0067,-1.9506,-1.984,-2.0147,-1.988,-1.9826,-1.992,-2.0201,-2.0494,0.0,0.0,-2.0486,-2.0666,-1.9621,-2.0261,-2.0811,-2.0823,-2.1499,-2.232,-2.3289,-2.3514,-2.4509,-2.653,-2.6656,-2.696,-2.7641,-2.8058,-2.8233,-2.8217,-2.8599,-2.8964,-2.9298,-2.9298,-2.9298,-2.9329,-3.0013,-3.0315,-3.041,-3.1792,-3.2396,-3.2459,-3.3174,-3.3476,-3.3492,-3.3492,-3.3492,-3.3524,-3.3889,-3.4668,-3.5542,-3.5589,-3.5828,-3.6161,-3.6495,-3.6145,-3.5669,-3.6002,-3.5859,-3.5653,-3.6002,-3.5844,-3.5812,-3.686,-3.686,-3.6404,-3.562,-3.4262,-3.2744,-3.1257,-2.9959,-2.9006,-2.9019,-2.9236,-2.9405,-2.9417,-2.9851,-3.002,-2.9489,-2.9405,-2.9405,-2.9405,-2.9417,-2.991,-3.1275,-3.1654,-3.2209,-3.3314,-3.3414,-3.3547,-3.3855,-3.3881,-3.3678,-3.3156,-3.4098,-3.4051,-3.2637,-3.3627,-3.4077,-3.3868,-3.3868,-3.3881,-3.3881,-3.3895,-3.4202,0.0,0.0,-2.3276,-2.185,-2.1481,-2.1171,-1.9929,-2.0245,-2.0588,-1.9792,-2.012,0.0,0.0,-2.0214,-2.0187,-2.0481,-2.0441,-2.022,0.0,-2.0148,-2.0266,-1.9714,-2.0335,-2.0885,-2.1059,-2.179,-2.2359,-2.2687,-2.3927,-2.4959,-2.5665,-2.6936,-2.7673,-2.7673,-2.8519,-2.8821,-2.8583,-2.8932,-2.9171,-2.9298,-2.9298,-2.9536,-2.9981,-3.0203,-3.0585,-3.1077,-3.1999,-3.2412,-3.2459,-3.319,-3.3492,-3.3492,-3.3492,-3.3635,-3.3873,-3.4207,-3.4716,-3.5287,-3.5764,-3.6304,-3.6733,-3.6384,-3.6114,-3.5955,-3.6066,-3.5859,-3.5653,-3.6002,-3.5844,-3.5764,-3.6574,-3.6527,-3.609,-3.5302,-3.3865,-3.2429,-3.1218,-2.9725,-2.8801,-2.8982,-2.9091,-2.92,-2.9381,-2.9707,-2.9876,-2.9695,-2.9658,-2.9658,-2.9658,-2.9658,-3.0093,-3.1287,-3.1654,-3.2209,-3.3314,-3.3414,-3.3454,-3.3561,-3.3574,-3.3473,-3.3259,-3.3675,-3.3621,-3.3113,-3.3514,-3.3668,-3.3574,-3.3574,-3.3681,-3.3895,-3.4082,-3.4282,-2.5371,-2.5121,0.0,-2.2972,-2.2676,0.0,-2.069,0.0,-2.1268,0.0,0.0,0.0,0.0,-2.0645,-2.0193,-2.0774,0.0,-2.0013,0.0,-1.9758,-1.9866,-1.9989,-2.0598,-2.1069,-2.1247,-2.1872,-2.2408,-2.277,-2.4119,-2.5111,-2.5324,-2.7012,-2.7947,-2.7741,-2.8503,-2.8869,-2.8773,-2.8996,-2.9171,-2.9298,-2.9298,-2.96,-3.014,-3.0267,-3.0648,-3.1252,-3.2062,-3.2412,-3.2459,-3.319,-3.3492,-3.3492,-3.3492,-3.3619,-3.3858,-3.4064,-3.4445,-3.497,-3.5812,-3.6304,-3.6511,-3.6066,-3.5923,-3.5923,-3.5923,-3.5764,-3.5653,-3.6002,-3.5844,-3.5732,-3.6416,-3.6074,-3.5252,-3.4327,-3.305,-3.1598,-3.0375,-2.928,-2.8705,-2.8958,-2.8934,-2.8958,-2.9224,-2.9477,-2.9682,-2.9779,-2.9791,-2.9891,-3.0103,-3.0103,-3.0503,-3.1598,-3.1942,-3.241,-3.3314,-3.3414,-3.3414,-3.3414,-3.3414,-3.3414,-3.3414,-3.3414,-3.3507,-3.3734,-3.3521,-3.3521,-3.3734,-3.3521,-3.3521,-3.3721,-3.4028,-3.4229]},{"header":{"parameterUnit":"m.s-1","parameterCategory":1,"la1":30.6,"la2":29.2853,"lo1":-89.7004,"lo2":-87.6739,"dy":0.0162,"dx":0.0183,"nx":112,"ny":82,"refTime":"2023-10-24T06:00:00:Z","depth":0,"parameterNumber":3,"parameterNumberName":"V-component_of_WINDS"},"data":[0.0,0.0,0.0,0.0,0.0,0.0,0.0,0.0,0.0,0.0,0.0,0.0,0.0,0.0,0.0,0.0,0.0,0.0,0.0,0.0,0.0,0.0,0.0,0.0,0.0,0.0,0.0,0.0,0.0,0.0,0.0,0.0,0.0,0.0,0.0,0.0,0.0,0.0,0.0,0.0,0.0,0.0,0.0,0.0,0.0,0.0,0.0,0.0,0.0,0.0,0.0,0.0,0.0,0.0,0.0,0.0,0.0,0.0,0.0,0.0,0.0,0.0,0.0,0.0,0.0,0.0,0.0,0.0,0.0,0.0,0.0,0.0,0.0,0.0,0.0,0.0,0.0,0.0,0.0,0.0,0.0,0.0,0.0,0.0,0.0,0.0,0.0,0.0,0.0,0.0,5.0153,5.1741,5.3883,5.5054,5.4743,5.4434,5.2215,4.7489,0.0,0.0,0.0,0.0,0.0,0.0,0.0,0.0,0.0,0.0,0.0,0.0,0.0,0.0,0.0,0.0,0.0,0.0,0.0,0.0,0.0,0.0,0.0,0.0,0.0,0.0,0.0,0.0,0.0,0.0,0.0,0.0,0.0,0.0,0.0,0.0,0.0,0.0,0.0,0.0,0.0,0.0,0.0,0.0,0.0,0.0,0.0,0.0,0.0,0.0,0.0,0.0,0.0,0.0,0.0,0.0,0.0,0.0,0.0,0.0,0.0,0.0,0.0,0.0,0.0,0.0,0.0,0.0,0.0,0.0,0.0,0.0,0.0,0.0,0.0,0.0,0.0,0.0,0.0,0.0,0.0,0.0,0.0,0.0,0.0,0.0,0.0,0.0,0.0,0.0,0.0,0.0,0.0,0.0,0.0,0.0,0.0,0.0,0.0,0.0,0.0,0.0,0.0,0.0,5.1177,5.5093,5.6414,5.6661,5.5767,5.4108,5.1898,4.9022,0.0,0.0,0.0,0.0,0.0,0.0,0.0,0.0,0.0,0.0,0.0,0.0,0.0,0.0,0.0,0.0,0.0,0.0,0.0,0.0,0.0,0.0,0.0,0.0,0.0,0.0,0.0,0.0,0.0,0.0,0.0,0.0,0.0,0.0,0.0,0.0,0.0,0.0,0.0,0.0,0.0,0.0,0.0,0.0,0.0,0.0,0.0,0.0,0.0,0.0,0.0,0.0,0.0,0.0,0.0,0.0,0.0,0.0,0.0,0.0,0.0,0.0,0.0,0.0,0.0,0.0,0.0,0.0,0.0,0.0,0.0,0.0,0.0,0.0,0.0,0.0,0.0,0.0,0.0,0.0,0.0,0.0,0.0,0.0,0.0,0.0,0.0,0.0,0.0,0.0,0.0,0.0,0.0,0.0,0.0,0.0,0.0,0.0,0.0,0.0,0.0,0.0,0.0,5.108,5.2771,5.7149,5.7475,5.7201,5.6743,5.4651,5.2193,4.954,4.8543,0.0,0.0,0.0,0.0,0.0,0.0,0.0,0.0,0.0,0.0,0.0,0.0,0.0,0.0,0.0,0.0,0.0,0.0,0.0,0.0,0.0,0.0,0.0,0.0,0.0,0.0,0.0,0.0,0.0,0.0,0.0,0.0,0.0,0.0,0.0,0.0,0.0,0.0,0.0,0.0,0.0,0.0,0.0,0.0,0.0,0.0,0.0,0.0,0.0,0.0,0.0,0.0,0.0,0.0,0.0,0.0,0.0,0.0,0.0,0.0,0.0,0.0,0.0,0.0,0.0,0.0,0.0,0.0,0.0,0.0,0.0,0.0,0.0,0.0,0.0,0.0,0.0,0.0,0.0,0.0,0.0,0.0,0.0,0.0,0.0,0.0,0.0,0.0,0.0,0.0,0.0,0.0,0.0,0.0,0.0,0.0,0.0,0.0,0.0,0.0,0.0,0.0,5.3301,5.4898,5.8597,5.8369,5.7785,5.7343,5.5003,5.2333,4.9571,4.7673,0.0,0.0,0.0,0.0,0.0,0.0,0.0,0.0,0.0,0.0,0.0,0.0,0.0,0.0,0.0,0.0,0.0,0.0,0.0,0.0,0.0,0.0,0.0,0.0,0.0,0.0,0.0,0.0,0.0,0.0,0.0,0.0,0.0,0.0,0.0,0.0,0.0,0.0,0.0,0.0,0.0,0.0,0.0,0.0,0.0,0.0,0.0,0.0,0.0,0.0,0.0,0.0,0.0,0.0,0.0,0.0,0.0,0.0,0.0,0.0,0.0,0.0,0.0,0.0,0.0,0.0,0.0,0.0,0.0,0.0,0.0,0.0,0.0,0.0,0.0,0.0,0.0,0.0,0.0,0.0,0.0,0.0,0.0,0.0,0.0,0.0,0.0,0.0,0.0,0.0,0.0,0.0,0.0,0.0,0.0,0.0,0.0,0.0,0.0,0.0,0.0,0.0,5.5025,5.7763,5.9636,5.9772,5.9008,5.7171,5.4589,5.1907,4.9206,4.6722,0.0,0.0,0.0,0.0,0.0,0.0,0.0,0.0,0.0,0.0,0.0,0.0,0.0,0.0,0.0,0.0,0.0,0.0,0.0,0.0,0.0,0.0,0.0,0.0,0.0,0.0,0.0,0.0,0.0,0.0,0.0,0.0,0.0,0.0,0.0,0.0,0.0,0.0,0.0,0.0,0.0,0.0,0.0,0.0,0.0,0.0,0.0,0.0,0.0,0.0,0.0,0.0,0.0,0.0,0.0,0.0,0.0,0.0,0.0,0.0,0.0,0.0,0.0,0.0,0.0,0.0,0.0,0.0,0.0,0.0,0.0,0.0,0.0,0.0,0.0,0.0,0.0,0.0,0.0,0.0,0.0,0.0,0.0,0.0,0.0,0.0,0.0,0.0,0.0,0.0,0.0,0.0,0.0,0.0,0.0,0.0,0.0,0.0,0.0,0.0,0.0,0.0,5.4261,5.6844,5.9582,5.943,5.864,5.737,5.4759,5.2108,4.9611,0.0,0.0,0.0,0.0,0.0,0.0,0.0,0.0,0.0,0.0,0.0,0.0,0.0,0.0,0.0,0.0,0.0,0.0,0.0,0.0,0.0,0.0,0.0,0.0,0.0,0.0,0.0,0.0,0.0,0.0,0.0,0.0,0.0,0.0,0.0,0.0,0.0,0.0,0.0,0.0,0.0,0.0,0.0,0.0,0.0,0.0,0.0,0.0,0.0,0.0,0.0,0.0,0.0,0.0,0.0,0.0,0.0,0.0,0.0,0.0,0.0,0.0,0.0,0.0,0.0,0.0,0.0,0.0,0.0,0.0,0.0,0.0,0.0,0.0,0.0,0.0,0.0,0.0,0.0,0.0,0.0,0.0,0.0,0.0,0.0,0.0,0.0,0.0,0.0,0.0,0.0,0.0,0.0,0.0,0.0,0.0,0.0,0.0,0.0,0.0,0.0,0.0,5.1729,5.4147,5.6731,5.9582,5.9425,5.8613,5.7397,5.484,5.2256,4.9747,0.0,0.0,0.0,0.0,0.0,0.0,0.0,0.0,0.0,0.0,0.0,0.0,0.0,0.0,0.0,0.0,0.0,0.0,0.0,0.0,0.0,0.0,0.0,0.0,0.0,0.0,0.0,0.0,0.0,0.0,0.0,0.0,0.0,0.0,0.0,0.0,0.0,0.0,0.0,0.0,0.0,0.0,0.0,0.0,0.0,0.0,0.0,0.0,0.0,0.0,0.0,0.0,0.0,0.0,0.0,0.0,0.0,0.0,0.0,0.0,0.0,0.0,0.0,0.0,0.0,0.0,0.0,0.0,0.0,0.0,0.0,0.0,0.0,0.0,0.0,0.0,0.0,0.0,0.0,0.0,0.0,0.0,0.0,0.0,0.0,0.0,0.0,0.0,0.0,0.0,0.0,0.0,0.0,0.0,0.0,0.0,0.0,0.0,0.0,0.0,0.0,0.0,5.1895,5.5215,5.8066,5.9712,5.9966,5.9197,5.7288,5.4754,5.2187,0.0,0.0,0.0,0.0,0.0,0.0,0.0,0.0,0.0,0.0,0.0,0.0,0.0,0.0,0.0,0.0,0.0,0.0,0.0,0.0,0.0,0.0,0.0,0.0,0.0,0.0,0.0,0.0,0.0,0.0,0.0,0.0,0.0,0.0,0.0,0.0,0.0,0.0,0.0,0.0,0.0,0.0,0.0,0.0,0.0,0.0,0.0,0.0,0.0,0.0,0.0,0.0,0.0,0.0,0.0,0.0,0.0,0.0,0.0,0.0,0.0,0.0,0.0,0.0,0.0,0.0,0.0,0.0,0.0,0.0,0.0,0.0,0.0,0.0,0.0,0.0,0.0,0.0,0.0,0.0,0.0,0.0,0.0,0.0,0.0,0.0,0.0,0.0,0.0,0.0,0.0,0.0,0.0,0.0,0.0,0.0,0.0,0.0,0.0,0.0,0.0,0.0,0.0,5.2084,5.5875,5.8844,5.9946,5.9412,5.8521,5.7332,5.477,5.2165,4.9717,0.0,0.0,0.0,0.0,0.0,0.0,0.0,0.0,0.0,0.0,0.0,0.0,0.0,0.0,0.0,0.0,0.0,0.0,0.0,0.0,0.0,0.0,0.0,0.0,0.0,0.0,0.0,0.0,0.0,0.0,0.0,0.0,0.0,0.0,0.0,0.0,0.0,0.0,0.0,0.0,0.0,0.0,0.0,0.0,0.0,0.0,0.0,0.0,0.0,0.0,0.0,0.0,0.0,0.0,0.0,0.0,0.0,0.0,0.0,0.0,0.0,0.0,0.0,0.0,0.0,0.0,0.0,0.0,0.0,0.0,0.0,0.0,0.0,0.0,0.0,0.0,0.0,0.0,0.0,0.0,0.0,0.0,0.0,0.0,0.0,0.0,0.0,0.0,0.0,0.0,0.0,0.0,0.0,0.0,0.0,0.0,0.0,0.0,0.0,0.0,0.0,0.0,5.3104,5.6595,5.9352,6.0525,5.9779,5.8865,5.8091,5.5737,5.3187,5.0534,0.0,0.0,0.0,0.0,0.0,0.0,0.0,0.0,0.0,0.0,0.0,0.0,0.0,0.0,0.0,0.0,0.0,0.0,0.0,0.0,0.0,0.0,0.0,0.0,0.0,0.0,0.0,0.0,0.0,0.0,0.0,0.0,0.0,0.0,0.0,0.0,0.0,0.0,0.0,0.0,0.0,0.0,0.0,0.0,0.0,0.0,0.0,0.0,0.0,0.0,0.0,0.0,0.0,0.0,0.0,0.0,0.0,0.0,0.0,0.0,0.0,0.0,0.0,0.0,0.0,0.0,0.0,0.0,0.0,0.0,0.0,0.0,0.0,0.0,0.0,0.0,0.0,0.0,0.0,0.0,0.0,0.0,0.0,0.0,0.0,0.0,0.0,0.0,0.0,0.0,0.0,0.0,0.0,0.0,0.0,0.0,0.0,0.0,0.0,0.0,0.0,0.0,5.4739,5.746,5.9778,6.1338,6.0685,5.987,5.9158,5.7232,5.479,5.1802,0.0,0.0,0.0,0.0,0.0,0.0,0.0,0.0,0.0,0.0,0.0,0.0,0.0,0.0,0.0,0.0,0.0,0.0,0.0,0.0,0.0,0.0,0.0,0.0,0.0,0.0,0.0,0.0,0.0,0.0,0.0,0.0,0.0,0.0,0.0,0.0,0.0,0.0,0.0,0.0,0.0,0.0,0.0,0.0,0.0,0.0,0.0,0.0,0.0,0.0,0.0,0.0,0.0,0.0,0.0,0.0,0.0,0.0,0.0,0.0,6.0248,5.989,0.0,0.0,0.0,0.0,0.0,0.0,0.0,0.0,0.0,0.0,0.0,0.0,0.0,0.0,0.0,0.0,0.0,0.0,0.0,0.0,0.0,0.0,0.0,0.0,0.0,0.0,0.0,0.0,0.0,0.0,0.0,0.0,0.0,0.0,0.0,0.0,0.0,0.0,0.0,0.0,5.6654,5.9498,6.1305,6.1611,6.1425,6.0619,5.9078,5.7357,5.5219,5.2551,5.0309,0.0,0.0,0.0,0.0,0.0,0.0,0.0,0.0,0.0,0.0,0.0,0.0,0.0,0.0,0.0,0.0,0.0,0.0,0.0,0.0,0.0,0.0,0.0,0.0,0.0,0.0,0.0,0.0,0.0,0.0,0.0,0.0,0.0,0.0,0.0,0.0,0.0,0.0,0.0,0.0,0.0,0.0,0.0,0.0,0.0,0.0,0.0,0.0,0.0,0.0,0.0,0.0,0.0,0.0,0.0,0.0,0.0,0.0,0.0,6.3144,6.2483,0.0,0.0,0.0,0.0,0.0,0.0,0.0,0.0,0.0,0.0,0.0,0.0,0.0,0.0,0.0,0.0,0.0,0.0,0.0,0.0,0.0,0.0,0.0,0.0,0.0,0.0,0.0,0.0,0.0,0.0,0.0,0.0,0.0,0.0,0.0,0.0,0.0,0.0,0.0,0.0,5.8497,6.0957,6.2536,6.2987,6.2188,6.1211,6.0265,5.8713,5.6649,5.3987,5.2432,0.0,0.0,0.0,0.0,0.0,0.0,0.0,0.0,0.0,0.0,0.0,0.0,0.0,0.0,0.0,0.0,0.0,0.0,0.0,0.0,0.0,0.0,0.0,0.0,0.0,0.0,0.0,0.0,0.0,0.0,0.0,0.0,0.0,0.0,0.0,0.0,0.0,0.0,0.0,0.0,0.0,0.0,0.0,0.0,0.0,0.0,0.0,0.0,0.0,0.0,0.0,0.0,0.0,6.6897,6.7578,6.7844,6.8904,6.9303,6.9096,6.7164,6.6293,6.616,6.5312,0.0,0.0,0.0,0.0,0.0,0.0,0.0,0.0,0.0,0.0,0.0,0.0,0.0,0.0,0.0,0.0,0.0,0.0,0.0,0.0,0.0,0.0,6.4498,6.463,6.4592,6.3133,5.8128,0.0,0.0,0.0,0.0,0.0,0.0,0.0,0.0,0.0,0.0,0.0,6.0313,6.2352,6.3778,6.4628,6.3165,6.2073,6.192,6.0376,5.8423,5.6116,5.4969,5.3422,0.0,0.0,0.0,0.0,0.0,0.0,0.0,0.0,0.0,0.0,0.0,0.0,0.0,0.0,0.0,0.0,0.0,0.0,0.0,0.0,0.0,0.0,0.0,0.0,0.0,0.0,0.0,0.0,0.0,0.0,0.0,0.0,5.9924,6.1023,0.0,0.0,0.0,0.0,0.0,0.0,0.0,0.0,0.0,0.0,0.0,0.0,0.0,6.9378,7.1143,7.2395,7.2184,7.053,7.2289,7.1981,6.9929,7.1387,7.1978,7.2016,7.2855,0.0,6.8316,6.7443,0.0,0.0,0.0,0.0,0.0,0.0,0.0,0.0,0.0,0.0,0.0,0.0,0.0,0.0,0.0,0.0,0.0,0.0,0.0,0.0,0.0,0.0,6.9031,6.8661,6.8533,6.7921,6.5718,6.2277,5.9505,5.9261,5.7587,5.6007,0.0,0.0,0.0,0.0,0.0,0.0,6.2289,6.4266,6.5473,6.5525,6.4744,6.3886,6.3155,6.1541,6.0119,5.8992,5.6611,5.4788,5.3836,5.2052,0.0,0.0,0.0,0.0,0.0,0.0,0.0,0.0,0.0,0.0,0.0,0.0,0.0,0.0,0.0,0.0,0.0,0.0,0.0,0.0,0.0,0.0,0.0,0.0,0.0,0.0,0.0,0.0,0.0,6.0837,6.2317,6.2363,6.2063,6.1541,0.0,0.0,0.0,0.0,0.0,0.0,0.0,0.0,0.0,6.9195,7.0906,7.2312,7.3509,7.4804,7.5127,7.4402,7.5183,7.5203,7.4557,7.5609,7.5836,7.5513,7.7126,7.6026,7.3058,7.156,6.936,6.6895,0.0,0.0,0.0,0.0,6.4762,6.4702,6.6176,6.5855,6.4854,6.5436,0.0,0.0,0.0,0.0,0.0,0.0,0.0,6.6755,6.7872,6.9573,7.1159,7.2017,7.185,7.1275,7.0547,6.812,6.5184,6.2284,6.1963,6.1232,5.8227,5.6483,0.0,0.0,0.0,6.1406,6.4078,6.6019,6.719,6.7176,6.6051,6.5128,6.4588,6.3104,6.1771,6.0815,5.9292,5.8062,5.7251,5.5446,5.4276,0.0,0.0,0.0,0.0,0.0,0.0,0.0,0.0,0.0,0.0,0.0,0.0,0.0,0.0,0.0,0.0,0.0,0.0,0.0,0.0,0.0,0.0,0.0,0.0,0.0,0.0,0.0,0.0,6.3147,6.4346,6.3577,6.4332,6.4257,0.0,0.0,0.0,0.0,0.0,0.0,6.9403,6.9611,7.0618,7.2767,7.4252,7.5297,7.5806,7.7047,7.7617,7.7406,7.7584,7.7606,7.7587,7.8713,7.8692,7.7836,7.9531,7.9113,7.7056,7.5171,7.2643,6.989,6.9289,6.8269,6.7333,6.8624,6.9131,6.9409,7.1178,7.1178,7.032,6.9725,6.8524,6.7072,6.5581,0.0,0.0,0.0,0.0,6.9228,7.0745,7.1931,7.315,7.4772,7.465,7.4152,7.3937,7.2886,7.0554,6.5556,6.5565,6.5191,6.1291,5.9793,0.0,6.0681,6.2056,6.3685,6.5628,6.7491,6.8597,6.8569,6.7343,6.6318,6.5896,6.464,6.3476,6.2462,6.1723,6.0966,6.0204,5.883,5.7604,5.6575,0.0,0.0,0.0,0.0,0.0,0.0,0.0,0.0,0.0,0.0,0.0,0.0,0.0,0.0,0.0,0.0,0.0,0.0,0.0,0.0,0.0,0.0,0.0,0.0,0.0,0.0,0.0,0.0,0.0,6.4424,6.743,0.0,0.0,0.0,0.0,6.7554,6.9708,7.1098,7.1289,7.3534,7.5247,7.6122,7.7094,7.8446,8.0162,8.033,8.0037,7.9374,8.0075,7.918,7.7037,7.9152,7.9303,7.7875,7.9373,7.9543,7.8654,7.7149,7.5376,7.3571,7.2987,7.257,7.2368,7.2767,7.2916,7.287,7.2366,7.1573,7.1171,7.3484,7.3592,7.2648,7.1781,7.0401,0.0,0.0,7.0439,7.1973,7.2855,7.4274,7.5747,7.6709,7.6932,7.6701,7.5933,7.5703,7.4328,6.9941,6.7257,6.5632,6.5255,0.0,6.2847,6.2949,6.5126,6.6778,6.6918,6.8391,6.9414,6.9342,6.8599,6.7755,6.6912,6.5991,6.5175,6.4423,6.327,6.239,6.2012,6.1567,6.0671,5.9226,5.8431,0.0,0.0,0.0,0.0,0.0,0.0,0.0,0.0,0.0,0.0,0.0,0.0,0.0,0.0,0.0,0.0,0.0,0.0,0.0,0.0,0.0,0.0,0.0,0.0,0.0,0.0,0.0,0.0,6.8848,7.0441,0.0,6.8823,6.9611,7.065,7.1717,7.3219,7.4496,7.5585,7.7069,7.829,7.9074,7.9527,8.004,8.0688,8.0723,8.0605,8.0332,8.0514,8.0155,7.9312,7.9953,7.9933,7.9438,8.0008,8.0123,7.9819,7.9342,7.7758,7.5626,7.5448,7.4663,7.375,7.4473,7.473,7.4801,7.518,7.5081,7.4873,7.5203,7.4758,7.4059,7.3752,7.2899,7.2174,7.2674,7.325,7.4057,7.5479,7.6286,7.694,7.7816,7.8008,7.7624,7.624,7.597,7.5187,7.2558,7.1247,6.9707,6.6915,6.6471,6.6306,6.569,6.7395,6.8729,6.8636,7.0637,7.1636,7.0412,7.0095,6.9585,6.8779,6.7395,6.6448,6.6205,6.4768,6.3847,6.3705,6.3079,6.194,6.0323,6.0565,5.9438,0.0,0.0,0.0,0.0,0.0,0.0,0.0,0.0,0.0,0.0,0.0,0.0,0.0,0.0,0.0,0.0,0.0,0.0,0.0,0.0,0.0,0.0,0.0,0.0,0.0,6.9795,7.1369,7.1747,7.3535,7.4106,7.2505,7.3184,7.4361,7.5735,7.6438,7.7373,7.8731,7.9414,7.9986,8.0485,8.065,8.0758,8.0792,8.0826,8.086,8.0877,8.0754,8.0549,8.0281,8.0352,8.0259,7.9991,8.0316,8.0469,8.0468,8.0525,7.9549,7.8022,7.7984,7.7296,7.6397,7.7092,7.7335,7.739,7.7812,7.7745,7.74,7.6824,7.6125,7.5518,7.5518,7.4971,7.4514,7.5361,7.5592,7.5899,7.7323,7.79,7.8284,7.8823,7.8707,7.8207,7.7092,7.6399,7.5592,7.4168,7.3625,7.2405,6.9292,6.9256,6.9462,6.8844,6.9525,7.0179,7.034,7.1675,7.2097,7.0911,7.0801,7.0406,6.9292,6.787,6.6922,6.6666,6.5039,6.4232,6.4589,6.3732,6.2617,6.1243,6.1831,6.1139,5.9127,0.0,0.0,0.0,0.0,0.0,0.0,0.0,0.0,0.0,0.0,0.0,0.0,0.0,0.0,0.0,0.0,0.0,0.0,0.0,0.0,0.0,0.0,0.0,6.8414,7.1861,7.3834,7.2946,7.6654,7.7968,7.454,7.6557,7.8443,7.9263,7.934,7.9666,8.0354,8.045,8.043,8.0315,8.0505,8.065,8.0792,8.0877,8.0959,8.1093,8.0975,8.0504,7.9752,8.0319,8.0172,7.9466,8.0199,8.0523,8.0596,8.0596,8.065,8.0775,8.0598,8.0486,8.0505,8.0685,8.0754,8.0656,8.003,7.9285,7.8554,7.8515,7.7977,7.7323,7.7284,7.6707,7.6169,7.7015,7.7284,7.7476,7.8284,7.9131,7.9823,7.9823,7.9208,7.8554,7.8515,7.7207,7.5822,7.4938,7.413,7.3322,7.2399,7.2245,7.2283,7.2245,7.1514,0.0,7.2006,7.1363,7.0834,7.0723,7.0746,7.0094,6.8421,6.7501,6.6633,6.5909,6.4153,6.3604,6.4577,6.3732,6.2874,6.2281,6.2255,6.2627,6.3397,0.0,0.0,0.0,0.0,0.0,0.0,0.0,0.0,0.0,0.0,0.0,0.0,0.0,0.0,0.0,0.0,0.0,0.0,0.0,0.0,0.0,6.7228,7.0059,7.226,7.4537,7.6326,7.732,7.9055,7.98,7.8808,7.9379,7.9895,8.0162,8.0162,8.0201,8.0255,8.0411,8.0392,8.0159,8.0411,8.0634,8.0792,8.0826,8.091,8.1093,8.1061,8.0946,8.0715,8.0795,8.0673,8.0396,8.0353,8.0373,8.0431,8.0237,8.0335,8.0598,8.0688,8.034,7.9783,7.9961,7.9922,7.9834,7.9654,7.9824,7.9972,7.8869,7.8361,7.8038,7.73,7.6579,7.6024,7.611,7.6694,7.7476,7.8284,7.9131,7.9977,8.0592,8.0554,8.0054,7.8746,7.8175,7.742,7.5952,7.602,7.5649,7.3514,7.363,7.3822,7.3245,7.2937,7.2654,7.2217,7.2302,7.1996,7.0897,7.1666,7.1711,7.0206,6.9299,6.8213,6.6833,6.5128,6.459,6.5513,6.5282,6.5321,6.5705,6.5718,6.5551,0.0,0.0,0.0,0.0,0.0,0.0,0.0,0.0,0.0,0.0,0.0,0.0,0.0,0.0,0.0,0.0,0.0,0.0,0.0,0.0,0.0,0.0,7.0127,7.3161,7.5742,7.7071,7.829,7.9627,8.02,8.0506,8.0506,8.0506,8.0506,8.0506,8.0087,7.9953,8.0195,7.9971,7.9915,8.0081,8.0354,8.0562,8.067,8.067,8.0741,8.0843,8.091,8.0981,8.0981,8.0926,8.0805,8.0632,8.0411,8.0296,8.0237,8.0116,8.0119,8.022,0.0,0.0,0.0,0.0,7.9654,7.9904,7.9904,8.0249,8.0458,7.9199,7.8541,7.8103,7.716,7.635,7.5801,7.6169,7.6962,7.7885,7.8808,7.9708,8.0477,8.0977,8.0823,8.0285,7.9246,7.8536,7.781,7.6765,7.6717,0.0,7.484,7.526,7.5515,7.4668,7.4245,7.3822,7.3322,7.3245,7.2893,7.202,7.2671,7.2679,7.1482,7.0291,0.0,0.0,0.0,6.5346,6.5821,6.6192,0.0,0.0,0.0,6.9167,6.909,7.203,0.0,0.0,7.081,7.158,0.0,0.0,0.0,0.0,0.0,0.0,0.0,0.0,0.0,0.0,0.0,0.0,0.0,0.0,0.0,0.0,7.2987,7.5788,7.8593,7.9228,7.9628,8.043,8.0506,8.0506,8.0506,8.0506,8.0468,8.0316,7.9438,7.9185,7.983,7.9203,0.0,0.0,0.0,8.0431,8.0468,8.0468,8.0487,8.0506,8.0688,8.0758,8.0758,8.0843,8.0664,8.043,8.0297,8.0199,8.0139,8.0058,7.9899,7.9798,8.0258,7.9972,7.9285,7.9229,7.9744,8.0468,8.0468,0.0,0.0,7.9323,7.8482,7.77,7.671,7.5984,7.5639,7.6561,7.7492,7.8441,7.9428,8.036,8.1013,8.1061,8.0484,7.9854,7.9761,7.8646,7.7588,7.7367,7.6751,7.6212,7.6087,7.6674,7.6899,7.6245,7.5322,7.4745,7.4822,7.4024,7.3471,7.3615,7.3587,0.0,7.251,7.1102,7.0115,6.9833,6.7692,6.6487,6.6512,6.7448,6.8294,6.9009,7.1486,7.3091,7.3783,7.6991,7.7838,7.6515,7.4238,7.4263,0.0,0.0,0.0,0.0,0.0,0.0,0.0,0.0,0.0,0.0,0.0,0.0,0.0,0.0,0.0,7.2693,7.5095,7.7235,7.9313,7.9663,7.9906,8.043,8.0506,8.0506,8.0506,8.0506,8.0144,7.9284,7.8997,7.8532,7.7679,7.816,7.8561,7.864,7.9453,7.9988,8.0255,8.0255,8.0354,8.0506,8.0543,0.0,8.0562,8.058,8.0523,8.0449,8.0177,8.0195,8.0295,7.969,7.9471,7.9524,7.9836,7.9946,7.9912,7.9969,8.0083,8.0255,8.0255,8.0255,7.9989,7.8427,7.7779,7.7302,7.5405,7.5229,0.0,7.5691,7.6996,7.8479,7.8942,7.9667,8.0392,8.0775,8.0639,8.0246,7.9486,7.9237,7.8721,7.7126,7.7138,7.7041,7.597,7.6056,7.6438,7.6976,7.5707,7.4938,7.5668,7.4198,7.343,7.4297,7.4165,7.403,7.3904,7.3737,7.2745,7.056,7.0137,7.0244,7.0923,7.2437,7.3308,7.3447,7.5361,7.6053,7.5515,7.7574,7.9114,8.0092,7.8915,7.8222,0.0,0.0,0.0,0.0,0.0,0.0,0.0,0.0,0.0,0.0,0.0,6.5073,6.6884,0.0,7.2059,7.4891,7.6678,7.8065,7.9157,7.9088,7.9256,8.0037,8.0157,8.0197,8.0354,8.0217,7.9716,7.8677,7.8576,7.817,7.7344,7.7922,7.8466,7.8896,7.9449,7.9501,7.9112,7.9507,7.9447,7.8949,7.9475,7.9751,7.9794,7.9858,7.9815,7.9746,7.9502,7.9387,7.9364,7.8941,7.8866,7.9041,7.9112,7.9311,7.9545,7.9138,7.9222,7.9554,8.0076,7.9985,7.9418,7.811,7.7452,7.6841,7.5351,7.5193,7.5615,7.603,7.7145,7.829,7.8587,7.9394,8.0199,8.0503,8.0578,8.0445,8.006,7.9727,7.9097,7.8024,7.7703,7.7436,7.6726,7.6626,7.6731,7.699,7.658,7.636,7.6799,7.6025,7.5664,7.6169,7.6144,7.6091,7.6088,7.5912,7.4873,7.2671,7.3097,7.3451,7.3493,7.5106,7.6015,7.6015,7.7669,7.8554,7.8554,7.986,8.1131,8.2362,8.2409,8.1932,0.0,0.0,0.0,0.0,0.0,0.0,0.0,6.4955,6.562,6.7043,6.7271,6.8111,7.1106,7.2907,7.4497,7.6369,7.7558,7.8356,7.857,7.8265,7.8336,7.9256,7.9328,7.9431,7.9706,7.9475,7.892,7.7983,7.7937,7.7714,7.7153,7.7554,7.814,7.8986,7.927,7.8982,7.8148,7.8763,7.8591,7.7651,7.8479,7.8953,7.9051,7.9194,7.9184,7.9004,7.8866,7.8723,7.859,7.8322,7.8451,7.8773,7.8414,7.8506,7.8804,7.8266,7.8404,7.8966,7.9779,7.9754,7.9166,7.8291,7.7516,7.6841,7.6005,7.5694,7.5868,7.6836,7.7622,7.8243,7.8633,7.9286,7.9895,8.0161,8.0238,8.0296,8.0449,7.9857,7.919,7.8785,7.8096,7.7582,7.745,7.7421,7.7331,7.7258,7.7491,7.778,7.7989,7.7949,7.7948,7.8157,7.7986,7.7948,7.8157,7.7464,7.6573,7.5494,7.6033,7.6133,7.5668,7.7139,7.8047,7.82,7.9731,8.09,8.1593,8.2271,8.3041,8.3862,8.4619,8.4658,6.7692,6.6644,6.5891,6.7026,6.6833,6.7513,0.0,7.1786,7.1096,7.2829,7.2881,7.2757,7.318,7.4243,7.5365,7.6346,7.7205,7.7797,7.7826,7.7797,7.7797,7.794,7.7654,7.7666,7.8102,7.774,7.723,7.6579,7.6789,7.653,7.5504,7.6263,7.6838,7.7186,7.7957,7.84,7.8525,7.8637,7.8611,7.8447,7.8714,7.8828,7.8828,7.9016,7.9066,7.9004,7.8904,7.9048,7.9242,7.8637,7.8703,7.9117,7.8224,7.79,7.8034,7.8689,7.8979,7.9091,7.9229,7.9642,8.0005,7.8925,7.8548,7.826,7.7239,7.679,7.6792,7.7664,7.8071,7.8522,7.9552,7.9341,7.8979,7.9387,7.941,7.9355,7.9321,7.9349,7.9116,7.8083,7.7716,7.7464,7.7328,7.7507,7.7913,7.8655,7.8142,7.8008,7.8941,7.8368,7.8195,7.8959,7.8348,7.8233,7.8997,7.7968,7.7662,7.8614,7.8058,7.8,7.8706,7.9821,8.075,8.144,8.2605,8.3208,8.3324,8.3417,8.3917,8.4747,8.4863,8.5247,6.8315,6.8589,6.8666,6.8326,6.9844,7.1721,7.2972,7.3343,7.3791,7.5089,7.4748,7.4555,7.5698,7.6318,7.6757,7.7127,7.7747,7.7995,7.7554,7.7298,7.6845,7.5892,7.5654,7.6189,7.7872,7.726,7.6661,7.63,7.7014,7.6966,7.5787,7.6757,7.7487,7.7754,7.8071,7.8007,7.7551,7.7914,7.7831,7.7302,7.7718,7.8053,7.8339,7.8421,7.8394,7.8285,7.8081,7.8097,7.8322,7.8048,7.8122,7.8388,7.796,7.782,7.7842,7.8211,7.8349,7.8424,7.9017,7.9172,7.9077,7.8607,7.817,7.7696,7.7253,7.706,7.7153,7.797,7.8583,7.9001,7.9007,7.9189,7.9347,7.919,7.9163,7.9177,7.9236,7.9273,7.904,7.8428,7.8263,7.8151,7.8029,7.8204,7.859,7.9116,7.9009,7.9039,7.9423,7.9257,7.9122,7.9339,7.8907,7.8788,7.9318,7.8971,7.8832,7.9076,7.9285,7.9569,7.993,8.0828,8.1726,8.2568,8.3004,8.3553,8.4118,8.4186,8.4967,8.6363,8.6374,8.6836,6.8185,6.9431,7.0702,6.9814,7.2357,7.4866,7.4067,7.4798,7.5906,7.6863,7.6163,7.5773,7.7231,7.748,7.7346,7.7126,7.7414,7.7437,7.6631,7.6303,7.5634,7.4218,7.3853,7.4525,7.6556,7.6043,7.5669,7.5853,7.6788,7.7031,7.6332,7.7186,7.7694,7.7747,7.7866,7.7521,7.6688,7.7282,7.7245,7.664,7.7169,7.7547,7.7871,7.7871,7.7842,7.7754,7.7426,7.7512,7.7855,7.7634,7.7761,7.8057,7.7777,7.7703,7.7732,7.7666,7.7725,7.7982,7.8689,7.8795,7.8611,7.8611,7.8239,7.7756,7.7756,7.7756,7.7868,7.8462,7.9056,7.9354,7.8759,7.9223,7.9599,7.8976,7.9002,7.9203,7.9103,7.9004,7.8838,7.8629,7.8576,7.8576,7.8576,7.8921,7.9228,7.9349,7.9712,7.9925,7.9766,7.9788,7.9743,7.9523,7.9214,7.9141,7.9477,7.9554,7.9475,7.9282,7.9952,8.0335,8.0316,8.1385,8.2243,8.2892,8.3409,8.4041,8.4766,8.5107,8.5946,8.7208,8.7329,8.7962,6.8036,6.9003,7.1118,7.207,7.3802,7.5683,7.7284,7.7733,7.8031,7.8859,7.7886,7.6941,7.7014,7.6801,7.6392,7.5592,7.5575,7.5416,7.4613,7.4504,7.4145,7.3343,7.2541,7.2425,7.3264,7.3331,7.3806,7.5058,7.5477,7.5999,7.6728,7.6834,7.6627,7.6197,7.6778,7.6913,7.6405,7.7028,7.7304,7.7304,7.7493,7.762,7.762,7.762,7.7673,7.7754,7.7426,7.7781,7.8479,7.7671,7.7874,7.8688,7.7696,7.7433,7.7554,7.7402,7.7607,7.8014,7.8014,7.8684,7.9465,7.9465,7.9428,7.9428,7.9428,7.9428,7.9428,7.9465,7.9465,7.9465,7.9465,7.9493,7.9307,7.849,7.8899,7.927,7.8517,7.8332,7.8304,7.8304,7.8304,7.8386,7.8655,7.9354,7.9788,7.9519,8.0179,8.0476,7.9952,7.966,7.95,7.95,7.9041,7.8941,7.9453,7.9287,7.9359,7.986,7.9881,7.9919,7.9919,8.171,8.2652,8.269,8.4495,8.5435,8.5473,8.6275,8.6658,8.6754,8.6987,8.8001,6.8939,7.0676,7.2992,7.4495,7.6607,7.8352,7.8592,7.8982,7.9039,7.8146,7.7054,7.6006,7.5243,7.4643,7.4174,7.3978,7.4097,7.4111,7.3855,7.4348,7.3823,7.1406,7.1845,7.2028,7.1223,7.1925,7.3252,7.5305,7.5677,7.6157,7.6961,7.6998,7.6721,7.613,7.6234,7.627,7.619,7.5782,7.6216,7.7493,7.7673,7.7732,7.7732,7.7614,7.7614,7.7643,7.7433,7.7457,7.7708,7.742,7.7488,7.777,7.7414,7.7372,7.7402,7.7304,7.7457,7.7762,7.7813,7.8142,7.8507,7.8657,7.8685,7.8685,7.8685,7.9056,7.9502,7.9502,7.9874,8.0171,7.9614,7.9502,7.9279,7.8462,7.8499,7.8611,7.8351,7.8276,7.8276,7.8276,7.8276,7.8517,7.9121,7.9743,8.0443,8.1309,8.0734,8.0046,7.9676,7.9406,7.9165,7.8991,7.9141,7.9439,8.0004,8.0443,8.0954,8.1505,8.1565,8.1793,8.2323,8.2943,8.3557,8.4142,8.48,8.5176,8.5287,8.6697,8.7163,8.681,8.7999,8.8327,7.051,7.2703,7.5149,7.6617,7.8274,7.9479,7.9194,7.8903,7.8312,7.6905,7.5439,7.4159,7.3146,7.2345,7.2,7.2346,7.2599,7.2797,7.312,7.3685,7.3193,7.0807,7.1431,7.1651,7.0624,7.1267,7.2612,7.4768,7.533,7.5904,7.671,7.704,7.6735,7.5779,7.6149,7.6039,7.5338,7.5262,7.5842,7.7052,7.7436,7.7673,7.7732,7.7554,7.7524,7.762,7.7463,7.7402,7.7402,7.7402,7.7402,7.7439,7.7671,7.7598,7.7347,7.7671,7.7659,7.7524,7.7732,7.7871,7.8043,7.8248,7.8462,7.8648,7.8295,7.9157,8.0159,7.9594,8.0011,8.0448,7.9725,7.9502,7.9279,7.8462,7.8499,7.8722,7.8722,7.8499,7.8462,7.9056,7.8908,7.8982,7.9799,8.0368,8.1094,8.2182,8.1353,8.0439,7.9976,7.934,7.889,7.8708,7.9186,7.966,8.014,8.098,8.1695,8.2202,8.2316,8.2627,8.3157,8.3422,8.3839,8.4408,8.4749,8.4969,8.5089,8.6761,8.723,8.6583,8.804,8.8221,7.2603,7.4869,7.7338,7.8355,7.8852,7.9061,7.9112,7.7692,7.613,7.5215,7.3355,7.1593,7.0718,7.0069,6.9929,7.0762,7.1134,7.1578,7.2349,7.2496,7.2239,7.1329,7.1256,7.1293,7.1329,7.1293,7.1982,7.3634,7.4441,7.5212,7.6019,7.679,7.652,7.5051,7.641,7.6153,7.3983,7.5418,7.613,7.6093,7.6937,7.7402,7.759,7.7402,7.7402,7.759,7.762,7.762,7.762,7.762,7.762,7.7664,7.8284,7.8038,7.7384,7.8222,7.8038,7.7408,7.774,7.7908,7.8014,7.8221,7.8833,7.9288,7.8293,7.9681,8.1311,7.9792,7.9903,8.0377,7.9743,7.9539,7.9316,7.8536,7.8945,7.9502,7.9502,7.8908,7.8871,8.0394,8.0097,7.9874,8.0645,8.1265,8.1792,8.2312,8.2071,8.1565,8.0811,7.9567,7.8757,7.8757,7.9223,7.9651,7.9925,8.0964,8.1733,8.2004,8.2339,8.2513,8.2513,8.3233,8.365,8.365,8.4484,8.4939,8.4976,8.6568,8.6947,8.6189,8.7217,8.7671,7.2976,7.4661,7.6183,7.8563,7.8902,7.8812,7.9226,7.7689,7.5558,7.3273,7.142,6.9617,6.7696,6.7743,6.8311,6.9293,7.0485,7.1394,7.1578,7.2642,7.2642,7.0624,7.0954,7.1541,7.2165,7.1651,7.2239,7.4441,7.4221,7.4368,7.5175,7.5395,7.5065,7.4096,7.4992,7.5212,7.4647,7.6203,7.6717,7.6093,7.6937,7.7341,7.7372,7.7304,7.7341,7.7402,7.7524,7.762,7.762,7.7703,7.7673,7.762,7.7781,7.7616,7.731,7.753,7.7928,7.829,7.8504,7.8212,7.7871,7.8014,7.8712,7.9288,7.8293,7.9311,8.0689,8.0126,8.0223,8.057,8.1037,8.0308,7.9428,7.9242,7.9354,7.9502,7.9502,7.9799,8.0208,8.0617,8.1063,8.1483,8.1895,8.2556,8.3179,8.3528,8.2302,8.1237,8.1013,8.017,7.9498,7.9307,7.9967,8.0535,8.0848,8.2414,8.3463,8.3739,8.4079,8.4256,8.4256,8.4446,8.456,8.456,8.4787,8.5204,8.581,8.6227,8.6644,8.7099,8.7359,8.7551,7.4809,7.5723,7.638,7.8566,7.801,7.6913,7.6912,7.5043,7.2519,6.996,6.8235,6.6564,6.4558,6.5464,6.6773,6.7697,6.9816,7.1403,7.1798,7.2899,7.3046,7.1358,7.1872,7.2532,7.2973,7.2936,7.345,7.4808,7.4478,7.4588,7.5395,7.5432,7.5065,7.4258,7.4661,7.4918,7.4918,7.6166,7.657,7.6093,7.6937,7.7273,7.7273,7.7273,7.7273,7.7304,7.7584,7.7673,7.774,7.8256,7.8338,7.8226,7.8534,7.8339,7.7892,7.7892,7.8185,7.862,7.8713,7.8762,7.8802,7.9002,7.948,7.9805,7.9142,7.9631,8.0415,8.0604,8.048,8.0556,8.1459,8.0873,8.0022,8.0022,8.0022,8.0134,8.0505,8.0654,8.0802,8.1174,8.1954,8.257,8.2742,8.3219,8.3602,8.3657,8.2509,8.1754,8.2016,8.0684,7.9809,8.0013,8.0765,8.1371,8.1541,8.2937,8.3918,8.4205,8.4516,8.4746,8.4878,8.4901,8.4901,8.4901,8.5242,8.5659,8.6114,8.6834,8.7289,8.7402,8.7402,8.7245,7.6679,7.6919,7.6911,7.8223,7.6579,7.45,7.3975,7.1602,6.8771,6.6391,6.494,6.3503,6.163,6.3392,6.5448,6.6366,6.9119,7.1468,7.2386,7.3266,7.356,7.2753,7.3377,7.3854,7.3854,7.4478,7.4918,7.4918,7.4918,7.5175,7.5763,7.5763,7.5506,7.4918,7.4918,7.5028,7.5249,7.5909,7.6276,7.6276,7.6974,7.7273,7.7273,7.7273,7.7273,7.7304,7.7636,7.782,7.7857,7.88,7.9105,7.9106,7.9547,7.9357,7.8767,7.8657,7.8767,7.8919,7.8919,7.9527,8.0308,8.0392,8.0548,8.0556,8.0288,8.0265,8.0456,8.1008,8.077,8.0584,8.1585,8.1355,8.0877,8.0877,8.0877,8.1063,8.1843,8.1545,8.1434,8.2288,8.2957,8.3366,8.3366,8.3487,8.3498,8.3239,8.2705,8.2566,8.3127,8.1211,8.0097,8.0802,8.162,8.2103,8.1991,8.2985,8.3712,8.3971,8.4368,8.4716,8.5029,8.5166,8.5242,8.5242,8.5924,8.6341,8.6455,8.7781,8.8198,8.7705,8.763,8.7213,7.5532,7.5542,7.5338,7.6792,7.5465,7.3876,7.408,7.1341,6.7954,6.504,6.4273,6.3172,6.0162,6.2181,6.4787,6.6256,6.8641,7.0807,7.2275,7.378,7.4404,7.3597,7.4221,7.4698,7.4698,7.4845,7.4918,7.4918,7.4918,7.4661,7.4147,7.4111,7.4368,7.4882,7.4918,7.5542,7.687,7.7017,7.709,7.709,7.7237,7.7273,7.7273,7.7273,7.7273,7.7304,7.7636,7.782,7.785,7.8285,7.8795,7.9208,7.8586,7.8899,7.9688,7.9026,7.9559,8.0571,8.0571,8.1154,8.1627,8.0456,8.0647,8.1145,8.0297,8.0487,8.1045,8.1034,8.115,8.1471,8.232,8.2156,8.1768,8.1768,8.1768,8.1806,8.1954,8.292,8.3997,8.4815,8.4555,8.4183,8.4183,8.3685,8.3239,8.321,8.257,8.2309,8.3098,8.2214,8.162,8.1731,8.2474,8.2697,8.2066,8.2985,8.3712,8.3971,8.4933,8.5585,8.5863,8.6568,8.6985,8.6985,8.7099,8.7516,8.816,8.7781,8.8236,8.9373,8.8691,8.8691,7.5948,7.576,7.5359,7.6707,7.461,7.2138,7.205,6.8944,6.5364,6.2806,6.2561,6.1924,5.9098,6.1594,6.42,6.453,6.6623,6.8935,7.0954,7.1908,7.2716,7.3597,7.4404,7.5065,7.5469,7.5909,7.6136,7.6136,7.5763,7.5175,7.4368,7.3927,7.3891,7.4258,7.4698,7.5469,7.668,7.709,7.7273,7.7273,7.7273,7.7273,7.7273,7.7273,7.7372,7.7463,7.7703,7.81,7.8631,7.9269,7.9937,8.0496,8.0089,8.0207,8.0529,7.9719,8.0105,8.0938,8.0534,8.1158,8.2003,8.0887,8.0903,8.1323,8.1266,8.0903,8.0725,8.1411,8.1497,8.1538,8.2443,8.2584,8.2497,8.2623,8.2861,8.3069,8.2978,8.3941,8.4756,8.4719,8.4447,8.41,8.3692,8.3381,8.3329,8.3737,8.3143,8.292,8.37,8.3477,8.3069,8.266,8.2957,8.3032,8.266,8.3103,8.3489,8.3794,8.4877,8.5612,8.5861,8.6876,8.7402,8.7402,8.7819,8.8198,8.8615,8.8615,8.907,8.979,8.8956,8.8805,7.6683,7.6186,7.5653,7.6778,7.3793,7.0464,6.9907,6.658,6.3071,6.1224,6.125,6.0933,5.8657,6.1153,6.3392,6.2879,6.4751,6.7136,6.9743,7.0403,7.1394,7.345,7.4551,7.5359,7.5799,7.657,7.6943,7.6796,7.6056,7.5322,7.4698,7.3891,7.3523,7.367,7.4478,7.5285,7.6093,7.69,7.7273,7.7273,7.7273,7.7273,7.7273,7.7273,7.7402,7.756,7.7917,7.8507,7.9319,8.03,8.1116,8.1741,8.137,8.1377,8.1427,8.0284,8.0493,8.1218,8.0378,8.1039,8.2141,8.1452,8.1328,8.1534,8.2159,8.146,8.073,8.1852,8.1838,8.1666,8.2418,8.2752,8.2934,8.3121,8.3625,8.4102,8.4131,8.4801,8.5207,8.4764,8.4489,8.4102,8.3534,8.3284,8.3373,8.4035,8.3737,8.3663,8.4295,8.4406,8.422,8.3737,8.3552,8.3366,8.3217,8.318,8.3326,8.3574,8.4813,8.5696,8.5952,8.7171,8.7836,8.7836,8.8393,8.8696,8.8745,8.9199,8.9514,8.9525,8.888,8.8691,7.67,7.6126,7.5543,7.6081,7.301,6.9766,6.9301,6.593,6.2658,6.1874,6.1654,6.108,5.9404,6.0603,6.2034,6.2695,6.4273,6.6512,6.9669,7.1358,7.2642,7.3597,7.5065,7.5726,7.5065,7.5726,7.5909,7.5175,7.4368,7.3891,7.3817,7.3046,7.2936,7.367,7.4478,7.5285,7.6093,7.69,7.7273,7.7273,7.7273,7.7273,7.7273,7.7273,7.7341,7.7408,7.841,7.8928,7.9135,8.0242,8.1211,8.1843,8.032,8.0947,8.2466,8.0178,8.0718,8.2412,8.1408,8.1639,8.2343,8.2178,8.2109,8.2109,8.2219,8.2109,8.2035,8.215,8.2242,8.2297,8.237,8.2659,8.2867,8.2934,8.3534,8.425,8.487,8.5614,8.6389,8.7017,8.5983,8.5049,8.517,8.3904,8.3031,8.3292,8.3849,8.4295,8.4369,8.4406,8.4629,8.5298,8.474,8.3997,8.3254,8.318,8.3326,8.3574,8.5365,8.6523,8.6782,8.8355,8.9223,8.9223,8.906,8.9098,8.9336,8.8683,8.847,8.8729,8.8615,8.8994,7.6243,7.6392,7.6061,7.5744,7.2632,6.9514,6.8907,6.5312,6.2022,6.1837,6.1691,6.1117,5.9478,6.0126,6.097,6.13,6.152,6.2952,6.6696,6.688,6.8054,7.1835,7.2386,7.312,7.4735,7.5212,7.5028,7.4258,7.3891,7.3487,7.301,7.2679,7.3083,7.4368,7.4735,7.5542,7.6827,7.7127,7.7273,7.7273,7.7273,7.7273,7.7273,7.7273,7.7372,7.753,7.8064,7.8618,7.9253,8.0271,8.1211,8.1954,8.1806,8.2201,8.2756,8.183,8.1968,8.2585,8.1711,8.1839,8.2302,8.1792,8.1879,8.2186,8.2186,8.2186,8.2186,8.2186,8.2251,8.2316,8.2375,8.2597,8.2869,8.3218,8.3556,8.4004,8.4621,8.5397,8.5983,8.5799,8.5312,8.464,8.3741,8.3226,8.3082,8.3662,8.4123,8.4406,8.4406,8.4815,8.5038,8.4889,8.4146,8.3737,8.3886,8.3477,8.3462,8.4025,8.5142,8.6068,8.6625,8.795,8.8669,8.8669,8.8893,8.9129,8.9423,8.9084,8.9062,8.9335,8.9335,8.9487,7.5143,7.5556,7.5386,7.5152,7.1788,6.8414,6.7971,6.4438,6.1275,6.1432,6.136,6.0823,5.9441,5.9869,6.0419,6.0419,6.0346,6.1423,6.4824,6.4494,6.5485,6.9743,7.0146,7.1064,7.3597,7.4478,7.4478,7.3413,7.356,7.334,7.2532,7.2496,7.301,7.4147,7.4441,7.5102,7.624,7.6717,7.6974,7.6974,7.7163,7.7273,7.7273,7.7273,7.7549,7.7928,7.8064,7.8633,7.9446,8.0208,8.0851,8.1452,8.182,8.2251,8.2594,8.2184,8.2375,8.2708,8.1864,8.1994,8.2423,8.1776,8.1865,8.2251,8.2219,8.2186,8.2186,8.2186,8.2186,8.2219,8.2375,8.2687,8.305,8.3507,8.377,8.4073,8.4496,8.5049,8.5343,8.5013,8.4856,8.4404,8.3296,8.3113,8.3337,8.3954,8.4218,8.4495,8.5014,8.5379,8.5558,8.5483,8.4518,8.4035,8.4369,8.3663,8.3514,8.4332,8.5115,8.5917,8.6677,8.7534,8.8055,8.8281,8.8317,8.8645,8.9291,8.9291,8.9324,8.9449,8.9676,8.9676,7.3234,7.3141,7.3039,7.415,7.0201,6.6043,6.6181,6.3192,6.0467,6.0585,6.0515,6.0162,5.9331,5.9869,6.0419,6.0419,6.1741,6.3356,6.5081,6.5962,6.6769,6.7614,6.9119,7.044,7.1284,7.3523,7.4258,7.2642,7.323,7.334,7.2532,7.2496,7.2496,7.2532,7.3303,7.3707,7.3744,7.5322,7.613,7.613,7.6937,7.7273,7.7273,7.7273,7.7781,7.862,7.8853,7.9173,7.9499,7.9847,8.0039,7.9977,7.9365,8.0331,8.1822,8.0425,8.1316,8.3039,8.2038,8.22,8.2843,8.2502,8.2407,8.2375,8.2251,8.2186,8.2186,8.2186,8.2186,8.2219,8.2375,8.2996,8.3586,8.3586,8.4212,8.4735,8.4642,8.4609,8.4866,8.5637,8.5159,8.4639,8.4768,8.4138,8.365,8.3846,8.4071,8.4787,8.6386,8.6023,8.6226,8.7898,8.6561,8.5261,8.448,8.3663,8.3514,8.4332,8.5446,8.6441,8.7263,8.73,8.7674,8.8495,8.7413,8.7526,8.8992,8.8992,8.8877,8.8615,8.9449,8.9373,6.8345,6.8706,6.8539,6.7271,6.5624,6.4166,6.3636,6.2311,6.1251,6.1299,6.1251,6.097,6.0162,6.0676,6.141,6.1961,6.245,6.3209,6.431,6.5191,6.6182,6.754,7.0073,7.1835,7.2092,7.2826,7.3046,7.2532,7.2753,7.2789,7.2496,7.2496,7.2636,7.2978,7.3234,7.3599,7.4178,7.4893,7.5498,7.613,7.6559,7.6961,7.7273,7.7273,7.742,7.7708,7.7671,7.7688,7.7861,7.8958,7.9397,7.9475,8.0406,8.1124,8.1672,8.1613,8.206,8.2653,8.2735,8.2772,8.2867,8.2782,8.2597,8.2375,8.2343,8.2284,8.2186,8.2186,8.2186,8.2333,8.2949,8.2839,8.2798,8.3317,8.3243,8.317,8.3654,8.3801,8.4022,8.4829,8.4756,8.4609,8.4676,8.4518,8.4432,8.4534,8.4791,8.5201,8.5719,8.5689,8.6004,8.7081,8.6226,8.5706,8.6004,8.5298,8.5186,8.6004,8.6042,8.6412,8.7271,8.7308,8.742,8.7682,8.7681,8.8123,8.8992,8.8992,8.9141,8.9449,8.9676,8.907,6.4429,6.4995,6.493,6.3811,6.2828,6.199,6.1517,6.1042,6.0529,5.9905,6.0015,6.0089,5.9575,6.0162,6.097,6.1777,6.2401,6.2989,6.3539,6.4604,6.6035,6.7907,7.0477,7.2055,7.2055,7.2312,7.2496,7.2496,7.2496,7.2496,7.2496,7.238,7.2393,7.2533,7.2692,7.2911,7.3297,7.4066,7.474,7.5286,7.619,7.67,7.6929,7.7056,7.7353,7.781,7.7413,7.7502,0.0,7.8543,7.8799,7.8908,8.0006,8.0689,8.1068,8.124,8.1622,8.2109,8.2351,8.2554,8.2752,8.2874,8.269,8.2407,8.2407,8.2316,8.2186,8.2186,8.2186,8.2333,8.281,8.281,8.2774,8.3287,8.3251,8.3177,8.3361,8.3688,8.4088,8.4499,8.4933,8.5117,8.5049,8.515,8.518,8.518,8.4995,8.515,8.601,8.546,8.5547,8.6894,8.64,8.6283,8.7099,8.6196,8.5929,8.6747,8.6482,8.6684,8.7578,8.728,8.7243,8.7578,8.7619,8.8025,8.8823,8.9047,8.9699,9.0738,8.979,8.8653,0.0,6.1802,6.1877,6.2682,6.1251,5.9684,5.9721,5.9505,0.0,5.7299,5.7629,5.818,5.818,5.8804,5.9588,6.0529,6.1924,6.289,6.289,6.4383,6.6402,6.8935,7.0513,7.1403,7.1439,7.2092,7.2496,7.2496,7.2496,7.2496,7.2496,7.2197,7.1866,7.1494,7.1805,7.1805,7.1463,7.2991,7.3856,7.3921,7.581,7.6541,7.6309,7.6607,7.7447,7.8557,7.7933,7.8199,7.9106,7.8531,7.8314,7.8279,7.8592,7.9323,8.0208,7.9682,8.033,8.143,8.1296,8.1745,8.2439,8.2752,8.2696,8.2449,8.2385,8.2288,8.2154,8.2186,8.2154,8.2154,8.226,8.2847,8.3434,8.3471,8.4058,8.4389,8.3654,8.4228,8.4809,8.4749,8.5441,8.6023,8.5962,8.5857,8.5894,8.5894,8.4907,8.4922,8.7044,8.5498,8.5101,8.7271,8.6957,8.6905,8.772,8.658,8.6078,8.6858,8.6895,8.7267,8.8158,8.7341,8.7304,8.8158,8.7403,8.7481,8.8562,8.9119,9.0372,9.2064,8.9728,8.825,5.7442,0.0,5.7559,5.6712,5.7038,5.7697,0.0,5.9307,5.9832,5.8817,5.9281,5.9832,5.9832,5.9979,6.0786,6.2879,6.3539,6.3796,6.3796,6.5705,6.8495,7.2129,7.2349,7.2459,7.3083,7.2753,7.2496,7.2496,7.2496,7.2496,7.2496,7.2438,7.2108,7.1526,7.1557,7.1463,7.111,7.2256,7.325,7.4151,7.5209,7.5898,7.6239,7.6376,7.6782,7.7446,7.7196,7.7235,7.7524,7.8272,7.8269,7.7767,7.8441,7.9234,7.9963,7.9612,8.0117,8.0947,8.1287,8.1864,8.2407,8.2307,8.2647,8.2931,8.2246,8.1775,8.1579,8.2088,8.1852,8.1759,8.2858,8.3287,8.3581,8.4168,8.4462,8.4535,8.4352,8.4496,8.4893,8.5585,8.5809,8.6106,8.6832,8.6841,8.6738,8.6738,8.6611,8.6675,8.7231,8.6398,8.6232,8.7349,8.6957,8.6942,8.772,8.7619,8.7601,8.7787,8.7787,8.8158,8.8976,8.8233,8.8158,8.9013,8.8645,8.8598,8.8879,8.9438,8.9944,9.0359,8.9566,8.8911,5.6147,5.6201,5.6244,5.5654,5.6418,5.7446,5.7886,5.8657,5.9061,5.8253,5.8143,5.8547,5.9648,5.9245,5.9795,6.2989,6.3172,6.3613,6.5485,6.8128,7.0697,7.2899,7.3083,7.3083,7.312,7.2753,7.2496,7.2496,7.2496,7.2496,7.2496,7.2409,7.2108,7.1526,7.1399,7.1323,7.1185,7.1835,7.2582,7.342,7.4542,7.5081,7.5221,7.6151,7.6838,7.7272,7.7629,7.7914,7.8344,7.8977,7.9007,7.865,7.9079,7.9507,7.9831,7.9315,7.9642,8.0363,8.0513,8.1214,8.1945,8.1846,8.2327,8.2851,8.2323,8.1997,8.1852,8.185,8.1416,8.1056,8.1847,8.2492,8.2991,8.3064,8.4147,8.4939,8.4205,8.5037,8.5979,8.6089,8.6451,8.6852,8.7328,8.7301,8.7344,8.7783,8.7328,8.7243,8.7881,8.6656,8.6172,8.7287,8.6828,8.6925,8.8178,8.8515,8.8493,8.8121,8.8021,8.8144,8.8589,8.8181,8.8207,8.8753,8.9011,8.9269,8.9555,8.9469,8.9716,9.0196,8.9275,8.8593,5.6475,5.677,5.7083,5.6864,5.7409,5.7997,5.7997,5.7997,5.7813,5.7116,5.6455,5.6638,5.8781,5.8084,5.84,6.2193,6.2548,6.3723,6.7687,7.0477,7.2275,7.2642,7.3083,7.3156,7.2716,7.2459,7.2386,7.2496,7.2496,7.2496,7.2524,7.2285,7.1951,7.1526,7.1304,7.1239,7.141,7.1587,7.1943,7.2442,7.3723,7.4224,7.4047,7.5693,7.6839,7.7506,7.8222,7.8972,7.9721,7.9864,7.9828,7.9721,7.9721,7.9792,7.9792,7.9007,7.9221,7.987,7.9719,8.0439,8.1368,8.1368,8.1846,8.2431,8.2432,8.2313,8.2135,8.1642,8.104,8.0541,8.0761,8.1744,8.2538,8.1957,8.3977,8.5637,8.4425,8.5872,8.7251,8.6635,8.7165,8.7697,8.7563,8.753,8.7793,8.8675,8.7628,8.729,8.8786,8.6906,8.5992,8.7338,8.6915,8.7161,8.8675,8.9118,8.9013,8.8307,8.8255,8.8159,8.7979,8.8206,8.8271,8.8238,8.905,8.9801,9.0324,8.9564,8.9694,9.0589,8.8979,8.8205,5.7946,5.9381,5.9882,5.7414,5.7409,5.7997,5.7997,5.7997,5.796,5.785,5.7703,5.796,5.9001,5.9001,5.9698,6.234,6.4457,6.6916,7.0293,7.0587,7.1211,7.3266,7.2422,7.2165,7.3377,7.2275,7.1798,7.2459,7.2496,7.2553,7.2667,7.2255,7.1927,7.1713,7.1272,7.1141,7.141,7.1587,7.1833,7.2078,7.276,7.3404,7.4011,7.4297,7.5473,7.7243,7.7576,7.8115,7.8936,7.9614,7.9507,7.8864,7.8864,7.9293,7.9792,7.9007,7.9221,7.9941,8.0403,8.0659,8.084,8.084,8.1346,8.1956,8.1988,8.1529,8.1088,8.146,8.1235,8.1165,8.2348,8.312,8.3664,8.421,8.5622,8.6921,8.7362,8.725,8.735,8.821,8.7807,8.7472,8.7697,8.7595,8.7793,8.8675,8.7973,8.7936,8.9599,8.8236,8.7431,8.8222,8.7863,8.7882,8.8712,8.9118,8.9236,8.9124,8.9724,8.9697,8.8868,8.9999,9.0106,8.89,8.9931,9.0628,9.0872,9.0313,9.0109,9.0249,8.9019,8.8944,5.7134,5.8446,5.9139,5.779,5.9024,6.0382,5.9501,5.8951,5.8657,5.8657,5.796,5.785,5.9538,5.9478,6.0285,6.3613,6.6219,6.8311,6.9816,7.044,7.0991,7.1651,7.1505,7.1431,7.1725,7.1101,7.1019,7.1875,7.1948,7.2217,7.2835,7.2459,7.2041,7.1707,7.13,7.1027,7.0911,7.1015,7.1264,7.1692,7.2441,7.2976,7.3405,7.4689,7.6043,7.7357,7.7934,7.8579,7.9364,7.9757,7.9685,7.9364,7.9364,7.9578,7.9864,7.9471,7.9578,7.9938,8.0171,8.0285,8.0285,8.0285,8.0823,8.1535,8.1929,8.1773,8.1667,8.2369,8.1328,8.0341,8.164,8.2677,8.352,8.4137,8.5658,8.6995,8.6921,8.7027,8.7344,8.7981,8.7793,8.7632,8.7927,8.7895,8.8271,8.953,8.9012,8.9086,9.0716,8.9802,8.8959,8.8786,8.8893,8.9181,8.9584,8.9716,8.9628,8.9182,8.9108,8.8822,8.8387,8.9777,9.0039,8.9016,9.0402,9.1041,9.0845,9.0715,9.0646,9.0646,9.0087,9.0034,5.6231,5.7235,5.7997,5.7997,5.9979,6.1606,6.0419,5.9625,5.9258,5.9441,5.8487,5.8143,5.9832,5.9942,6.1043,6.4971,6.7467,6.8972,6.9155,7.0403,7.1027,7.0183,7.0477,7.0587,7.0146,6.9926,7.0275,7.1379,7.148,7.1867,7.277,7.2459,7.2041,7.1583,7.1204,7.0847,7.0514,7.0514,7.0731,7.1197,7.2121,7.262,7.2869,7.4903,7.6438,7.7544,7.8151,7.8972,7.9899,7.9899,7.9899,7.9899,7.9899,7.9899,7.9899,7.9899,7.9899,7.9899,7.9899,7.9899,7.9899,7.9899,8.0328,8.097,8.1719,8.1684,8.1577,8.2576,8.1017,7.9436,8.097,8.2229,8.3262,8.381,8.5695,8.7178,8.6738,8.7098,8.7599,8.8018,8.7891,8.7868,8.8313,8.8381,8.8938,9.0536,9.009,9.0164,9.1799,9.0852,8.9938,8.9609,8.9732,8.9954,9.0341,9.0119,8.9748,8.9118,8.8609,8.8275,8.809,8.9518,8.9965,8.9247,9.0839,9.1561,9.1152,9.1124,9.1224,9.1473,9.1286,9.1162,5.6359,5.735,5.7997,5.7997,5.8731,5.9404,5.9294,5.9221,5.9404,6.0162,6.0236,5.9979,5.9368,6.0456,6.2511,6.5852,6.7797,6.9155,6.9926,7.077,7.1027,7.0183,6.9486,6.9339,7.0036,6.9412,6.9633,7.1211,7.1425,7.1728,7.2212,7.1921,7.1583,7.1236,7.0781,7.0513,7.0514,7.0514,7.0514,7.0551,7.1406,7.212,7.2834,7.3761,7.5403,7.7508,7.7544,7.8472,7.9899,7.9899,7.9899,7.9899,7.9899,7.9899,7.9899,7.9899,7.9899,7.9899,7.9899,7.9899,7.9899,7.9899,7.9935,8.0149,8.0934,8.0149,7.9257,8.0827,8.0042,7.9331,8.178,8.274,8.3407,8.4537,8.6499,8.8316,8.9014,8.861,8.8492,8.9609,8.8568,8.7887,8.9024,8.9198,8.9756,9.1353,9.0945,9.1019,9.2691,9.0833,8.9878,9.1198,9.0147,8.965,9.0392,8.983,8.9347,8.931,8.9744,8.9683,8.8942,9.0332,9.0747,8.9935,9.152,9.2436,9.2532,9.1824,9.1928,9.2835,9.2017,9.2092,5.5023,5.5904,5.6638,5.7116,5.7932,5.8823,5.9722,6.0417,6.0906,6.1104,6.1226,6.114,6.0774,6.1594,6.3099,6.5375,6.6696,6.7687,6.8495,6.9302,6.9522,6.8678,6.8788,6.8825,6.8605,6.8311,6.8686,6.9979,7.0303,7.0816,7.1671,7.1508,7.1332,7.1204,7.075,7.0514,7.0514,7.0514,7.0764,7.1264,7.2013,7.2869,7.3761,7.444,7.5583,7.7016,7.7369,7.8115,7.9186,7.9685,7.9899,7.9899,7.9899,7.9899,7.9899,7.9899,7.9899,7.9899,7.9899,7.9899,7.9899,7.9899,7.9899,8.0042,8.0863,8.0328,7.9685,8.0791,8.0649,8.0665,8.2716,8.3299,8.3846,8.591,8.6925,8.7545,8.7839,8.7762,8.7786,8.835,8.8039,8.8021,8.913,8.931,8.983,9.1465,9.1428,9.165,9.2839,9.2171,9.1395,9.0922,8.9947,8.939,8.9558,8.9395,8.9087,8.8567,8.8764,8.8992,8.9177,9.0091,9.0627,9.0747,9.1819,9.2409,9.2303,9.2286,9.2421,9.2785,9.2621,9.2691,5.4252,5.4803,5.5464,5.6565,5.711,5.7927,5.9966,6.0919,6.1616,6.2316,6.2107,6.1837,6.1949,6.2034,6.2585,6.4237,6.5411,6.6329,6.6843,6.7834,6.8238,6.7393,6.8017,6.8311,6.7724,6.7741,6.8178,6.9136,6.9394,6.9851,7.0714,7.081,7.0778,7.0584,7.0609,7.0582,7.0582,7.0582,7.0975,7.1761,7.2476,7.3297,7.419,7.4369,7.5226,7.6623,7.6726,7.7366,7.8365,7.9186,7.9685,7.9899,7.9899,7.9899,7.9899,7.9899,7.9899,7.9899,7.9899,8.0015,8.0133,8.0133,8.0133,8.0278,8.0816,8.0304,7.9685,8.0506,8.0542,8.0885,8.3194,8.3883,8.45,8.6733,8.7387,8.7468,8.7399,8.7537,8.774,8.787,8.785,8.8117,8.913,8.9496,9.0127,9.1502,9.1948,9.2319,9.2914,9.2765,9.2059,9.0647,9.0016,8.9538,8.915,8.8987,8.8678,8.8121,8.8344,8.8716,8.9273,8.9924,9.0609,9.1293,9.1779,9.2081,9.2198,9.2479,9.2764,9.3091,9.3553,9.3619,5.4399,5.4399,5.4803,5.6418,5.6198,5.6455,5.9685,6.0515,6.1308,6.38,6.2953,6.2021,6.2683,6.1484,6.0933,6.2523,6.42,6.5301,6.5301,6.6659,6.7357,6.6586,6.7173,6.7687,6.7687,6.782,6.8231,6.9041,6.8907,6.8925,6.9266,6.973,6.9757,6.9301,7.0255,7.0785,7.0785,7.0785,7.1179,7.1932,7.2511,7.3226,7.4011,7.3191,7.4118,7.6331,7.5546,7.6081,7.7544,7.8365,7.915,7.9899,7.9899,7.9899,7.9899,7.9899,7.9899,7.9899,7.9899,8.0285,8.0695,8.0695,8.0695,8.0695,8.0695,7.9749,7.8864,7.9685,7.9328,7.9526,8.3082,8.4462,8.53,8.6914,8.7894,8.8449,8.8204,8.8345,8.8551,8.8756,8.8257,8.8154,8.913,8.9979,9.0796,9.1576,9.2431,9.2988,9.2988,9.2245,9.139,9.061,9.0499,9.0164,8.9384,8.8567,8.8121,8.8121,8.8864,8.931,8.931,9.0053,9.081,9.1461,9.1293,9.1597,9.2373,9.2409,9.292,9.3906,9.4892,9.4957,5.4546,5.4803,5.5611,5.7226,5.7955,5.8773,6.0774,6.0919,6.1171,6.3147,6.3038,6.2523,6.2181,6.163,6.141,6.1887,6.3356,6.4457,6.4457,6.5338,6.6145,6.6476,6.6696,6.7063,6.7677,6.782,6.8025,6.8388,6.833,6.8536,6.9036,6.8934,6.8906,6.8966,6.9597,6.9895,6.9761,7.0297,7.0975,7.1725,7.1369,7.2261,7.419,7.4404,7.494,7.58,7.5976,7.6295,7.683,7.8151,7.8508,7.8329,7.9471,7.9543,7.9114,7.9685,7.9899,7.9899,7.9899,8.0285,8.0695,8.0695,8.0984,8.1195,8.084,8.0405,8.0075,7.9944,8.0149,8.0959,8.3373,8.4569,8.5549,8.7251,8.7619,8.7636,8.7568,8.7602,8.7703,8.787,8.8294,8.8784,8.9204,9.0424,9.1428,9.165,9.2431,9.2988,9.2988,9.2245,9.1613,9.1353,9.0833,9.0387,9.0164,8.9942,8.9793,8.9793,9.0536,9.0462,8.9347,9.0053,9.0513,9.0572,9.1098,9.1407,9.1352,9.2045,9.2555,9.2883,9.3313,9.3449,5.5868,5.6418,5.7336,5.8621,5.9145,5.9632,6.0847,6.1605,6.2387,6.3394,6.332,6.2927,6.2376,6.1936,6.1667,6.1618,6.2732,6.3576,6.3576,6.431,6.5007,6.5485,6.5815,6.6219,6.6696,6.7211,6.7436,6.7358,6.7735,6.798,6.8008,6.8078,6.8219,6.8507,6.9203,6.968,6.9902,7.0366,7.0867,7.1331,7.1084,7.1797,7.3296,7.3654,7.4226,7.4941,7.5618,7.6117,7.6474,7.7401,7.7865,7.8079,7.9043,7.9114,7.8793,7.9614,7.9721,7.9471,7.9792,8.0399,8.1018,8.1018,8.1368,8.1745,8.116,8.0876,8.0585,8.0018,8.0256,8.1138,8.341,8.4349,8.5252,8.7304,8.7567,8.7368,8.7338,8.7526,8.7707,8.7439,8.852,8.9419,8.922,9.0578,9.1688,9.1688,9.2431,9.2988,9.2988,9.2542,9.2096,9.1725,9.1279,9.0833,9.0536,9.0137,8.9952,9.0016,9.0397,9.0249,8.9347,9.0053,9.0583,9.0782,9.1272,9.1512,9.1497,9.2746,9.2965,9.2305,9.3248,9.3347,5.7813,5.8547,5.9294,6.0272,5.9992,5.9698,6.0382,6.2353,6.4033,6.3923,6.3505,6.3134,6.294,6.2303,6.1776,6.1728,6.2328,6.2805,6.2805,6.3466,6.4016,6.409,6.4751,6.5228,6.5301,6.6194,6.66,6.6252,6.7063,6.7314,6.6595,6.7131,6.7635,6.7936,6.8857,6.9711,7.043,7.0573,7.0644,7.068,7.1261,7.1585,7.1585,7.1727,7.262,7.4011,7.4868,7.5617,7.6295,7.6367,7.7187,7.8401,7.8615,7.865,7.8686,7.9578,7.9435,7.89,7.965,8.0584,8.1437,8.1472,8.1912,8.2311,8.1675,8.116,8.0658,8.0056,7.9899,8.0491,8.312,8.3841,8.4524,8.6943,8.7447,8.739,8.7335,8.782,8.8115,8.7526,8.8901,8.9947,8.9239,9.0592,9.1836,9.1836,9.2468,9.2988,9.2988,9.2988,9.2691,9.191,9.1836,9.1539,9.0796,8.9892,8.9447,8.9644,8.9447,8.941,8.9496,9.0164,9.087,9.1688,9.1635,9.1875,9.2409,9.3961,9.3854,9.2239,9.3994,9.4027,5.796,5.8143,5.8767,6.0823,6.1704,6.1924,6.1447,6.1765,6.2083,6.161,6.2324,6.2891,6.2311,6.2006,6.196,6.2438,6.2769,6.2929,6.2805,6.2989,6.3319,6.4016,6.4237,6.4604,6.5264,6.5602,6.5908,6.6189,6.6172,6.6389,6.6959,6.659,6.6495,6.6829,6.7402,6.7748,6.7832,6.9046,6.962,6.962,7.0371,7.0764,7.08,7.2013,7.3083,7.4011,7.4868,7.5296,7.551,7.6152,7.6224,7.6152,7.7972,7.8294,7.7937,7.9364,7.9792,7.9685,7.9864,8.0324,8.0912,8.1368,8.1912,8.2311,8.1675,8.1403,8.1124,8.0171,7.9899,8.0307,8.1923,8.283,8.3629,8.5073,8.6029,8.6722,8.7354,8.69,8.673,8.8004,8.924,9.0032,8.9947,9.1515,9.2728,9.2728,9.2876,9.2988,9.2988,9.2988,9.2914,9.2728,9.2728,9.2653,9.2468,9.2249,9.2175,9.2208,9.2175,9.1841,9.1205,9.0722,9.087,9.1688,9.2323,9.2603,9.2409,9.337,9.3559,9.3049,9.2826,9.3301,5.8951,5.9428,6.0126,6.1777,6.2511,6.2622,6.1851,6.1691,6.1432,6.047,6.1495,6.2335,6.1638,6.2073,6.2409,6.1934,6.2487,6.2831,6.239,6.261,6.2989,6.3429,6.3466,6.3599,6.3873,6.438,6.4642,6.4528,6.5339,6.5836,6.5892,6.6109,6.6382,6.6715,6.6956,6.7221,6.7517,6.873,6.9267,6.9337,6.9729,6.9943,7.0015,7.1906,7.3262,7.4011,7.4868,7.5225,7.5225,7.5653,7.5796,7.5938,7.7508,7.7865,7.7687,7.9328,7.965,7.9364,7.9792,8.0285,8.0768,8.1018,8.1472,8.1846,8.1264,8.1124,8.0948,8.0133,7.9899,8.0233,8.1558,8.2212,8.3012,8.4936,8.5979,8.6635,8.6874,8.7003,8.7316,8.8162,8.9543,9.0597,9.0698,9.1969,9.2988,9.2988,9.2988,9.2988,9.2988,9.2988,9.2988,9.2988,9.2988,9.2988,9.2988,9.2451,9.2195,9.2262,9.1758,9.1465,9.1594,9.1186,9.1367,9.2282,9.2765,9.3007,9.2963,9.3776,9.3856,9.3198,9.3234,9.3712,5.9795,6.097,6.1961,6.2658,6.2915,6.2757,6.1789,6.1579,6.1171,5.9775,6.0603,6.1468,6.1063,6.1974,6.2373,6.12,6.1942,6.2424,6.1677,6.2206,6.2646,6.2622,6.2732,6.2679,6.2433,6.3085,6.3311,6.2731,6.4359,6.5142,6.4622,6.5464,6.6177,6.6764,6.666,6.6946,6.7695,6.8516,6.898,6.9122,6.9372,6.941,6.9408,7.1727,7.3155,7.3869,7.469,7.5118,7.5189,7.5083,7.5511,7.6259,7.7152,7.7508,7.7687,7.9328,7.9471,7.9007,7.9685,8.0209,8.0548,8.0658,8.0983,8.1264,8.084,8.0587,8.0405,7.9982,7.9792,7.998,8.1229,8.1666,8.2395,8.4874,8.6038,8.6589,8.6578,8.7361,8.8154,8.8492,9.0133,9.1481,9.1515,9.2343,9.2988,9.2988,9.2988,9.2988,9.2988,9.2988,9.2988,9.2988,9.2988,9.2988,9.2988,9.2057,9.1515,9.172,9.075,9.0642,9.1683,9.172,9.2191,9.3174,9.3178,9.3307,9.3591,9.4368,9.4263,9.3345,9.4081,9.4485,5.9134,6.0946,6.2695,6.2743,6.3356,6.3319,6.1104,6.0662,6.0337,5.8873,5.9302,6.0137,6.0878,6.0604,6.0633,6.168,6.1527,6.1158,6.0816,6.1432,6.1899,6.1765,6.2401,6.2679,6.2433,6.2506,6.2621,6.2695,6.2867,6.3436,6.4555,6.3993,6.4349,6.5911,6.5304,6.5304,6.6089,6.691,6.7624,6.8266,6.9658,6.9979,6.9408,7.1727,7.2869,7.3012,7.4011,7.4726,7.5153,7.4655,7.4798,7.551,7.6937,7.7508,7.7687,7.9328,7.9828,7.9757,7.9864,7.9938,8.0056,8.0548,8.0768,8.0804,8.0731,8.019,7.9684,7.9839,7.94,7.9081,7.9944,8.0659,8.1578,8.2898,8.4346,8.5834,8.7304,8.6984,8.708,8.9317,9.1256,9.2569,9.274,9.2881,9.2988,9.2988,9.2988,9.2988,9.2988,9.2988,9.2988,9.2988,9.2988,9.2988,9.2988,9.271,9.2502,9.2535,9.222,9.2183,9.2535,9.2535,9.3007,9.4028,9.3894,9.3726,9.3591,9.4262,9.4448,9.4153,9.4263,9.4704,5.8964,6.0639,6.2144,6.2144,6.2768,6.2867,6.0932,6.0562,6.0176,5.8754,5.8739,5.9116,5.9631,6.0172,6.0506,6.0218,6.0641,6.0759,6.0135,6.0692,6.1261,6.1545,6.1924,6.2091,6.2005,6.2105,6.2031,6.167,6.2075,6.2683,6.327,6.3315,6.3886,6.509,6.4804,6.4983,6.5804,6.6589,6.7374,6.8088,6.9265,6.9658,6.9372,7.1299,7.2405,7.2834,7.3726,7.4547,7.5153,7.4404,7.4547,7.5332,7.6438,7.7152,7.7651,7.8793,7.9507,7.9971,8.0435,8.0292,8.001,8.0672,8.0643,8.0285,8.0285,7.9996,7.9743,7.987,7.965,7.9435,7.9828,8.0185,8.0816,8.2428,8.3692,8.503,8.6841,8.7137,8.7674,8.9773,9.1539,9.2751,9.2955,9.2988,9.2988,9.2988,9.2988,9.2988,9.2988,9.2988,9.2988,9.2988,9.2988,9.2955,9.2855,9.265,9.2479,9.2375,9.2162,9.2198,9.2513,9.2547,9.2869,9.3508,9.3341,9.3544,9.4293,9.4005,9.4007,9.4299,9.4299,9.4483,5.8437,5.9905,6.1263,6.1043,6.1741,6.2096,6.0588,6.0291,5.9955,5.8739,5.8656,5.8847,5.8974,5.985,6.0221,5.9181,5.9801,6.0159,5.9413,5.9891,6.0512,6.0957,6.1337,6.159,6.1571,6.1806,6.1664,6.1022,6.1538,6.1966,6.221,6.2745,6.3463,6.4464,6.4563,6.4951,6.574,6.6589,6.716,6.7517,6.8516,6.9015,6.9051,7.0871,7.2084,7.2834,7.369,7.4404,7.4868,7.4297,7.4511,7.5296,7.6295,7.7009,7.7615,7.8615,7.9364,8.0006,8.0577,8.0399,8.0042,8.0827,8.0577,7.9935,8.0149,7.9935,7.965,7.9864,7.9757,7.965,7.9864,7.9899,8.0386,8.2319,8.34,8.4589,8.6608,8.7661,8.8562,8.972,9.1309,9.2488,9.2621,9.2839,9.2988,9.2988,9.2988,9.2988,9.2988,9.2988,9.2988,9.2988,9.2988,9.2922,9.2717,9.2513,9.2303,9.2091,9.1912,9.1984,9.2373,9.2409,9.2582,9.2988,9.294,9.34,9.4408,9.3894,9.3823,9.4188,9.4299,9.4189,5.6932,5.8657,6.0272,5.9515,6.0493,6.1227,5.9648,5.9375,5.9255,5.8556,5.9131,5.9758,5.9828,5.9292,5.9069,5.9738,5.9234,5.8762,5.8511,5.9169,5.9559,5.9341,6.0676,6.1495,6.1266,6.1525,6.1628,6.1458,6.0974,6.1091,6.1991,6.2062,6.271,6.4076,6.4401,6.4888,6.551,6.6524,6.6624,6.5946,6.7445,6.8159,6.823,7.0621,7.2084,7.2834,7.3867,7.4226,7.4083,7.4226,7.4619,7.5367,7.6866,7.7473,7.7687,7.9257,7.9864,7.9935,7.9971,7.9935,8.0042,8.0827,8.0577,8.0042,8.0827,7.9971,7.89,7.9685,7.9364,7.8936,7.9721,7.9899,8.0386,8.2319,8.34,8.4701,8.7226,8.8515,8.9172,8.9086,9.0518,9.1762,9.1762,9.2431,9.2988,9.2988,9.2988,9.2988,9.2988,9.2988,9.2988,9.2988,9.2988,9.2922,9.2717,9.2513,9.2303,9.2091,9.1912,9.1984,9.2373,9.2409,9.2582,9.2988,9.3359,9.3485,9.338,9.4153,9.4338,9.3961,9.4188,9.3896,5.6014,5.7409,5.8804,5.851,5.9799,6.0812,5.9512,5.9785,6.0115,5.9227,5.9797,6.05,6.0611,5.9971,5.9775,6.0593,5.9589,5.8821,5.9227,5.9028,5.8954,5.9274,6.021,6.0896,6.1054,6.1579,6.1748,6.1408,6.1087,6.099,6.1209,6.1336,6.2022,6.3297,6.3618,6.4416,6.5672,6.6556,6.6839,6.6589,6.7124,6.7624,6.8159,6.9551,7.03,7.0657,7.2511,7.3904,7.4689,7.3726,7.4083,7.5332,7.6367,7.708,7.7615,7.8722,7.9471,8.0042,8.1041,8.1077,8.0863,8.2148,8.1719,8.072,8.1006,8.0328,7.9543,7.9828,7.9685,7.9543,7.9828,8.0529,8.1778,8.4298,8.5353,8.6195,8.7667,8.8684,8.931,8.9209,9.0541,9.1688,9.1688,9.2431,9.2988,9.2988,9.2988,9.2802,9.2245,9.2171,9.2171,9.2171,9.2171,9.2328,9.268,9.2513,9.2303,9.2091,9.202,9.2127,9.2409,9.2513,9.2717,9.2988,9.3533,9.3698,9.3522,9.4117,9.4043,9.338,9.3491,9.3088,5.4803,5.5978,5.7262,5.7519,5.8363,5.9257,5.9674,5.9723,5.9767,5.9997,6.0522,6.107,6.1389,6.1047,6.0853,6.115,5.9812,5.9064,6.007,5.9183,5.8755,5.9674,6.016,6.0616,6.1146,6.1766,6.1969,6.1579,6.135,6.1087,6.0757,6.1223,6.2108,6.3421,6.3587,6.4322,6.5804,6.6339,6.6589,6.6589,6.6589,6.7124,6.8123,6.8944,6.9586,7.0193,7.1763,7.3191,7.4332,7.3547,7.4011,7.5296,7.6081,7.683,7.758,7.8401,7.9221,8.0042,8.1077,8.1113,8.0899,8.2219,8.1755,8.0756,8.1006,8.0542,7.9899,7.9899,7.9899,7.9899,7.9899,8.1085,8.2792,8.5043,8.6217,8.7044,8.7898,8.853,8.8901,8.8901,9.0202,9.1316,9.1316,9.2245,9.2914,9.2616,9.2542,9.2245,9.1428,9.1316,9.1316,9.1316,9.1539,9.1882,9.2273,9.2365,9.2303,9.2091,9.2091,9.2198,9.2409,9.2582,9.2785,9.2988,9.3792,9.3992,9.3593,9.4154,9.4043,9.3343,9.3198,9.2648,0.0,0.0,0.0,5.6528,5.6161,5.6551,6.0019,5.8995,5.8058,6.0757,6.1321,6.1539,6.2286,6.2413,6.2153,6.141,5.9887,5.9287,6.0848,5.9553,5.9013,6.0434,6.0515,6.075,6.152,6.2102,6.2291,6.1996,6.1692,6.1234,6.064,6.1661,6.2985,6.4519,6.4273,6.4631,6.5804,6.5768,6.5768,6.5804,6.5804,6.6589,6.8052,6.8908,7.0122,7.1585,7.1656,7.2084,7.2834,7.3654,7.4475,7.5296,7.6081,7.683,7.758,7.8401,7.9186,7.9864,7.9935,7.9935,8.0078,8.0863,8.0577,8.0078,8.0863,8.0542,7.9899,7.9899,7.9899,7.9935,8.001,8.1453,8.321,8.4555,8.5884,8.7081,8.7898,8.8121,8.8121,8.8121,8.9421,9.0499,9.0536,9.191,9.2691,9.1836,9.1688,9.139,9.0573,9.0462,9.0462,9.0462,9.1167,9.1622,9.1532,9.2032,9.234,9.2127,9.2091,9.2198,9.2373,9.2582,9.2822,9.3025,9.4173,9.4368,9.363,9.43,9.4337,9.385,9.3344,9.2611,5.3041,0.0,0.0,0.0,0.0,0.0,5.8385,5.8153,5.8326,6.1084,6.1367,6.1537,6.2895,6.2717,6.2524,6.2896,6.1596,6.0868,6.1886,6.0996,6.0404,6.0697,6.1148,6.147,6.1581,6.2077,6.2291,6.1996,6.1608,6.1146,6.064,6.1321,6.2364,6.3698,6.3551,6.4191,6.5768,6.5233,6.5233,6.5804,6.5804,6.6082,6.6638,6.7868,6.8761,6.9361,7.0404,7.1264,7.2049,7.2834,7.394,7.5296,7.6081,7.6509,7.6866,7.8186,7.8829,7.9186,8.0363,8.0756,8.0899,8.1648,8.1675,8.1333,8.1123,8.0816,8.0399,8.0015,7.9899,8.0343,8.2359,8.37,8.4995,8.6745,8.747,8.7787,8.8047,8.8567,8.8976,8.8976,8.9793,9.0685,9.1279,9.2282,9.2691,9.1836,9.1688,9.1205,8.9793,8.9644,8.9644,8.9644,9.035,9.1024,9.1585,9.2101,9.2409,9.2303,9.234,9.2268,9.2162,9.265,9.3081,9.3435,9.3774,9.4038,9.4263,9.4927,9.4556,9.3307,9.2501,9.2169,5.2894,5.3298,5.3628,5.4656,0.0,0.0,5.7715,5.7323,5.734,6.0389,6.0515,6.0587,6.2108,6.2079,6.2086,6.2948,6.2301,6.2004,6.2784,6.1782,6.1189,6.174,6.1785,6.1886,6.2071,6.2412,6.2475,6.2024,6.1969,6.18,6.1551,6.1242,6.1746,6.3341,6.2937,6.3511,6.5304,6.484,6.5019,6.5804,6.5804,6.6189,6.6928,6.7725,6.8546,6.9328,7.012,7.0942,7.1727,7.2156,7.3262,7.4761,7.5225,7.5796,7.6545,7.7758,7.8401,7.8864,8.0149,8.0613,8.0684,8.1113,8.1168,8.1076,8.1087,8.0777,8.0358,8.037,8.0185,8.0348,8.2393,8.3583,8.4664,8.6603,8.7304,8.7638,8.801,8.8455,8.879,8.879,8.9719,9.0647,9.113,9.1613,9.1762,9.1279,9.0907,9.0239,8.8938,8.879,8.879,8.879,8.9729,9.0588,9.1033,9.2143,9.2637,9.2305,9.26,9.2566,9.2128,9.2582,9.3159,9.3696,9.3663,9.3857,9.4263,9.4664,9.4299,9.3162,9.2207,9.202,5.2926,5.2837,5.2894,5.495,5.4473,0.0,5.7444,5.6549,5.5923,5.9197,5.9144,5.9027,6.0678,6.0937,6.1204,6.222,6.2391,6.2673,6.349,6.2287,6.1766,6.307,6.2472,6.2181,6.2757,6.2929,6.273,6.2078,6.2423,6.2662,6.2759,6.127,6.1313,6.3234,6.2368,6.2795,6.4559,6.4519,6.4912,6.5804,6.5804,6.6517,6.7871,6.7909,6.8801,7.0298,7.0336,7.0835,7.1549,7.1549,7.2548,7.3975,7.3975,7.4975,7.6474,7.7223,7.8008,7.8793,7.9614,7.9899,7.9899,7.9899,7.9938,8.012,8.0902,8.0581,8.012,8.0902,8.0577,8.0312,8.1379,8.231,8.3349,8.5101,8.6159,8.7007,8.7787,8.8084,8.8233,8.8233,8.9384,9.0387,9.0462,9.0499,9.0462,9.0387,8.9756,8.9013,8.8195,8.8084,8.8121,8.8164,8.941,9.0239,9.0317,9.212,9.3012,9.2276,9.3012,9.3086,9.235,9.2737,9.335,9.4096,9.3922,9.3823,9.385,9.385,9.3711,9.3452,9.2316,9.2057,5.3726,5.4378,5.484,5.4693,5.4876,0.0,5.6014,5.5945,5.6457,5.8976,5.848,5.8233,6.0455,6.0411,6.0515,6.2019,6.2346,6.2673,6.349,6.3319,6.314,6.3322,6.3094,6.2951,6.2978,6.288,6.2679,6.2344,6.1887,6.1644,6.1795,6.1099,6.1275,6.2485,6.1706,6.2348,6.459,6.3948,6.4341,6.5804,6.5804,6.601,6.6423,6.6975,6.7796,6.8857,6.9299,7.0015,7.0728,7.0728,7.2013,7.3975,7.3975,7.4975,7.6474,7.7223,7.8008,7.8793,7.9614,7.9899,7.9899,7.9899,8.0209,8.0617,8.0983,8.0854,8.0617,8.1019,8.097,8.1126,8.2463,8.3229,8.3904,8.4727,8.591,8.6858,8.7007,8.8121,8.905,8.905,8.931,8.9756,9.0387,9.0499,9.0276,8.9644,8.9384,8.9013,8.8195,8.8084,8.8281,8.8784,8.9646,9.0432,9.0963,9.2419,9.3233,9.3086,9.3822,9.4154,9.3896,9.4367,9.4878,9.5405,9.5184,9.4372,9.3045,9.2819,9.3381,9.4619,9.2537,9.235,5.3383,5.3602,5.3821,5.4268,5.4399,0.0,0.0,5.5073,5.5579,5.7191,5.6949,5.694,5.86,5.8962,5.9287,6.0145,6.1107,6.1842,6.225,6.3037,6.3557,6.3442,6.3265,6.3147,6.3026,6.288,6.2755,6.2705,6.2221,6.204,6.2374,6.1777,6.1661,6.2271,6.1914,6.2449,6.3984,6.4019,6.459,6.5804,6.5804,6.605,6.6503,6.7261,6.8013,6.8865,6.9584,7.0371,7.1085,7.1085,7.2263,7.394,7.3583,7.4368,7.5938,7.708,7.7758,7.8258,7.9471,8.0185,8.0506,8.0506,8.0665,8.1002,8.1516,8.1311,8.0928,8.1048,8.0827,8.0912,8.2674,8.2685,8.272,8.452,8.5153,8.564,8.675,8.7665,8.8433,8.9167,8.931,8.957,9.035,9.0164,8.9756,8.9347,8.931,8.9161,8.8753,8.905,8.9358,8.9572,9.025,9.0815,9.1016,9.2387,9.3014,9.2573,9.3713,9.4191,9.3712,9.4518,9.481,9.4559,9.4742,9.3892,9.2016,9.1865,9.2426,9.3517,9.2243,9.2204,5.3405,5.3331,5.3308,5.4363,5.4274,5.3965,0.0,0.0,0.0,5.5244,5.5354,5.5691,5.6772,5.7273,5.7707,5.8275,5.9568,6.0544,6.0752,6.2079,6.3029,6.2983,6.2868,6.2765,6.2793,6.2684,6.2708,6.2929,6.2513,6.2558,6.3202,6.2384,6.2032,6.2271,6.2128,6.2485,6.3377,6.4055,6.484,6.5804,6.5804,6.6125,6.6767,6.7552,6.8337,6.9122,7.0086,7.0942,7.1692,7.1834,7.2727,7.394,7.3298,7.4011,7.5617,7.6973,7.7687,7.8186,7.965,8.0649,8.1291,8.1148,8.1113,8.122,8.1791,8.1577,8.1113,8.1255,8.0649,8.0408,8.2594,8.2027,8.1563,8.4101,8.4496,8.4776,8.6578,8.7298,8.794,8.9098,8.9533,8.9867,9.0202,8.9867,8.9421,8.9124,8.9198,8.931,8.931,8.9867,9.0323,9.0391,9.0886,9.1161,9.1099,9.2317,9.2794,9.2097,9.3602,9.4226,9.3602,9.4448,9.4446,9.3378,9.3896,9.3342,9.1576,9.1647,9.1912,9.2312,9.195,9.2131,5.5776,5.6672,5.7213,5.5824,5.608,5.6055,5.3855,0.0,5.528,5.4656,0.0,5.4987,5.6551,0.0,0.0,5.7869,5.8497,5.8976,5.981,6.0611,6.1203,6.1403,6.1315,6.1499,6.2063,6.1982,6.2108,6.2606,6.1942,6.1911,6.2888,6.2083,6.1787,6.2301,6.1593,6.1914,6.3377,6.3484,6.4305,6.5804,6.5804,6.5839,6.5946,6.6767,6.7517,6.8302,6.9836,7.0942,7.1727,7.2405,7.3191,7.3975,7.3904,7.4868,7.6367,7.7187,7.8401,7.9757,8.0649,8.1434,8.1969,8.1327,8.1113,8.1113,8.1184,8.1184,8.122,8.1898,8.1041,8.0435,8.2727,8.2586,8.203,8.3079,8.4569,8.5805,8.6056,8.7669,8.9098,8.9273,9.0462,9.1019,8.9681,8.9942,8.9867,8.8455,8.8827,8.931,8.931,8.9384,8.985,9.0963,9.1154,9.1348,9.1692,9.2537,9.3051,9.2978,9.4483,9.5327,9.5254,9.5328,9.4816,9.3593,9.3823,9.3598,9.2904,9.3339,9.3453,9.3122,9.206,9.2611,5.5663,5.5693,5.566,5.5588,5.4986,5.4275,5.3952,5.429,5.4759,5.5038,0.0,0.0,0.0,0.0,0.0,0.0,5.7884,5.8268,5.8186,5.8511,5.936,6.1017,6.1441,6.1897,6.264,6.2082,6.1814,6.2096,6.1865,6.1669,6.1706,6.2256,6.2314,6.1593,6.2592,6.3234,6.3377,6.4305,6.5126,6.5804,6.5804,6.6053,6.6517,6.7267,6.8052,6.8908,7.0514,7.162,7.2405,7.3191,7.3976,7.4725,7.4725,7.5118,7.5867,7.7045,7.7937,7.8757,8.0506,8.1291,8.1577,8.1684,8.1755,8.1648,8.122,8.0756,8.0577,8.1327,8.0756,8.0435,8.279,8.2417,8.186,8.3542,8.449,8.5226,8.602,8.7197,8.8474,8.9729,9.0536,9.0945,9.0722,9.0982,9.0796,8.9644,8.9793,8.9979,8.9979,9.0387,9.0815,9.1151,9.1634,9.1864,9.1803,9.2134,9.2354,9.2354,9.3455,9.4374,9.4926,9.4888,9.4301,9.327,9.3382,9.3013,9.2169,9.25,9.2868,9.3162,9.3161,9.3345,5.5411,5.5202,5.4994,5.5471,5.4458,5.3484,5.3968,5.4269,5.4531,5.4891,5.528,0.0,0.0,0.0,5.6235,5.6455,0.0,5.7545,5.6779,5.7146,5.8221,6.0231,6.1396,6.2281,6.2872,6.191,6.1263,6.1263,6.1298,6.1082,6.0566,6.224,6.2647,6.145,6.327,6.3984,6.3413,6.4769,6.559,6.5804,6.5804,6.6125,6.6696,6.7659,6.8409,6.9087,7.1121,7.2298,7.2869,7.3904,7.4689,7.5225,7.5225,7.5225,7.5367,7.6688,7.7615,7.8401,8.0149,8.0934,8.122,8.1969,8.1898,8.1505,8.1184,8.0542,8.0078,8.0863,8.0506,8.0435,8.279,8.2397,8.1973,8.4277,8.4868,8.5152,8.6281,8.7171,8.8228,8.9878,9.035,9.0685,9.1279,9.1762,9.1688,9.0647,9.0499,9.0499,9.0499,9.1019,9.1334,9.1188,9.1929,9.2233,9.184,9.1803,9.1913,9.2134,9.2758,9.3419,9.4227,9.4006,9.3528,9.2758,9.2684,9.2427,9.1949,9.2097,9.2464,9.3125,9.3712,9.3896,5.5671,5.6685,5.7285,5.5919,5.5675,5.5339,5.3634,5.4436,5.5133,5.3592,5.4509,5.5354,5.462,5.4473,5.473,5.55,5.6308,0.0,0.0,5.7059,5.8156,5.864,6.0774,6.2197,6.2234,6.1134,6.0298,5.9889,5.9885,5.9907,5.9938,6.1673,6.2563,6.2265,6.302,6.3413,6.3377,6.4234,6.5054,6.5804,6.5804,6.5804,6.5875,6.741,6.8088,6.8302,7.1406,7.2762,7.2905,7.4511,7.5189,7.5225,7.5225,7.5225,7.5296,7.6117,7.7865,7.9828,7.9935,8.047,8.122,8.1969,8.1184,8.0113,8.0863,8.0542,8.0078,8.0863,8.0506,8.0435,8.279,8.279,8.2735,8.4943,8.5878,8.6427,8.7059,8.8257,8.9273,8.931,8.9979,9.0499,9.0536,9.1873,9.2393,9.0759,9.0499,9.0499,9.0499,9.0536,9.0703,9.1151,9.1929,9.2233,9.184,9.1803,9.217,9.3015,9.3088,9.3162,9.3307,9.3051,9.261,9.2165,9.1767,9.2059,9.3051,9.3051,9.3088,9.3088,9.3125,9.3969,0.0,0.0,5.6021,5.6006,5.506,5.409,5.4019,5.4693,5.5066,5.4194,5.528,0.0,0.0,5.5537,5.5464,5.6271,5.6161,5.5743,0.0,5.6309,5.7427,5.7661,6.0337,6.2419,6.2937,6.1321,6.0201,6.0078,5.9595,5.9339,5.9378,6.1765,6.2892,6.2337,6.4055,6.4733,6.4198,6.4983,6.5518,6.5804,6.5804,6.6339,6.7338,6.7838,6.8694,6.98,7.187,7.2798,7.2905,7.4547,7.5225,7.5225,7.5225,7.5546,7.6081,7.683,7.7972,7.9257,8.0328,8.1541,8.2504,8.1719,8.1113,8.0756,8.1006,8.0542,8.0078,8.0863,8.0506,8.0328,8.2148,8.204,8.202,8.4187,8.5153,8.5878,8.6948,8.7882,8.8641,8.9198,8.9533,8.9867,9.0424,9.1428,9.1948,9.139,9.1279,9.1279,9.1279,9.1279,9.126,9.1188,9.1929,9.2233,9.184,9.1803,9.1913,9.2207,9.2244,9.228,9.2316,9.2207,9.206,9.1912,9.1767,9.1877,9.2244,9.2244,9.2537,9.3125,9.3639,9.4189,5.5834,5.5604,0.0,5.5977,5.5085,0.0,5.461,0.0,5.5769,0.0,0.0,0.0,0.0,5.5587,5.5669,5.5747,0.0,5.4987,0.0,5.5411,5.6491,5.7441,6.0248,6.2068,6.1925,6.0919,5.9932,5.9126,5.9138,5.8978,5.8589,6.139,6.277,6.2307,6.4019,6.484,6.4626,6.5126,6.5518,6.5804,6.5804,6.6482,6.7695,6.798,6.8837,7.0193,7.2013,7.2798,7.2905,7.4547,7.5225,7.5225,7.5225,7.551,7.6045,7.6509,7.7366,7.8543,8.0435,8.1541,8.2005,8.1006,8.0684,8.0684,8.0684,8.0328,8.0078,8.0863,8.0506,8.0256,8.1791,8.1985,8.2299,8.4167,8.5264,8.6229,8.7287,8.7826,8.8344,8.9124,8.905,8.9124,8.9942,9.0722,9.1353,9.165,9.1688,9.1655,9.1627,9.1627,9.1494,9.1122,9.1788,9.2162,9.184,9.1803,9.1803,9.1803,9.1803,9.1803,9.1803,9.1803,9.206,9.2684,9.2097,9.2097,9.2684,9.2097,9.2097,9.2648,9.3492,9.4042]}]]